GFSSGP_850_spd_000.txt.gz
Wind_Speed
4 2 0 1 4 6 3 2 1 1 3 2 6 8 8 8 3 3 9 7 4 6 8 10 8 6 8 8 7 5 2 3 4 2 2 2 3 5 9 11 11 10 12 15 20 21 16 13 13
3 1 0 2 5 5 3 4 3 0 8 13 11 8 10 4 5 13 12 10 7 8 9 10 9 9 9 8 6 4 3 3 3 1 2 3 6 10 13 13 14 18 20 21 22 20 12 8 9
4 2 1 4 4 4 4 1 3 5 9 6 4 8 4 4 10 13 13 11 9 10 10 10 11 10 9 8 7 5 3 2 0 2 3 4 8 12 13 14 16 17 17 13 9 5 6 5 12
3 2 6 6 4 4 3 3 9 6 4 4 9 6 7 6 8 11 14 12 12 13 13 13 11 10 9 8 7 6 3 1 1 2 2 4 6 7 7 8 10 10 9 5 4 5 8 9 9
4 4 5 5 4 3 3 4 11 6 6 5 5 3 4 6 11 15 13 13 12 15 14 14 11 10 9 7 5 2 2 3 3 2 3 5 6 6 6 7 8 9 9 9 9 9 8 10 12
4 4 5 4 1 3 2 3 5 5 8 12 11 7 4 12 16 16 12 13 11 10 12 11 10 7 4 2 1 2 2 3 3 4 4 4 4 5 4 6 7 7 8 9 10 10 10 12 12
6 5 4 4 3 2 1 3 4 5 4 3 11 5 9 15 14 14 12 12 9 6 3 4 5 3 4 6 5 4 4 4 5 6 6 5 6 7 8 7 7 6 7 8 10 11 11 11 11
5 5 3 3 2 1 3 2 4 4 3 9 8 6 6 19 16 15 12 9 7 5 4 3 3 5 8 10 10 7 5 3 4 5 6 7 7 8 8 9 9 9 9 10 10 11 10 10 11
4 5 2 3 4 2 2 2 3 3 6 3 3 7 8 21 21 19 17 13 9 6 3 1 2 6 9 11 11 7 5 3 4 6 7 8 7 7 8 9 9 11 12 12 12 12 12 11 9
6 5 4 3 4 1 3 1 3 2 3 2 3 6 17 24 22 21 20 15 8 6 3 2 2 3 7 6 7 7 6 5 4 6 8 9 10 9 9 10 12 14 15 16 15 15 12 12 11
3 4 3 2 2 1 1 2 2 9 2 9 12 13 21 22 19 19 17 12 5 5 7 6 5 5 7 6 5 6 7 6 7 8 9 10 11 11 12 13 16 17 17 17 17 17 16 13 12
6 4 3 2 2 3 2 2 2 8 6 8 10 14 19 20 18 16 16 14 12 9 10 9 5 6 8 9 9 9 10 9 9 10 11 11 12 13 16 17 18 18 19 19 19 18 17 17 16
4 2 3 2 5 4 2 4 5 12 9 7 10 17 21 18 14 14 14 14 13 14 12 9 4 7 8 9 11 11 11 11 12 13 14 15 15 17 18 19 19 20 20 20 20 18 17 18 17
2 1 2 1 3 1 2 4 3 3 3 10 13 19 21 19 14 16 17 16 14 13 12 11 4 5 7 10 10 10 11 13 14 16 16 16 17 19 19 19 19 20 21 21 21 19 17 16 17
4 5 6 8 5 2 2 6 6 8 7 8 15 19 21 19 17 16 13 14 13 10 14 10 4 3 7 9 9 10 12 13 14 14 14 16 18 18 18 19 20 19 21 21 21 21 21 19 17
6 6 5 6 4 5 3 8 13 7 6 14 13 19 23 22 20 18 15 13 12 12 14 10 4 4 7 8 11 12 13 15 15 16 17 17 17 17 18 20 19 17 18 19 21 21 21 20 19
8 1 2 7 7 5 2 8 13 11 18 22 12 18 22 22 19 16 14 11 14 16 14 9 2 4 4 7 10 11 13 14 15 17 19 20 21 20 21 21 20 19 19 19 21 22 21 21 22
2 2 2 3 6 7 4 8 9 18 14 16 11 10 21 17 13 11 11 12 13 16 12 9 1 2 4 6 9 9 11 12 14 16 18 21 23 25 26 26 25 24 24 24 24 24 24 24 24
0 1 2 3 1 5 4 6 9 15 9 6 3 5 8 8 6 2 2 1 5 9 9 3 3 2 5 10 12 14 15 16 20 22 22 24 27 30 32 33 32 30 31 29 27 27 28 29 28
3 2 4 5 3 0 6 7 6 10 7 9 10 13 14 13 11 10 11 9 9 5 3 4 5 9 11 14 16 18 22 23 24 25 27 30 31 32 36 39 39 39 38 37 35 34 34 33 33
4 2 2 5 6 1 5 4 7 5 11 12 11 9 11 11 10 8 8 5 3 0 2 3 5 10 14 18 19 21 23 24 27 27 26 27 33 34 36 35 39 43 44 44 42 42 40 39 37
4 2 2 4 2 1 4 2 6 6 4 6 5 6 8 7 6 5 1 3 4 5 6 7 10 13 17 17 16 20 23 27 29 32 36 38 33 31 31 32 32 35 44 49 48 46 44 42 40
6 4 2 1 2 3 9 4 6 6 5 2 2 7 5 6 4 3 7 8 10 9 8 8 8 10 12 14 18 22 27 31 34 37 37 35 35 35 35 35 36 36 36 43 50 47 42 39 37
6 3 5 4 2 3 3 3 5 3 4 4 1 2 3 4 4 4 5 4 4 1 1 4 7 11 16 22 27 31 31 34 36 38 39 40 41 40 38 36 34 36 36 37 35 36 29 25 23
9 6 3 5 5 4 3 1 6 6 4 2 3 2 0 5 7 4 3 2 1 2 6 11 18 23 26 29 31 33 33 32 35 39 40 38 37 36 35 32 28 27 20 21 24 25 25 21 18
3 4 4 2 1 5 5 3 2 4 8 8 7 6 5 7 8 7 5 4 4 8 15 21 25 28 30 30 28 27 28 34 38 40 39 33 31 32 30 28 19 17 17 16 8 5 7 12 15
2 4 2 5 2 3 3 4 5 4 9 15 11 11 13 12 11 10 8 7 10 18 24 26 27 26 26 25 27 32 37 41 44 41 35 26 27 29 22 16 11 7 9 10 19 18 17 27 23
6 4 4 4 2 4 5 5 4 6 9 7 6 8 12 12 12 13 14 15 16 18 22 23 23 23 24 28 30 35 42 44 44 40 25 21 25 19 9 7 7 12 15 17 22 24 18 16 13
4 3 5 3 3 3 3 5 5 5 2 7 3 8 13 14 15 17 19 19 20 22 24 23 25 27 29 30 34 40 43 45 41 25 16 14 11 7 6 8 11 16 18 15 12 12 12 14 17
2 3 4 4 4 2 3 6 2 5 4 9 4 7 13 17 20 21 21 23 21 27 25 24 27 30 31 30 36 42 42 36 26 19 7 6 5 6 7 14 12 8 13 18 19 19 20 22 23

GFSSGP_850_spd_003.txt.gz
Wind_Speed
6 4 2 1 2 3 3 2 2 4 2 3 6 5 7 5 1 3 13 8 4 8 12 11 9 7 7 6 5 4 3 4 3 3 4 5 7 10 10 10 10 11 10 15 20 21 20 16 10
5 4 3 2 4 7 3 2 3 3 11 9 9 6 4 4 5 14 13 12 11 13 14 13 13 12 9 8 5 4 4 4 3 1 1 3 6 9 9 10 11 14 17 20 21 18 13 7 7
5 4 2 3 3 5 5 2 8 10 4 3 5 7 4 6 12 14 14 14 14 15 16 15 15 14 11 9 7 6 5 3 2 2 3 4 8 9 11 13 14 15 15 13 11 11 6 6 7
3 3 5 6 7 1 2 7 9 7 3 4 9 8 6 5 11 11 14 14 14 15 16 16 14 12 9 7 5 3 3 3 4 4 4 5 7 8 9 9 10 11 10 8 7 7 8 10 10
3 3 5 7 6 3 2 4 7 3 2 4 3 5 5 8 10 14 14 14 14 16 17 15 13 10 7 5 4 2 2 2 2 3 5 7 8 7 7 7 8 8 8 7 7 7 8 9 11
4 4 6 9 7 2 4 4 4 3 5 7 8 5 3 11 14 14 13 14 14 14 14 14 11 9 8 5 3 3 3 4 4 4 6 6 6 7 7 9 10 12 12 13 12 10 10 11 11
6 4 3 5 7 3 4 5 7 6 6 4 10 4 7 14 14 13 13 14 15 13 11 9 8 7 6 4 2 1 2 4 4 5 6 6 8 8 9 9 10 11 11 11 11 12 13 13 12
6 5 4 2 5 3 2 4 6 5 3 11 9 5 6 19 17 16 14 14 13 10 8 6 4 4 5 6 6 5 2 0 2 2 4 5 7 8 8 9 10 11 13 14 14 14 14 14 13
4 4 3 5 6 4 3 4 3 4 8 5 6 9 9 20 20 17 16 15 12 10 8 5 1 3 5 6 7 7 6 3 2 3 5 6 6 7 8 9 10 12 14 16 17 17 16 14 12
4 4 4 2 2 3 3 2 5 4 3 4 7 8 15 22 20 19 18 13 10 9 7 3 1 3 5 6 6 5 6 5 4 5 6 8 9 9 9 10 12 14 16 16 17 18 17 15 12
3 4 6 3 5 5 3 3 2 7 2 7 10 11 18 22 23 20 17 13 9 9 7 3 2 3 3 3 5 4 5 5 6 7 8 9 11 11 12 14 18 19 20 20 20 19 19 17 14
5 3 4 5 5 4 4 3 2 7 5 6 8 12 20 24 20 20 17 13 9 8 7 6 4 2 3 5 7 7 7 8 8 9 10 11 12 13 15 17 20 20 21 21 20 20 20 19 18
5 1 4 3 5 3 3 2 2 9 10 9 10 14 19 19 14 15 12 13 10 11 11 9 6 1 4 6 7 6 7 8 10 11 12 13 13 14 17 19 19 20 20 20 20 20 19 17 16
3 5 4 5 1 3 1 1 1 0 1 10 11 17 20 19 16 15 17 15 11 10 11 11 6 1 5 6 6 7 8 9 10 12 12 13 14 16 18 18 18 18 19 19 20 19 18 18 17
4 4 2 13 5 4 4 2 4 4 7 2 7 15 22 23 18 16 14 14 12 8 11 10 6 1 3 5 6 8 10 11 12 13 13 13 14 16 18 19 19 19 19 19 19 18 18 18 18
5 5 3 5 9 5 3 5 7 7 8 11 11 9 21 25 22 19 16 14 14 13 13 11 6 1 3 5 7 9 11 13 13 15 16 17 18 18 19 19 20 19 20 21 21 21 22 21 19
8 2 4 5 5 5 4 6 6 19 13 13 9 5 16 23 24 21 18 15 11 10 14 11 6 2 4 2 7 8 11 13 13 13 14 15 17 19 22 24 26 25 25 25 24 23 23 23 23
1 1 1 3 5 5 3 7 12 15 4 5 6 2 12 18 17 14 10 11 10 12 14 11 7 5 2 5 9 10 13 14 17 18 20 20 22 24 26 29 31 31 32 32 30 30 30 28 26
2 2 2 3 2 4 3 5 9 13 13 12 9 8 8 8 7 6 7 10 12 15 14 11 7 5 3 8 10 13 17 18 20 21 23 25 25 25 26 29 33 36 39 41 41 38 36 35 33
2 3 1 3 1 1 5 8 6 13 9 9 11 13 12 13 11 11 11 12 10 8 9 8 9 10 11 13 16 18 19 19 20 21 24 25 27 29 34 35 35 35 37 38 40 45 45 44 41
1 2 2 3 6 2 3 3 9 5 8 11 12 13 14 14 13 12 11 10 9 8 9 8 8 10 12 14 14 14 15 19 23 28 32 33 34 34 33 33 34 35 34 34 34 39 45 50 46
2 2 3 3 1 1 4 3 6 7 5 6 6 8 9 8 8 6 5 5 6 6 6 6 7 7 7 11 15 20 24 27 28 30 32 33 34 36 37 37 36 36 36 38 37 37 39 42 47
2 2 1 1 3 2 6 1 3 5 6 6 8 5 6 5 3 2 3 4 3 3 3 2 4 7 13 19 24 27 28 28 31 35 39 39 40 38 37 36 34 34 34 35 36 37 38 38 41
4 2 3 2 2 1 1 2 2 4 5 5 4 11 7 3 3 3 2 7 9 8 4 1 8 16 23 27 29 28 28 31 34 37 40 41 41 40 37 33 30 27 27 26 26 24 20 15 17
8 3 1 2 3 1 2 1 2 6 6 6 7 9 10 8 7 3 4 4 3 2 8 14 20 25 28 32 31 29 28 29 34 38 41 41 39 36 31 27 25 23 21 19 12 4 9 8 4
4 3 2 1 2 4 3 1 2 4 8 8 9 9 12 13 12 9 5 6 9 13 18 22 25 27 34 32 28 26 27 31 38 41 40 39 35 30 25 23 18 14 10 4 5 8 9 9 13
2 5 1 5 1 2 3 1 6 4 9 10 7 8 10 11 12 12 12 15 17 19 24 26 28 30 23 23 23 25 29 35 39 40 37 31 24 20 17 14 9 6 5 6 8 14 17 24 18
4 4 1 3 3 3 4 4 3 3 4 2 3 3 7 10 15 18 19 19 20 20 19 21 20 19 21 24 25 27 32 35 38 34 28 21 17 10 8 9 7 3 3 4 7 11 13 12 11
2 2 5 3 1 1 3 5 4 4 3 2 7 4 4 9 15 19 19 19 21 18 20 23 22 21 23 25 25 31 34 35 30 27 21 15 10 9 8 9 11 12 17 20 15 12 13 17 16
1 3 3 2 2 1 1 8 3 6 2 5 8 8 6 12 18 21 20 20 15 12 22 24 19 19 22 24 30 32 29 26 26 21 18 10 10 7 9 14 19 23 20 14 16 18 18 19 21

GFSSGP_850_spd_009.txt.gz
Wind_Speed
6 5 3 8 8 9 9 6 12 11 9 6 6 10 14 15 14 5 11 10 13 12 8 7 8 9 7 6 5 4 3 3 2 2 4 5 7 7 8 9 9 10 11 13 14 16 18 16 16
4 6 6 12 9 9 9 9 13 12 13 11 8 6 10 14 14 16 13 13 14 13 11 8 10 9 8 6 4 3 2 1 1 1 3 5 7 8 8 10 11 13 15 15 15 15 15 14 12
6 9 15 6 13 6 9 8 14 13 9 5 8 12 6 9 10 13 15 15 14 14 9 11 12 10 8 5 3 2 1 2 3 4 4 6 8 9 10 10 11 12 13 14 13 13 13 13 12
4 7 10 10 13 11 10 12 15 11 7 2 8 12 10 11 10 14 16 15 14 13 10 13 12 10 7 5 4 3 2 4 5 6 6 8 9 10 10 9 9 9 10 10 11 11 12 12 11
9 15 9 6 12 10 11 13 12 13 12 8 3 9 14 10 13 16 15 14 15 14 11 12 11 9 6 3 2 2 2 3 4 4 6 7 8 8 8 8 8 9 9 10 11 11 11 11 11
13 18 6 9 11 8 8 8 2 5 6 6 3 13 14 12 15 14 14 14 13 13 11 11 10 8 6 4 2 2 3 3 3 5 6 7 7 7 8 7 7 9 9 12 13 14 14 13 13
17 10 9 15 11 10 9 4 4 4 7 4 7 8 10 14 14 15 14 14 13 12 10 8 7 7 5 5 4 3 3 4 5 6 6 7 8 8 8 8 9 11 13 15 17 17 16 16 15
15 2 11 11 11 12 8 5 4 3 11 7 1 6 15 16 15 14 14 13 11 11 9 7 7 4 4 5 5 4 3 3 4 5 7 9 10 10 10 9 11 12 13 15 17 17 17 17 16
7 5 7 6 7 8 9 7 2 1 8 2 4 10 14 17 16 14 14 13 11 11 9 7 4 4 4 4 6 8 6 7 8 10 10 11 7 8 10 15 12 14 15 17 19 19 19 18 14
12 4 12 6 4 9 9 7 7 8 9 7 7 7 14 16 16 15 15 15 13 12 8 6 5 3 3 3 3 2 3 3 2 3 6 7 8 9 13 13 18 18 18 20 18 19 18 14 10
9 6 10 4 2 6 9 4 4 7 8 10 13 12 16 15 16 15 15 14 13 12 10 8 5 2 3 1 2 2 3 4 4 7 7 7 9 8 10 10 12 13 16 12 15 13 12 13 13
8 10 6 6 3 2 4 5 5 8 7 10 7 13 15 16 15 16 16 14 13 12 11 7 4 1 1 3 1 1 2 2 4 5 8 8 8 9 10 10 12 13 13 14 13 13 14 14 13
10 9 9 9 7 2 2 6 2 7 5 7 8 12 14 14 14 14 14 13 12 11 10 8 6 4 1 0 0 1 2 2 3 4 6 7 7 8 10 11 12 13 13 14 14 14 14 14 13
7 9 9 7 6 4 7 6 9 7 7 10 10 12 13 13 12 11 13 13 12 12 11 10 8 6 3 3 3 2 1 3 3 4 5 7 6 8 10 11 12 13 13 14 15 15 16 15 14
9 9 8 7 8 5 7 10 14 9 5 9 12 13 13 13 11 11 12 14 13 11 11 10 9 8 6 5 3 2 2 3 3 4 5 7 9 10 12 12 13 15 16 18 18 18 19 19 18
11 10 11 8 9 5 11 16 12 8 7 12 10 10 13 14 13 11 12 13 13 11 9 10 10 10 7 7 5 3 3 3 4 5 7 8 8 11 14 14 15 17 19 20 20 21 21 21 22
9 11 5 8 3 2 9 6 14 3 10 13 14 14 12 14 15 14 13 12 10 9 10 11 12 10 7 7 5 5 5 4 6 6 6 10 11 12 16 18 21 22 21 23 23 24 24 24 25
7 5 9 4 7 7 9 9 6 6 7 11 12 13 11 13 16 14 10 9 9 8 9 11 10 9 8 7 6 6 6 6 8 8 7 9 9 14 19 20 21 22 20 22 24 26 27 29 30
5 5 5 6 4 6 3 4 5 4 4 5 4 5 6 10 11 8 5 5 4 4 6 9 11 13 6 6 7 7 9 9 8 8 9 10 13 23 24 18 17 19 20 23 27 29 29 30 30
3 4 2 3 2 5 4 6 6 8 7 8 9 10 11 11 9 8 8 9 7 7 8 7 5 2 2 4 3 5 6 6 9 8 13 13 18 21 20 20 20 20 22 25 26 26 29 30 28
4 7 6 9 4 8 7 9 11 8 13 13 14 14 14 14 13 12 13 12 10 9 8 7 6 5 5 4 3 5 7 10 13 15 17 17 22 21 20 20 20 21 21 23 24 25 26 31 31
6 4 7 8 7 7 11 4 8 12 10 11 11 12 12 11 9 9 9 9 9 10 9 8 6 4 6 2 5 10 10 12 14 16 19 23 21 20 21 21 21 21 21 22 23 22 25 26 31
7 7 7 8 9 8 10 9 10 11 9 9 9 9 9 8 8 8 8 8 7 7 6 5 3 4 6 6 10 13 14 19 25 23 20 21 19 20 21 22 23 27 22 20 19 19 18 19 21
7 7 6 6 5 5 3 6 10 6 8 7 8 7 6 6 6 5 5 5 4 4 4 4 6 8 8 9 13 16 25 33 18 19 20 19 21 22 22 23 21 20 18 17 17 17 16 17 17
9 6 3 3 4 2 4 7 10 8 7 8 5 6 5 7 5 3 2 1 2 3 5 7 12 13 12 14 15 14 15 16 17 19 19 23 24 23 23 20 18 17 17 17 17 17 20 13 12
5 7 3 4 2 4 9 5 8 10 10 6 5 3 3 4 4 3 3 6 8 9 11 13 13 15 17 16 17 18 17 16 17 18 21 22 22 23 20 19 19 19 20 19 16 11 13 16 19
3 4 3 2 1 3 5 5 9 9 9 4 2 4 3 4 4 5 8 9 13 15 15 14 15 17 17 17 19 16 15 16 17 19 20 21 22 22 21 21 20 16 14 13 14 14 19 20 22
8 3 3 1 3 4 2 10 7 9 7 6 5 7 10 10 10 12 14 15 17 17 18 15 16 17 19 18 15 14 17 17 18 20 21 22 21 21 20 19 17 15 17 20 24 24 22 20 16
2 1 3 4 4 4 5 5 8 3 3 6 11 14 14 13 11 15 16 16 16 17 18 17 16 14 15 16 16 16 17 17 18 20 20 19 22 19 20 17 20 22 25 28 21 17 18 18 17
4 4 4 2 2 3 3 7 7 5 2 7 11 11 12 13 13 17 18 14 17 17 18 18 14 19 14 14 16 17 18 20 21 19 22 20 18 18 19 20 22 21 19 19 19 20 17 18 19

GFSSGP_850_spd_012.txt.gz
Wind_Speed
5 2 2 8 4 5 13 8 13 9 9 14 17 16 21 22 10 8 13 16 13 6 13 12 11 11 10 9 7 6 6 4 4 4 6 7 8 9 9 9 10 11 12 12 13 13 14 14 15
6 1 7 6 5 11 3 9 15 15 16 12 14 8 23 18 20 20 19 17 12 18 8 12 11 10 9 8 6 5 5 4 4 6 7 8 8 8 9 9 11 11 12 12 12 12 13 13 13
6 3 9 4 9 15 10 13 13 14 10 13 8 23 17 19 19 18 19 20 20 13 7 13 13 12 10 8 7 5 4 4 5 6 6 7 8 8 9 9 9 11 12 12 13 13 13 13 13
3 4 8 7 12 13 15 16 16 10 4 4 18 14 19 16 18 19 19 18 15 9 16 15 14 12 10 8 5 3 3 3 4 5 6 7 7 8 8 8 9 9 10 11 12 13 13 13 13
7 6 7 10 11 12 13 16 9 10 3 9 6 18 22 19 20 19 19 18 15 14 16 15 13 11 8 6 4 3 3 4 4 6 7 7 8 9 8 9 9 10 11 12 13 14 14 14 13
10 5 7 8 11 12 11 7 1 24 12 9 11 21 19 17 18 17 18 18 16 13 15 14 12 9 6 4 3 3 3 4 5 6 7 8 9 9 9 8 8 9 10 12 13 14 14 14 14
13 8 15 11 11 9 7 4 2 3 7 9 9 16 17 17 15 17 17 16 16 13 14 13 10 9 8 6 5 5 4 4 5 6 8 9 9 10 9 8 8 11 12 14 16 17 17 16 16
21 9 16 8 8 12 7 3 8 6 16 12 7 5 16 20 16 16 16 16 14 13 12 8 10 10 6 8 7 7 7 8 9 9 12 12 13 18 16 14 17 16 16 17 19 19 19 18 15
20 13 7 8 11 10 8 4 3 7 11 7 6 7 24 21 17 16 15 14 12 12 10 8 8 7 3 6 9 8 10 11 10 11 13 11 12 11 16 16 19 18 19 20 16 21 19 14 11
10 8 12 10 9 10 10 8 9 6 11 7 9 14 19 19 18 16 15 14 12 11 9 10 5 5 8 4 6 10 10 11 8 6 7 5 9 6 13 13 17 16 20 18 17 17 17 13 13
10 7 10 10 10 5 10 10 7 6 7 16 13 12 18 16 16 15 14 14 13 12 10 8 8 6 7 2 5 6 5 3 5 1 9 4 8 4 5 8 12 15 16 14 20 16 15 17 22
1 9 8 13 5 2 8 7 4 6 11 12 18 16 19 16 15 15 15 18 15 16 16 10 5 3 7 6 4 6 3 2 2 4 3 4 2 4 5 5 10 10 11 14 14 15 16 16 19
6 4 7 8 6 2 6 3 4 4 10 7 11 14 15 14 14 13 14 16 13 17 17 15 11 4 1 8 3 5 6 3 4 1 6 7 5 7 7 9 9 10 12 13 15 18 15 17 18
9 6 9 8 8 4 4 6 4 9 12 11 8 13 16 15 16 17 13 12 16 15 18 18 13 6 5 5 6 3 2 3 2 3 7 6 7 10 11 13 14 12 13 16 21 18 21 22 23
6 8 6 7 8 5 5 8 11 11 7 11 11 10 14 15 13 14 14 14 13 14 18 19 16 12 9 6 5 5 5 2 1 4 8 10 8 10 13 16 16 14 16 21 24 20 21 22 23
9 9 9 11 9 7 7 12 16 13 13 10 13 16 15 15 14 15 13 13 12 10 15 10 19 10 6 4 6 3 5 2 2 4 6 8 10 13 15 15 18 19 24 28 27 26 22 24 25
9 9 9 8 7 2 9 13 16 11 6 9 12 14 12 11 15 15 14 11 12 12 3 8 10 7 6 10 6 7 7 3 7 8 7 11 8 13 15 18 22 25 28 28 26 24 23 24 26
11 10 5 3 8 5 9 10 6 7 6 12 15 17 17 16 13 17 13 11 5 5 4 4 9 5 7 6 8 6 8 6 4 5 10 14 8 14 18 22 21 21 25 25 22 25 28 29 29
9 8 7 13 6 3 10 8 9 8 4 2 3 3 6 18 21 16 10 6 2 4 1 8 10 12 6 4 8 9 7 5 7 5 9 12 14 20 27 24 22 25 21 23 24 27 28 28 28
5 5 4 5 6 5 7 11 11 7 7 9 9 11 19 19 18 17 13 11 12 9 6 10 9 8 7 5 3 5 6 6 6 6 9 11 17 24 34 24 22 21 25 27 25 24 28 31 28
4 6 9 8 6 8 9 7 13 10 9 13 19 19 18 16 15 14 13 13 10 9 8 6 3 3 5 8 2 1 4 6 11 19 29 21 28 40 21 20 22 24 28 30 30 25 24 26 26
4 6 5 8 7 8 13 3 13 14 11 13 17 16 15 13 14 14 12 10 10 9 9 7 7 6 4 2 7 14 9 10 14 14 20 27 19 15 19 22 23 24 27 30 23 22 24 25 25
6 4 6 8 9 10 10 6 13 16 13 12 14 14 12 12 11 10 9 9 9 7 6 5 3 3 5 8 13 12 11 16 19 15 16 17 14 20 26 24 26 29 29 24 23 21 20 19 19
6 9 9 8 9 3 12 2 5 3 12 11 12 11 10 8 7 6 6 6 6 5 3 4 5 8 11 10 9 18 15 15 15 16 16 17 21 27 24 25 26 24 18 18 20 22 21 22 25
8 8 4 2 3 2 6 2 10 11 10 14 11 13 9 7 7 6 6 5 2 3 6 9 11 13 13 17 11 10 14 14 13 16 19 24 26 22 26 23 21 19 20 23 26 24 24 24 24
5 6 2 4 5 3 4 3 8 14 13 13 11 8 7 7 4 2 2 4 5 8 11 13 13 15 15 17 15 13 13 14 15 17 23 20 20 22 19 20 22 20 21 19 22 24 25 26 26
6 6 3 1 2 1 5 16 13 11 9 10 7 2 2 1 3 2 5 7 9 11 11 13 16 14 14 14 16 17 14 16 19 20 20 22 17 18 21 24 21 24 28 26 23 25 27 31 30
5 2 2 3 2 3 8 6 7 5 4 4 3 7 8 10 12 9 11 14 14 14 15 15 13 15 16 17 20 20 19 18 18 19 19 18 23 29 23 21 23 21 22 21 25 29 27 18 21
1 2 2 3 0 2 3 2 6 6 6 7 7 8 10 8 11 14 16 16 13 15 18 19 19 17 18 17 15 14 16 17 17 16 19 24 30 24 22 23 26 25 26 25 24 25 25 23 23
2 4 3 0 2 1 1 6 3 4 7 12 8 9 8 9 14 17 17 18 20 19 16 15 16 18 14 14 15 18 18 17 17 20 23 24 21 21 20 21 23 24 22 22 23 24 24 25 23

GFSSGP_850_spd_015.txt.gz
Wind_Speed
8 3 1 4 3 2 4 7 7 9 11 31 26 21 17 17 7 8 22 16 13 14 18 15 14 13 11 10 9 9 9 10 9 9 9 10 10 10 10 9 9 10 10 10 11 10 10 11 12
5 1 3 4 2 2 3 10 11 9 18 38 29 29 29 19 28 26 23 15 10 19 18 16 14 13 11 10 9 9 9 8 8 8 8 9 9 10 9 10 11 11 11 11 11 11 11 11 12
4 1 2 3 2 3 3 8 6 7 17 22 14 27 14 15 15 21 23 10 13 15 15 16 14 13 11 10 9 8 7 7 7 7 9 10 10 11 11 11 11 11 11 11 12 14 14 14 14
2 1 4 1 8 7 10 9 12 8 22 32 22 10 28 23 24 23 20 16 12 14 17 17 15 13 11 9 7 6 6 6 7 8 9 10 10 10 10 9 9 10 10 12 13 14 14 14 14
6 2 1 4 5 6 8 17 17 6 13 33 35 15 25 25 28 22 16 11 17 21 19 18 14 12 9 7 6 5 5 7 8 9 9 9 8 9 8 8 9 9 10 11 12 14 15 15 15
2 2 2 4 12 2 6 18 11 13 13 28 31 26 23 26 24 21 16 15 19 20 19 16 13 10 7 5 5 6 6 7 8 9 8 7 9 10 11 9 11 11 12 13 15 16 16 16 16
3 1 5 6 9 7 6 13 8 13 16 14 31 12 23 25 21 20 16 15 18 19 17 14 12 10 10 9 9 9 9 9 9 9 9 10 11 12 14 13 14 14 15 16 17 17 17 15 13
7 3 7 5 4 3 5 19 23 21 9 23 18 8 17 27 23 21 15 16 14 13 13 11 10 10 11 11 10 11 11 12 12 12 11 10 12 13 15 13 16 16 19 18 16 20 17 14 11
19 1 8 14 4 5 8 6 18 19 19 21 11 33 32 29 24 20 19 19 15 11 12 8 7 8 8 12 15 13 12 11 10 10 10 7 10 10 13 13 14 16 16 16 19 18 17 16 16
7 3 3 2 10 7 8 14 8 14 16 24 29 31 29 26 22 21 21 19 21 15 16 12 5 7 7 8 8 10 10 11 10 9 8 6 7 6 9 8 10 14 12 15 17 20 19 20 22
4 5 6 13 23 19 18 14 9 16 6 27 33 31 25 21 20 19 19 20 20 15 18 12 5 14 7 2 5 7 9 7 4 5 4 5 2 0 5 7 9 10 12 13 15 17 20 19 20
5 15 16 9 15 16 9 13 3 4 13 24 29 28 23 21 20 18 21 21 19 18 20 13 7 9 14 11 10 11 9 6 4 5 4 3 0 1 2 5 8 8 9 11 13 17 21 18 19
6 7 13 8 8 13 12 9 2 15 18 24 27 27 23 20 18 16 19 23 20 22 22 15 8 7 10 10 11 11 8 5 6 3 3 3 4 4 7 10 11 11 11 13 17 21 25 21 22
11 17 13 7 7 5 1 3 6 12 18 27 25 28 23 21 22 18 18 23 18 25 22 17 11 5 7 13 8 8 6 3 2 4 5 6 6 6 9 11 12 13 15 16 20 23 24 22 23
11 6 7 7 13 5 4 4 6 10 20 20 20 23 20 21 23 22 16 18 22 19 30 26 13 6 8 9 6 7 3 0 3 7 8 11 8 8 8 10 12 14 17 21 24 27 24 23 23
3 3 4 5 12 9 9 7 8 19 16 22 21 18 22 22 25 25 18 15 19 21 29 27 11 18 17 9 5 9 6 2 3 5 4 7 8 12 13 12 13 18 21 24 27 25 23 23 22
2 5 5 5 16 5 4 7 14 22 19 16 20 22 19 21 23 25 20 16 13 12 12 18 8 15 15 11 9 6 5 6 6 9 7 8 8 12 15 14 22 30 28 27 27 28 26 27 28
4 5 6 7 2 4 3 2 4 8 6 3 5 4 20 14 19 22 19 18 13 11 7 11 11 6 10 15 10 8 6 4 6 4 6 10 12 15 16 22 35 36 33 31 28 27 28 29 29
4 5 10 4 5 2 3 3 6 20 10 21 27 33 33 34 24 23 23 17 14 19 20 22 22 19 14 14 10 10 9 6 3 5 8 10 15 19 26 28 28 25 28 28 28 28 26 28 29
4 6 5 4 4 3 2 1 7 16 14 25 31 33 31 28 24 20 14 18 15 10 6 6 6 11 8 8 8 8 6 4 5 8 10 17 19 24 23 25 19 21 23 27 31 30 32 27 26
7 5 5 4 6 4 2 2 8 8 25 32 31 29 25 23 21 16 14 13 10 9 4 2 1 1 4 3 4 5 5 9 12 15 20 20 21 26 22 18 21 24 27 28 29 32 26 29 29
4 5 5 5 4 3 5 1 4 10 13 20 28 30 30 27 22 16 12 10 8 8 6 8 10 11 10 9 11 15 14 13 15 18 18 20 23 22 18 22 26 31 29 30 27 20 21 23 25
2 0 3 3 4 3 6 4 3 12 12 10 20 22 21 19 17 14 8 7 7 7 8 7 7 13 18 17 18 14 10 11 7 12 17 19 20 22 23 28 28 24 22 19 21 22 24 25 25
5 4 5 3 2 2 7 4 2 4 12 6 18 21 17 14 9 4 5 3 5 6 9 9 3 3 11 11 9 12 13 13 14 20 23 22 25 28 26 22 21 18 20 22 24 26 31 30 27
4 6 3 4 4 3 6 6 2 4 9 14 18 22 16 13 13 13 12 8 2 5 5 4 7 13 15 11 11 12 15 17 19 21 23 24 24 23 21 21 23 26 24 23 23 23 24 23 24
5 4 4 1 1 4 5 4 0 10 24 24 19 13 13 12 11 7 2 1 2 4 4 7 10 11 12 14 16 15 16 18 19 20 23 20 20 18 19 21 29 22 24 25 25 22 22 25 28
5 5 1 5 1 3 2 5 5 8 9 14 10 10 14 12 12 10 13 8 3 5 8 9 10 10 14 15 16 17 17 19 18 20 15 17 16 19 26 31 24 25 29 27 27 28 27 25 23
5 2 5 4 1 2 2 4 3 3 5 3 7 13 16 20 19 14 12 10 9 9 13 17 18 18 16 17 19 21 21 17 17 13 14 16 21 29 31 23 21 23 23 24 23 23 22 22 21
4 3 4 2 4 4 1 3 3 6 5 4 15 16 18 15 15 13 12 13 14 16 17 17 19 20 22 22 24 26 24 19 19 23 26 26 31 27 20 17 17 22 22 22 24 24 24 23 23
1 3 4 4 3 1 4 5 5 9 16 16 15 16 13 13 10 10 11 12 16 21 23 25 24 18 15 22 26 20 24 25 26 27 25 28 25 19 15 17 23 22 22 24 23 24 25 26 25

GFSSGP_850_spd_021.txt.gz
Wind_Speed
2 6 2 2 3 4 3 4 2 2 4 4 7 7 9 8 4 1 23 20 28 25 22 19 16 14 11 10 10 10 9 9 9 10 10 10 11 11 11 12 13 13 13 13 14 14 14 12 11
3 8 4 1 2 3 3 3 6 7 17 23 18 12 11 4 9 20 23 29 26 24 22 19 16 13 12 11 10 9 9 8 9 10 9 10 10 11 11 13 13 13 13 12 12 12 12 11 11
7 7 4 3 1 3 2 2 8 13 15 11 5 7 5 4 20 25 24 28 25 24 21 18 15 13 11 10 9 8 8 9 9 9 8 9 10 10 12 12 11 11 11 12 12 12 12 11 10
5 3 4 3 6 7 2 6 18 14 12 17 9 5 9 3 19 18 26 24 23 22 20 17 14 12 11 10 8 8 8 8 8 8 9 9 10 10 12 11 11 10 11 11 11 11 10 10 9
5 4 2 2 5 5 5 7 21 5 5 13 14 5 4 10 16 23 24 24 22 22 19 16 13 12 10 7 6 6 7 7 7 9 10 10 11 11 11 12 12 12 13 13 14 14 12 11 11
2 3 2 2 4 6 4 14 11 6 9 21 16 12 3 19 22 22 22 23 22 20 19 17 13 10 7 7 7 7 7 8 8 10 10 11 12 12 12 12 13 14 14 14 15 15 15 13 12
3 3 3 3 4 7 5 5 3 15 11 8 20 5 14 25 20 20 19 21 21 20 18 15 12 9 9 8 8 8 9 9 10 11 11 12 13 12 13 13 14 14 13 15 17 18 17 16 16
2 3 4 3 12 6 7 7 11 12 3 22 16 7 12 29 24 24 23 22 21 19 16 14 12 12 11 11 11 11 12 11 11 12 10 10 10 10 12 12 12 13 13 13 15 19 20 20 18
2 3 2 7 15 8 18 5 14 7 20 4 2 23 34 33 30 28 26 24 21 18 13 13 13 13 13 12 13 13 12 12 10 8 8 8 7 7 8 10 10 10 11 10 13 15 17 19 18
4 4 7 8 8 14 16 16 16 7 6 6 20 23 36 35 31 27 28 25 20 17 14 13 13 14 14 14 14 11 11 10 8 6 6 4 4 4 8 7 8 8 8 9 10 11 12 16 17
5 3 3 6 20 28 19 10 6 21 2 23 32 39 38 34 30 25 25 20 18 15 15 14 15 14 13 12 12 10 10 8 6 5 4 2 3 4 4 4 4 4 5 6 8 9 13 16 18
2 6 6 7 18 19 11 12 13 8 14 26 26 38 39 36 32 26 24 21 21 18 14 15 18 16 13 11 10 7 6 4 3 2 2 3 3 3 1 2 3 3 5 7 10 13 16 19 20
4 3 3 14 12 16 14 8 8 7 23 27 29 39 38 35 31 25 21 20 20 21 20 18 19 16 13 12 10 8 7 5 2 1 2 3 4 5 5 6 7 8 9 12 14 18 20 22 26
10 3 8 7 10 8 7 3 2 4 29 31 36 38 37 35 33 27 27 27 28 25 24 22 20 17 15 12 11 9 9 6 3 2 2 5 7 8 8 8 8 11 13 15 19 23 27 30 33
15 6 5 3 1 2 7 2 4 19 32 34 39 37 36 33 30 28 31 30 28 29 25 23 19 16 11 8 7 7 9 6 4 5 8 9 11 11 10 11 11 13 16 19 26 33 33 35 34
5 5 4 4 2 1 3 7 1 23 33 32 35 31 27 27 26 29 31 31 32 31 29 25 21 15 12 10 7 8 9 9 10 12 12 12 11 11 11 11 14 17 21 28 34 36 38 32 28
6 3 2 2 5 2 3 4 0 23 31 24 13 13 13 14 15 20 24 26 30 35 33 27 23 15 7 8 8 12 13 12 11 14 13 13 13 11 13 17 20 22 28 32 33 33 30 30 31
2 1 1 5 5 4 0 5 7 14 16 13 11 11 11 12 11 13 16 14 26 34 35 26 17 6 11 16 10 12 11 9 7 8 9 11 11 13 16 18 23 29 30 32 34 32 31 33 36
2 2 3 2 2 6 6 8 9 11 23 24 23 26 23 18 15 15 14 14 18 25 25 15 5 12 6 8 8 7 5 2 1 5 8 12 14 17 22 25 29 32 34 34 32 33 34 35 31
6 6 1 2 7 8 9 11 10 15 11 19 26 28 32 31 29 24 20 17 16 10 5 7 5 10 7 6 5 1 9 9 11 14 16 18 22 26 24 30 32 31 29 30 30 31 29 26 25
4 3 3 4 5 7 7 7 8 7 16 21 24 28 28 27 25 19 14 12 14 15 13 9 9 6 4 4 5 4 7 11 17 19 21 21 20 18 20 22 23 27 28 24 22 24 24 24 23
3 1 2 3 4 4 3 2 3 3 6 8 18 24 25 23 21 20 20 19 18 15 12 9 8 7 5 5 6 8 11 14 15 17 18 18 18 21 21 24 33 26 23 25 25 24 23 22 22
3 2 3 1 3 4 3 5 3 5 3 3 11 23 23 22 20 19 18 16 13 11 9 6 4 1 2 5 9 12 13 14 15 15 13 16 20 26 35 30 21 25 28 28 23 20 19 19 19
2 4 6 4 3 2 1 5 4 6 7 5 12 20 22 20 19 18 16 15 14 10 5 3 1 3 7 10 10 11 11 11 9 12 18 25 27 29 26 25 26 26 27 24 21 19 18 18 20
5 5 2 3 3 4 5 3 5 8 11 8 15 22 20 20 19 17 15 13 12 8 4 4 3 7 9 8 9 11 12 13 16 20 22 24 25 28 25 25 23 24 24 21 19 20 20 19 18
3 4 4 5 3 3 5 2 4 3 20 24 21 14 13 12 12 12 11 9 7 7 4 2 6 10 11 13 13 13 14 16 23 26 28 29 28 26 22 18 20 21 21 20 19 19 18 18 21
1 4 3 6 3 3 2 2 5 4 7 16 18 17 15 14 13 12 12 11 8 3 2 7 10 12 13 12 12 19 21 24 26 25 28 26 26 23 18 20 17 23 15 19 20 18 19 19 19
5 4 3 4 2 1 2 3 4 7 11 6 9 20 23 21 19 18 13 9 4 2 8 12 12 12 11 13 15 18 20 21 22 25 26 25 23 19 22 26 32 20 17 17 19 18 19 23 23
4 2 6 5 3 4 1 5 5 9 8 8 14 26 25 21 18 14 10 5 3 7 8 7 7 8 11 13 14 16 15 17 20 23 22 23 21 28 25 26 19 19 19 19 18 21 23 25 25
1 3 4 4 2 1 3 5 3 6 15 23 24 24 22 19 16 10 5 1 2 2 4 7 10 13 13 15 19 20 18 24 27 21 21 25 29 28 28 32 22 18 19 19 20 22 24 25 26

GFSSGP_850_spd_024.txt.gz
Wind_Speed
4 2 3 1 4 4 2 5 1 2 4 3 12 13 5 5 1 2 20 26 25 24 22 20 18 16 15 13 11 10 11 11 11 11 12 12 13 14 15 15 15 15 14 13 13 13 12 11 11
5 5 3 1 4 3 4 3 8 8 13 20 14 11 9 2 2 15 24 25 26 24 22 19 17 15 13 11 10 11 11 11 10 11 11 12 13 14 15 14 14 13 13 13 13 12 11 11 10
6 4 3 3 3 4 2 4 9 9 12 11 5 8 3 3 5 23 15 26 25 24 21 19 16 14 11 11 11 11 10 10 10 10 11 12 13 13 14 13 12 11 11 11 11 11 11 11 11
7 3 5 3 3 5 4 6 13 9 9 8 8 5 6 5 15 14 26 27 25 23 21 18 15 12 12 11 11 10 10 10 10 11 12 12 12 13 13 12 11 11 12 12 12 12 11 11 11
5 1 5 3 4 4 1 14 0 6 6 14 21 9 5 9 4 19 25 23 23 22 19 17 14 12 11 11 10 10 10 11 12 12 12 12 12 12 14 15 15 15 15 16 17 17 15 14 15
2 1 4 2 5 4 4 15 4 2 20 18 4 10 4 10 13 21 22 22 21 20 19 16 14 12 10 10 10 10 11 13 13 13 13 13 13 14 15 15 15 15 16 18 18 19 18 18 17
4 3 4 4 4 5 4 10 6 16 8 4 13 5 8 19 19 21 21 21 20 18 17 16 14 12 10 9 10 11 12 14 14 13 14 13 13 14 14 15 14 14 14 16 17 19 18 18 19
2 4 4 2 4 3 6 12 20 15 1 16 10 7 10 26 21 21 20 20 19 19 16 14 12 11 11 12 12 13 14 15 15 12 12 11 12 12 11 13 12 12 12 12 12 14 15 16 16
3 4 2 7 6 3 12 4 11 4 15 3 2 12 27 28 25 26 26 25 22 19 16 13 13 13 13 14 14 14 15 14 12 10 10 9 9 9 8 9 9 10 8 7 8 9 10 13 15
3 4 7 5 5 8 21 12 8 5 7 4 8 13 32 29 29 30 30 27 22 19 16 15 14 14 14 14 15 14 14 12 10 8 7 6 5 6 6 5 5 5 5 5 5 7 11 15 17
5 5 5 12 17 30 16 8 3 16 3 10 27 33 33 32 31 28 26 23 19 16 16 15 15 15 14 13 13 13 12 9 8 7 5 4 4 4 3 2 2 2 4 5 7 10 14 16 18
2 10 12 7 30 14 10 13 7 15 6 15 26 32 36 34 32 29 26 21 19 18 15 15 15 13 13 12 10 10 9 5 4 3 2 1 1 0 1 2 4 6 6 7 10 12 15 21 25
5 2 3 9 16 21 19 9 9 8 8 22 26 33 35 34 30 27 20 17 18 19 17 15 14 13 11 10 9 8 6 3 1 1 0 2 2 4 4 4 6 8 7 8 10 14 21 27 30
6 3 1 9 13 11 9 6 7 8 20 24 30 33 32 30 27 25 23 21 21 18 17 16 14 13 11 8 9 8 6 6 6 5 4 4 4 5 6 7 8 8 10 13 16 21 27 31 32
8 4 5 7 3 4 11 3 1 12 25 29 32 32 30 29 27 27 22 20 18 19 19 18 15 13 13 10 10 7 11 13 10 10 8 7 7 8 8 8 8 12 16 18 22 27 29 31 31
5 5 3 3 2 3 4 5 5 20 30 24 22 24 25 25 26 27 25 23 22 24 23 21 20 14 12 9 5 9 16 13 12 12 9 9 11 10 10 11 13 15 21 25 28 32 33 33 34
6 3 3 1 2 2 4 1 10 13 13 15 17 17 17 19 19 24 25 25 26 27 26 26 22 18 11 4 16 13 14 13 13 11 11 11 10 10 13 15 22 26 25 27 30 32 35 36 34
4 3 0 2 1 10 6 5 8 5 12 12 12 11 12 13 16 15 18 22 22 25 27 27 23 18 14 12 9 11 10 5 4 5 10 9 13 14 17 23 22 22 25 27 31 34 35 34 33
5 3 2 2 2 8 5 6 8 12 14 12 12 12 11 9 8 11 11 12 17 17 21 20 18 11 7 6 3 7 4 5 12 8 8 14 14 17 20 22 21 26 28 29 33 36 32 28 28
6 5 3 2 6 7 7 10 8 14 6 10 16 16 15 15 12 12 11 9 9 15 11 6 6 11 4 3 4 3 7 7 9 12 14 16 18 22 23 22 25 28 32 34 29 26 27 25 24
4 5 1 3 3 6 5 5 6 6 12 16 20 25 26 24 23 21 18 16 19 20 17 16 14 8 4 3 5 6 9 9 12 14 17 19 21 21 19 23 29 31 26 24 26 26 23 23 22
3 1 3 5 3 3 3 3 3 2 3 4 14 19 20 18 18 19 21 24 20 19 17 15 13 9 5 2 4 7 10 13 16 18 18 17 16 20 24 26 24 23 24 25 24 23 22 20 19
2 5 5 4 5 4 4 5 3 6 3 4 9 17 17 18 21 21 20 18 17 16 14 11 7 5 4 5 8 11 14 15 15 14 13 15 20 22 23 22 23 23 23 24 22 20 18 17 18
3 5 8 5 3 2 0 4 4 6 7 6 13 16 16 18 20 20 19 15 14 13 11 9 6 3 4 7 9 10 10 9 8 11 14 18 20 21 24 24 27 26 25 23 21 21 19 18 18
6 6 3 3 3 4 3 3 6 7 6 12 16 19 17 18 18 19 18 16 12 11 8 4 2 4 5 6 7 8 9 9 13 16 17 19 20 22 23 24 21 19 22 23 29 20 21 20 19
3 5 4 5 3 3 3 3 4 4 16 25 22 19 17 17 18 19 19 15 14 10 9 6 3 6 8 9 9 7 11 13 13 15 18 21 22 24 24 23 21 24 30 30 20 16 18 18 18
2 3 3 6 2 2 2 3 4 5 6 16 17 17 18 20 20 18 18 17 14 11 6 1 7 8 6 5 7 9 11 13 16 18 20 22 22 24 24 24 27 29 32 20 16 16 17 16 16
2 5 3 3 2 3 3 4 4 5 8 8 13 21 21 22 22 22 20 16 12 5 2 6 6 7 7 10 11 12 15 18 18 19 24 23 20 21 24 28 29 29 25 16 16 18 15 17 20
2 2 6 5 3 4 1 5 5 13 13 14 17 24 26 27 25 22 18 12 5 2 4 7 8 10 11 13 15 16 14 16 21 25 22 17 18 22 26 28 26 27 24 17 17 15 18 22 23
1 3 4 4 3 1 3 6 3 7 13 18 22 27 26 24 21 16 11 6 3 1 8 8 9 10 11 12 13 13 16 22 22 20 19 21 27 26 23 24 24 29 25 14 18 13 20 23 23

GFSSGP_850_spd_027.txt.gz
Wind_Speed
4 5 5 4 3 2 2 1 2 7 4 6 7 7 8 9 3 1 13 24 25 24 24 22 20 18 17 16 15 14 14 13 14 13 13 13 14 15 14 14 13 13 13 12 11 11 11 11 11
6 6 5 3 2 2 1 3 10 9 13 11 11 8 8 3 5 5 22 21 27 25 24 22 19 17 16 15 14 13 13 13 13 13 14 14 15 15 14 12 12 12 11 10 9 10 10 11 12
5 6 3 2 3 4 3 13 17 15 4 11 4 10 6 5 3 21 18 23 27 25 24 21 18 17 15 14 14 12 13 13 13 14 14 15 15 14 13 11 11 11 11 12 12 12 13 13 14
7 4 0 1 3 1 1 16 22 11 11 13 4 5 9 4 10 22 21 26 25 24 22 20 18 16 14 13 12 12 13 13 14 14 14 15 15 13 12 11 13 13 14 15 15 16 15 16 16
6 2 1 2 2 1 4 15 11 11 8 12 8 7 4 15 10 19 26 25 23 23 22 19 16 14 13 12 12 12 13 14 15 14 15 15 15 15 14 15 16 17 17 18 18 18 18 18 18
1 1 1 3 3 3 5 11 19 17 10 6 3 7 4 10 11 22 24 23 22 22 21 18 16 14 12 11 12 13 14 15 15 16 16 15 16 15 15 14 15 16 18 17 17 17 17 17 18
1 1 3 7 6 4 5 14 14 13 8 5 8 5 8 13 19 23 22 23 22 20 19 18 16 14 13 12 12 13 15 15 16 16 16 15 15 14 14 13 13 13 13 12 12 13 14 15 16
2 2 2 3 7 6 5 10 13 10 5 9 11 5 8 22 24 24 22 22 20 19 18 16 15 14 13 13 13 14 15 16 14 15 14 13 12 12 11 11 11 10 9 8 8 11 13 14 14
2 2 4 7 12 4 4 0 6 3 6 3 4 8 16 27 24 23 23 23 21 18 17 15 13 14 14 14 15 15 15 14 12 12 11 10 9 8 8 8 7 6 5 5 7 9 10 13 15
2 1 6 8 12 9 7 16 12 5 11 2 6 11 25 25 25 25 25 24 22 20 17 15 14 14 13 14 14 15 14 13 10 9 8 7 6 5 4 5 4 3 4 4 6 9 12 14 18
5 4 3 8 11 17 23 6 8 10 10 8 14 26 26 25 26 26 25 24 22 19 17 15 14 14 13 13 13 14 13 10 7 6 5 4 4 3 2 1 1 1 2 4 6 8 10 15 20
3 6 8 13 17 19 9 13 8 13 2 7 16 30 29 26 26 25 24 23 21 18 16 15 15 14 13 13 11 10 8 6 4 3 2 3 3 3 3 3 2 4 5 6 8 9 13 18 23
4 4 6 7 5 13 12 5 4 8 4 11 22 30 28 27 26 25 23 22 19 17 16 16 14 14 12 10 8 6 5 4 5 5 4 3 4 3 3 4 6 7 7 9 12 15 20 24 26
6 6 5 5 16 14 9 4 5 8 12 19 25 28 28 26 25 24 23 21 19 17 17 15 15 13 11 9 7 7 6 10 10 8 7 5 5 5 6 7 7 8 11 13 17 20 24 27 28
10 6 4 5 8 5 14 5 5 5 18 23 23 24 26 25 24 23 21 20 18 16 16 16 16 13 11 8 3 3 11 16 15 13 11 8 7 8 7 7 8 11 12 17 21 22 24 26 30
3 4 4 2 5 4 4 5 6 4 14 18 18 20 22 20 21 21 20 20 17 18 18 19 16 13 10 9 6 14 20 18 12 14 11 9 7 7 7 9 11 16 20 22 21 25 28 31 33
6 3 2 4 7 5 1 2 9 2 12 11 12 17 19 19 18 20 18 19 16 16 18 19 19 18 12 8 14 26 16 11 9 8 5 5 8 8 13 15 16 19 20 20 23 27 31 30 29
4 4 0 3 4 10 9 4 9 4 9 10 10 13 14 17 16 15 17 18 15 16 19 21 22 19 5 13 17 6 8 6 3 3 12 10 9 13 13 15 16 16 20 24 28 29 26 26 27
5 4 4 3 2 7 5 5 8 6 8 8 8 10 10 10 10 10 11 9 14 13 13 16 17 17 11 5 5 4 7 2 7 4 6 6 10 11 13 12 15 20 25 27 26 26 27 25 25
4 9 4 4 2 5 4 9 8 7 3 4 9 10 11 10 9 9 9 9 9 8 9 12 9 7 7 6 6 4 5 4 4 6 7 9 10 11 13 16 21 24 21 22 24 24 26 25 24
3 6 3 5 6 6 4 3 3 5 6 5 7 10 12 15 18 19 17 17 18 16 15 13 12 11 9 7 7 8 4 5 7 9 11 11 12 15 19 23 24 20 21 24 26 26 23 22 19
4 1 5 8 2 2 3 2 1 3 4 5 9 14 17 22 21 22 24 24 23 21 20 18 15 13 11 10 7 5 7 9 11 12 11 11 14 18 18 20 21 21 22 26 26 27 23 20 14
4 3 4 3 4 3 1 2 1 4 6 9 11 11 14 18 23 26 26 24 23 19 17 15 13 13 9 6 6 8 10 11 10 9 9 13 17 18 18 20 22 23 23 23 23 24 24 17 14
9 5 6 4 2 2 1 3 4 7 10 13 13 11 14 20 24 24 23 21 20 18 17 15 12 10 8 7 8 9 9 8 8 10 12 14 16 18 20 20 22 23 23 24 24 28 17 15 13
3 4 1 1 0 3 1 3 5 8 7 19 19 17 18 22 24 24 23 22 21 19 16 13 11 8 6 5 7 8 8 8 10 13 15 16 19 20 21 23 22 22 22 24 26 25 16 13 13
3 2 4 4 3 1 1 5 1 3 11 21 22 21 21 23 23 22 20 18 16 16 15 13 9 5 4 5 5 6 8 10 11 13 16 17 19 21 22 22 22 22 24 23 24 21 15 15 15
3 2 2 6 2 0 2 3 5 2 7 14 19 20 22 24 24 21 19 17 16 16 14 9 5 2 2 3 5 6 7 9 11 13 16 21 23 21 20 20 23 24 25 24 24 22 15 16 16
1 7 3 2 3 3 2 4 6 4 11 13 17 23 23 24 23 21 19 18 18 14 10 6 1 2 4 6 7 6 8 10 14 19 23 23 20 20 22 25 25 26 27 27 22 27 17 14 18
3 2 5 4 1 2 2 4 4 9 14 17 23 24 27 26 23 22 21 19 16 11 7 3 2 4 6 8 8 9 10 14 20 23 21 20 21 24 26 24 24 23 24 24 28 15 12 17 19
1 3 4 3 4 1 0 5 1 4 10 16 19 22 21 21 22 22 20 16 12 9 5 2 4 6 10 7 9 11 15 20 22 20 20 22 26 28 26 23 19 17 21 27 17 11 14 17 20

GFSSGP_850_spd_030.txt.gz
Wind_Speed
6 5 3 3 7 6 9 6 1 9 9 10 8 4 9 15 5 2 17 17 24 25 23 22 20 18 16 15 14 13 12 11 11 11 11 12 13 13 13 12 11 11 10 10 10 9 10 11 11
6 3 3 4 7 9 5 0 5 12 18 10 10 9 11 6 7 13 18 21 23 26 24 21 20 18 16 14 13 12 12 11 11 12 13 14 14 13 12 11 10 9 9 9 10 11 12 12 11
5 6 6 4 7 10 2 8 16 18 16 15 6 7 5 4 8 14 15 24 23 22 22 21 20 18 16 15 14 13 12 12 13 13 14 14 13 12 11 10 10 11 12 13 13 13 14 15 15
4 4 5 8 7 4 2 13 18 18 16 9 12 4 5 8 9 11 15 24 23 21 21 21 19 17 16 16 14 13 13 13 14 14 14 14 13 12 11 12 12 13 14 15 15 16 16 17 19
5 4 7 7 3 3 7 17 10 6 11 7 11 11 7 14 18 15 24 29 24 21 19 21 18 16 15 15 14 13 13 13 13 14 14 13 13 13 13 14 14 15 16 15 15 17 18 19 20
9 4 7 9 3 5 9 13 14 12 13 5 1 10 6 13 21 25 24 27 23 21 20 20 17 14 14 13 13 13 13 13 13 14 14 14 13 13 13 13 14 14 15 15 14 14 15 16 17
9 6 7 2 6 10 9 12 13 12 14 9 5 11 6 12 13 17 23 20 20 19 19 18 17 16 13 12 12 13 13 13 13 13 14 13 12 11 11 11 11 10 11 10 10 11 11 12 14
6 5 7 6 7 11 10 9 11 3 2 6 8 7 7 18 18 18 16 18 20 20 18 16 15 14 12 13 13 14 14 13 13 13 12 11 10 9 9 8 7 6 6 6 6 7 9 11 13
4 7 8 9 10 11 10 2 2 1 4 3 3 2 8 26 25 23 22 21 21 19 18 17 14 13 13 12 14 14 14 13 12 11 10 8 5 5 4 5 5 3 1 3 4 6 8 9 13
9 8 2 3 6 11 16 9 8 4 8 4 6 9 22 28 26 26 24 24 22 20 18 13 12 13 14 12 14 13 13 9 8 7 8 4 5 4 4 4 3 1 1 3 6 7 8 10 11
8 6 7 7 13 16 17 12 12 12 6 12 10 21 26 26 23 22 22 21 20 16 14 13 14 15 14 11 10 9 7 7 6 6 5 5 4 4 3 3 2 2 3 2 6 8 11 17 19
8 7 4 15 16 11 22 26 18 14 6 4 8 23 27 24 22 19 20 19 17 15 13 15 14 14 14 11 10 10 7 6 4 5 5 5 3 6 6 3 4 3 4 7 8 9 15 19 22
11 6 6 7 5 17 16 13 7 6 3 11 20 23 22 19 17 16 16 16 15 14 13 14 14 14 13 13 12 11 8 4 6 6 5 5 6 8 8 8 6 5 7 8 9 11 15 18 17
5 5 5 9 10 9 10 7 8 6 7 14 19 18 18 18 18 17 16 15 13 13 13 15 15 15 14 12 10 7 4 7 11 12 7 7 11 10 9 7 7 7 8 11 11 17 18 15 17
11 11 7 3 9 7 10 9 5 4 6 13 15 15 15 15 15 14 13 13 13 13 14 16 16 14 13 11 8 4 7 14 16 12 12 13 12 9 7 7 7 10 12 14 17 17 13 17 19
6 7 6 5 12 6 14 11 6 3 11 14 16 15 15 15 14 12 11 12 13 14 15 19 17 14 13 13 6 9 14 17 15 9 11 9 7 7 9 11 11 12 14 14 12 13 17 20 20
6 7 7 7 1 7 10 7 5 2 11 14 14 15 16 13 12 10 10 12 14 15 16 19 20 20 15 11 3 15 20 19 6 3 3 4 7 11 9 11 11 12 11 12 17 18 18 20 20
13 7 11 10 4 8 9 5 4 4 13 14 14 14 16 14 11 11 12 12 14 16 16 18 20 21 19 16 13 12 9 4 5 7 5 9 9 8 10 11 13 14 11 14 23 23 17 18 19
6 8 11 8 4 7 6 6 4 5 11 13 14 15 14 13 9 12 13 13 14 16 17 17 15 18 14 11 6 7 5 8 6 6 6 8 9 9 9 8 12 17 19 23 21 17 17 19 18
6 8 7 5 4 4 9 7 6 6 9 12 14 14 13 11 10 11 12 13 14 15 16 15 14 12 7 10 10 9 9 8 8 7 8 9 8 8 10 14 15 19 11 11 16 16 17 16 18
4 5 11 8 8 2 10 7 8 5 6 8 9 9 10 11 11 12 13 15 15 16 16 15 13 14 15 13 12 11 9 6 6 8 8 10 11 11 13 15 13 12 15 14 13 15 15 19 18
6 1 7 14 12 7 9 7 9 6 6 7 9 11 11 12 14 15 16 17 18 18 17 16 16 16 14 13 8 7 6 5 6 6 7 6 10 13 12 16 20 22 18 15 15 15 17 18 18
4 5 6 5 5 5 10 8 8 8 9 11 13 14 16 16 17 19 19 19 17 21 20 17 16 13 14 12 9 6 5 5 4 3 4 6 8 13 15 18 22 22 16 16 14 14 20 18 17
11 8 6 4 3 7 3 6 5 9 12 15 18 17 18 17 19 19 18 18 17 15 16 19 17 15 14 12 9 6 5 2 1 3 6 9 12 14 15 16 20 19 18 16 15 18 20 17 16
6 9 3 4 4 6 2 6 12 1 2 16 21 21 20 21 21 20 19 18 15 14 15 14 13 12 11 8 5 3 1 2 2 5 8 12 14 16 18 19 19 19 20 18 17 19 19 15 17
6 5 4 4 4 2 3 6 1 1 4 13 22 22 23 23 21 20 19 17 15 15 13 13 12 11 8 6 3 5 6 3 5 7 10 12 14 17 17 17 17 18 18 19 20 20 20 17 17
6 5 3 2 1 3 5 4 8 2 7 13 22 22 24 24 22 20 18 17 15 14 13 12 10 8 6 3 2 5 6 7 6 10 12 11 13 14 16 17 19 20 20 20 21 21 21 19 16
3 8 3 3 3 4 3 5 2 6 10 13 20 24 25 24 22 20 18 16 15 14 15 13 9 6 4 2 3 4 6 7 10 11 9 11 12 15 18 21 21 21 21 21 20 22 21 18 15
4 4 1 0 2 2 3 1 3 2 8 14 22 25 25 24 22 20 18 16 16 14 14 11 9 5 5 4 7 5 5 9 9 8 10 11 15 18 20 21 20 19 19 18 19 20 17 14 15
2 4 7 4 4 1 2 3 3 1 3 12 18 22 23 22 21 20 19 19 17 16 13 12 10 7 5 7 4 4 9 9 9 10 11 13 17 19 20 19 18 16 16 17 18 17 11 13 15

GFSSGP_850_spd_033.txt.gz
Wind_Speed
6 6 5 8 7 8 16 17 1 9 8 8 7 7 13 22 10 5 21 23 27 26 27 26 23 21 18 16 14 12 11 10 8 7 8 9 10 11 10 9 9 8 9 9 9 11 11 11 11
5 7 7 13 9 13 13 4 17 16 1 12 13 10 11 8 8 16 20 23 27 26 27 26 22 21 18 15 14 12 11 10 9 8 10 10 11 11 10 8 8 9 9 10 12 14 14 14 14
6 9 14 9 14 14 9 14 13 14 7 7 7 12 9 10 12 13 16 24 28 25 24 24 22 20 17 15 13 12 11 10 10 10 11 11 11 10 9 10 10 11 12 13 14 16 18 19 18
5 9 15 10 18 7 7 11 10 12 13 8 8 9 5 5 3 7 20 22 25 25 26 23 21 18 17 14 13 12 11 11 11 11 11 11 11 10 11 11 12 13 13 15 16 18 19 19 20
11 16 12 15 18 3 3 12 20 7 7 4 7 6 4 2 7 12 15 19 21 24 23 26 20 18 17 15 14 14 13 12 12 12 11 11 11 12 12 12 13 14 14 14 15 16 16 18 20
14 18 13 15 11 5 4 14 8 7 7 8 4 13 7 11 13 11 13 19 21 22 21 25 20 17 16 15 15 14 13 12 12 12 11 12 12 11 11 11 12 13 12 12 11 13 13 14 16
16 12 15 20 2 8 7 11 11 9 7 3 3 2 3 11 14 15 11 18 20 27 22 23 20 17 16 15 14 13 13 12 13 12 12 11 10 9 8 8 8 8 8 8 7 8 9 10 12
19 13 19 9 7 3 5 4 11 8 11 9 5 6 4 9 10 22 20 18 17 21 22 20 18 15 15 15 14 13 13 13 13 12 11 9 7 6 6 4 4 3 3 4 3 5 7 10 15
14 11 15 7 17 11 10 13 10 4 8 7 1 5 5 18 19 19 15 19 19 18 17 18 15 12 11 11 13 13 13 12 12 11 10 10 4 5 3 2 1 3 4 5 5 8 9 12 15
12 12 16 9 11 9 12 8 11 4 10 8 3 3 13 20 16 17 15 17 17 19 18 15 14 13 13 11 14 11 12 9 8 6 5 4 3 5 2 3 4 5 6 8 9 10 12 11 11
15 15 6 5 5 7 7 11 9 9 11 8 10 13 18 19 16 14 15 15 16 17 16 14 15 14 13 12 12 10 10 7 5 5 6 6 1 3 5 5 6 6 8 5 7 9 8 13 14
14 17 5 4 5 9 5 10 10 10 14 5 11 19 20 18 15 15 14 16 16 16 15 14 13 15 12 12 11 11 9 7 5 3 1 3 3 3 3 3 4 5 6 7 7 8 11 12 14
12 5 4 6 16 14 17 19 4 14 11 9 18 21 19 17 16 17 16 16 16 14 14 14 14 14 15 14 12 10 7 5 2 0 3 3 5 7 4 6 4 5 6 7 8 9 11 14 15
13 6 8 11 10 15 18 11 30 10 9 17 20 20 19 18 18 18 17 16 15 16 16 16 15 15 14 13 13 10 6 4 0 7 10 10 11 13 6 6 4 5 8 9 13 17 17 15 17
5 10 11 9 13 9 13 8 12 8 13 17 18 19 19 19 19 17 17 17 17 15 16 17 17 16 15 14 14 12 6 4 9 13 11 12 11 11 10 9 12 15 14 12 10 12 13 16 18
10 10 15 10 12 15 16 14 8 8 14 18 19 19 19 18 17 16 16 16 16 16 17 17 16 17 19 15 15 6 5 13 13 15 9 9 11 11 12 14 14 12 11 13 11 12 14 16 20
12 12 6 9 16 10 8 18 11 10 15 16 18 18 19 18 17 16 15 15 15 16 17 17 18 21 17 15 17 14 21 17 15 7 5 4 6 8 10 11 10 9 7 9 10 13 16 19 22
12 4 14 12 12 12 13 10 9 11 18 20 20 19 18 17 16 14 14 15 16 16 16 17 18 19 17 15 17 17 19 14 9 7 5 5 8 9 4 4 8 9 8 9 12 17 17 18 21
8 8 9 13 4 8 10 9 8 13 16 17 18 18 18 17 16 13 13 15 17 18 17 18 20 17 14 14 10 13 9 11 8 5 7 5 6 5 4 3 6 9 10 11 13 15 18 18 19
9 11 7 5 8 7 9 8 8 10 15 20 19 19 20 19 16 14 15 16 17 18 19 20 17 15 11 7 8 8 9 7 4 6 6 6 5 4 4 8 6 9 10 13 15 16 17 18 18
7 4 7 10 11 13 9 13 13 11 11 13 19 20 20 21 18 16 16 17 17 18 19 20 15 11 11 12 12 11 10 7 6 5 3 5 6 4 7 8 9 10 13 15 16 16 16 20 19
8 1 5 5 14 13 17 11 16 15 13 13 17 17 18 17 17 17 17 17 18 19 17 15 14 15 15 14 11 10 7 6 7 6 7 5 7 6 6 9 11 13 14 15 16 16 17 19 23
9 4 7 10 14 11 18 9 14 17 15 16 19 20 19 17 18 18 18 18 18 18 17 16 17 17 16 13 11 9 7 5 3 3 5 5 7 8 10 12 13 15 17 18 19 19 19 20 22
6 5 7 8 11 8 15 12 6 15 14 15 16 18 18 20 19 20 21 21 20 17 18 17 18 16 14 11 10 9 9 6 4 5 6 7 9 11 12 14 16 18 20 20 19 19 20 21 23
7 8 7 6 5 9 3 5 11 1 2 10 16 19 20 20 22 22 22 21 19 18 18 18 17 15 13 12 10 9 7 6 5 6 7 8 9 11 13 15 17 17 18 19 20 24 25 23 24
9 11 7 7 7 8 7 7 2 9 3 5 18 19 19 20 22 22 21 20 18 17 17 17 16 14 13 12 10 8 6 5 4 6 7 7 9 11 13 14 15 17 18 19 21 22 22 23 22
4 8 5 4 1 5 10 10 9 5 5 9 18 20 20 22 22 22 21 20 18 18 18 17 17 15 14 13 11 9 5 5 7 6 6 7 9 10 12 15 17 19 20 21 21 23 23 25 24
8 2 4 5 3 6 3 6 6 5 6 8 15 20 21 22 23 22 22 20 19 18 18 18 18 17 16 13 10 6 6 5 6 6 7 7 8 11 13 16 17 18 19 19 20 21 23 20 20
7 9 6 4 3 3 4 3 7 3 5 9 13 19 21 23 24 22 21 21 20 19 19 19 18 18 15 12 8 5 5 8 7 7 7 8 10 12 15 16 17 17 18 17 17 19 20 19 15
9 8 9 5 5 3 3 4 5 4 2 9 12 17 21 24 25 24 23 22 21 21 20 20 19 17 14 11 9 7 9 8 9 9 9 10 12 14 16 16 16 17 17 18 19 18 14 12 13

GFSSGP_850_spd_036.txt.gz
Wind_Speed
6 3 4 10 6 7 16 19 12 10 9 18 16 17 19 21 9 4 27 28 29 30 30 27 25 23 20 18 15 13 12 10 10 10 10 11 12 12 12 12 11 12 13 16 16 17 17 18 19
7 7 10 11 9 12 13 15 17 13 9 13 17 11 18 16 13 18 21 26 26 30 30 27 25 22 20 17 15 13 11 10 10 10 11 12 12 12 11 10 11 14 17 19 20 21 22 22 22
8 5 11 6 12 14 13 15 13 10 11 13 7 10 8 4 6 7 20 28 28 27 29 27 23 21 19 15 13 13 11 10 11 11 12 11 11 10 11 12 15 17 19 20 21 22 23 23 24
4 8 12 9 18 21 6 11 7 11 14 10 14 10 9 7 3 5 24 29 27 25 28 26 22 20 17 14 12 13 11 11 12 12 11 11 11 12 13 14 16 18 18 19 20 20 21 21 22
12 11 11 15 18 20 4 16 11 13 6 4 9 8 9 12 10 9 16 19 24 26 26 25 20 17 17 15 12 12 12 12 12 12 11 11 13 13 14 15 15 16 16 16 17 17 17 18 20
17 17 13 15 21 15 8 21 19 20 18 4 13 10 6 9 10 5 9 13 20 24 27 26 23 18 17 15 13 11 12 12 12 12 12 13 13 13 13 14 14 14 13 14 13 13 14 15 16
16 12 16 20 18 11 4 16 14 8 6 8 3 10 12 11 8 12 6 4 17 26 26 23 22 20 18 15 13 12 12 12 13 13 13 13 12 11 10 10 10 9 9 9 9 10 11 13 16
19 12 20 19 18 5 9 11 23 6 4 3 6 3 12 23 17 10 9 15 10 30 20 22 21 20 19 17 14 13 12 13 13 14 14 12 11 7 5 6 6 7 7 6 7 9 10 14 16
19 12 14 19 8 3 19 9 16 8 10 4 3 3 23 22 17 16 18 18 24 27 25 20 17 17 17 15 14 13 13 14 14 15 16 13 11 7 7 5 4 5 6 7 9 10 10 9 13
14 11 19 4 12 4 8 19 7 10 13 12 13 15 22 24 24 24 19 20 17 32 21 17 16 13 14 16 16 14 15 13 12 13 11 8 5 2 6 7 6 6 8 8 12 13 9 9 12
18 16 13 17 28 29 18 29 3 4 2 4 12 19 20 19 18 19 20 21 23 25 25 21 19 16 12 16 15 18 15 12 6 11 8 7 2 2 2 8 7 8 9 7 9 10 13 12 14
14 17 19 14 25 23 17 13 16 9 5 8 16 22 23 18 17 14 19 22 28 23 21 20 19 21 18 18 15 13 17 17 11 9 8 4 2 5 6 3 3 4 2 6 5 7 11 13 15
14 16 10 11 7 7 13 26 13 5 11 4 21 23 20 17 17 18 15 21 22 19 16 16 25 20 19 17 18 18 12 10 9 7 7 12 10 10 8 7 4 7 7 6 10 11 15 12 11
12 15 12 6 10 8 13 18 21 26 7 15 20 21 17 17 19 21 20 20 19 19 17 18 22 24 22 23 20 17 14 13 10 6 6 8 11 6 5 6 6 7 8 11 14 15 12 15 18
6 10 8 5 7 14 33 14 3 10 22 17 16 19 17 18 22 21 22 20 20 19 18 20 20 23 22 24 23 20 12 8 5 4 3 9 13 14 11 7 10 12 17 15 15 16 16 20 21
11 9 6 8 12 10 18 3 11 10 15 17 19 22 20 18 17 18 19 19 20 24 23 24 24 23 23 24 20 16 8 6 5 9 9 7 8 7 7 7 10 13 13 13 15 15 17 17 19
5 9 13 9 10 9 7 9 10 9 17 18 16 18 20 20 20 17 17 19 19 20 21 20 22 24 20 17 18 18 19 10 16 19 14 5 5 5 6 9 11 8 4 9 13 15 20 24 24
7 10 12 11 14 12 12 12 12 16 15 19 19 19 19 20 19 20 18 18 18 19 23 21 24 22 19 15 18 14 12 19 14 11 5 6 4 5 4 7 9 9 6 11 16 20 21 21 18
8 12 11 10 7 11 15 16 16 16 19 18 18 19 20 20 18 19 17 16 18 24 23 20 25 20 19 16 17 15 13 11 7 6 5 3 4 3 6 4 6 10 6 9 12 17 17 17 16
10 13 5 7 5 6 11 10 15 14 18 21 20 23 22 21 19 17 18 18 20 21 20 19 21 16 17 9 9 8 8 7 5 5 5 8 5 3 3 9 8 9 14 14 12 16 19 20 15
14 5 6 11 7 7 11 10 13 13 18 21 24 24 24 25 25 19 19 19 22 20 22 21 20 15 14 13 11 12 9 11 13 10 6 8 5 5 8 9 12 13 12 12 16 18 18 17 21
8 12 9 13 8 8 7 7 5 11 12 14 21 22 24 25 25 22 19 20 21 23 22 22 21 14 17 18 15 14 14 9 8 4 8 10 9 9 8 8 12 15 17 18 16 16 20 26 21
3 12 13 9 8 3 9 8 18 10 14 17 16 20 25 27 27 25 20 22 23 23 23 20 15 18 20 18 13 13 10 11 16 15 12 5 7 10 8 9 11 13 15 16 20 22 22 21 19
10 9 10 9 6 3 19 13 7 13 17 14 19 21 19 16 16 17 19 17 19 16 18 20 19 20 18 20 15 16 15 10 8 6 5 3 7 8 11 13 15 18 20 22 20 20 23 25 28
9 9 2 8 6 5 11 5 7 19 18 22 25 18 17 15 17 19 22 22 26 24 22 24 21 19 17 16 15 16 17 15 15 9 6 9 11 11 15 17 21 21 18 19 20 22 24 26 26
18 10 2 1 2 11 3 5 4 11 8 9 19 17 16 18 18 19 22 22 21 22 22 21 23 20 19 17 15 14 15 12 10 11 11 16 13 15 17 17 14 17 17 20 21 22 22 23 23
7 2 4 9 6 3 6 16 8 7 7 8 17 16 19 18 21 23 23 24 23 22 23 23 22 20 19 18 18 17 16 15 13 12 12 12 11 12 12 15 18 18 19 21 21 21 21 22 23
5 7 3 2 2 5 7 9 8 6 7 5 13 17 18 19 21 23 25 24 23 21 21 22 21 21 21 22 20 19 15 12 8 8 9 11 13 13 13 14 16 17 18 18 18 19 20 22 25
5 6 5 6 4 1 4 4 6 8 6 5 7 20 21 22 24 24 25 25 21 21 21 21 22 21 24 21 19 18 13 13 10 6 10 13 13 13 12 14 16 16 15 17 21 23 19 17 15
7 10 11 3 5 2 1 5 5 5 4 6 8 12 21 22 24 26 25 24 22 21 21 22 22 22 21 19 19 16 17 7 8 9 12 14 13 12 13 15 15 14 17 19 19 21 15 14 12

GFSSGP_850_spd_039.txt.gz
Wind_Speed
6 2 3 4 2 2 5 6 1 5 5 10 21 22 15 11 5 4 24 22 24 35 34 31 29 26 25 21 18 16 16 15 14 14 16 17 17 18 17 17 19 20 21 24 24 26 26 24 25
6 5 8 6 3 0 6 8 8 6 7 5 13 11 13 7 10 20 28 19 32 37 36 33 30 26 24 21 18 16 16 14 16 16 16 17 17 16 17 18 21 22 24 25 26 28 28 26 23
6 6 4 4 3 8 4 1 7 10 11 6 6 14 6 5 9 12 24 27 33 36 35 33 29 27 23 21 18 17 16 15 17 17 16 15 16 17 19 20 22 23 24 24 25 25 26 26 22
3 5 6 1 9 15 10 5 16 13 16 10 17 9 8 3 5 13 26 24 38 38 35 31 27 24 22 20 18 17 15 17 17 17 16 16 17 19 20 21 21 21 22 22 21 22 22 23 23
4 7 3 3 12 4 8 18 13 6 5 17 13 5 7 13 8 20 22 32 33 37 36 30 27 24 22 19 17 17 17 17 17 15 16 17 19 20 19 19 18 19 19 18 18 18 18 19 22
4 3 2 5 12 9 8 14 10 6 2 10 13 13 7 12 12 15 15 17 28 29 31 28 25 20 14 17 17 17 17 17 16 16 16 18 19 19 19 17 17 15 15 15 15 14 15 16 17
8 2 7 11 14 7 6 11 6 2 5 8 17 5 9 18 12 10 11 11 38 38 28 26 29 18 18 18 17 17 17 17 17 17 17 17 17 17 15 14 13 11 11 11 11 11 11 13 14
19 3 7 10 14 3 1 3 9 5 2 3 9 4 7 16 16 12 10 9 13 23 17 26 22 19 20 18 15 17 17 18 19 19 18 17 15 13 11 9 8 8 8 8 8 8 7 9 11
19 2 9 15 1 7 14 7 13 9 11 13 9 10 12 20 17 11 21 29 32 28 30 24 17 17 17 19 18 18 19 20 20 19 16 13 13 12 10 6 5 6 7 9 10 7 6 8 14
3 4 12 5 5 7 9 13 19 7 8 10 18 18 16 12 16 19 27 34 33 28 23 22 17 17 18 18 18 19 20 21 20 17 14 9 8 5 5 6 6 9 9 7 9 4 6 11 15
12 10 9 1 6 10 13 10 8 14 4 13 9 15 17 28 28 30 30 34 23 26 26 21 19 16 17 20 22 22 22 21 16 14 15 8 5 3 3 6 7 7 7 6 2 2 7 10 10
3 18 20 11 9 9 9 10 4 8 8 6 24 20 25 24 24 28 34 29 31 32 26 26 19 18 20 21 22 21 18 18 13 11 10 10 9 9 7 8 7 6 7 5 6 7 8 11 13
8 9 13 14 13 16 20 6 6 7 20 21 16 24 25 23 23 27 27 29 33 32 32 28 24 21 19 23 21 18 18 14 12 13 15 13 12 12 11 7 6 8 9 9 7 10 13 14 14
13 12 18 20 26 17 12 8 7 9 10 14 16 19 19 26 29 28 33 32 33 33 30 27 26 21 23 18 22 24 22 15 13 15 13 12 11 10 9 10 13 12 11 8 12 13 14 13 16
14 2 6 13 16 3 17 7 2 5 13 15 20 21 22 23 30 37 39 37 29 23 23 30 26 28 23 25 23 19 14 17 15 8 5 8 12 13 12 10 9 10 10 13 13 14 15 17 20
4 4 3 4 13 13 12 6 7 14 22 24 24 22 22 24 27 36 35 27 22 18 22 28 32 28 25 25 24 20 20 16 11 6 3 7 12 12 9 9 8 7 11 13 16 16 16 19 18
4 2 1 4 19 9 4 5 11 16 28 27 29 23 22 26 31 32 26 24 21 16 23 28 33 28 25 23 22 22 21 14 9 10 6 7 11 9 7 5 6 7 12 13 14 16 20 22 23
2 3 6 8 10 6 7 7 5 14 22 24 30 27 26 27 28 26 23 23 21 22 22 28 28 23 20 20 25 25 19 12 10 10 7 8 8 6 5 6 6 9 10 11 13 18 22 24 26
1 6 11 5 8 7 11 6 10 18 19 23 26 27 29 30 28 24 22 26 29 25 28 28 27 25 27 26 29 23 15 13 11 8 10 9 7 6 6 8 8 8 7 11 14 17 20 24 24
7 14 7 8 4 6 9 8 10 13 15 28 29 29 29 24 31 28 27 30 31 32 36 30 28 23 26 22 19 16 15 12 10 11 11 9 7 8 8 9 11 13 14 16 18 18 20 20 21
14 5 14 6 3 2 5 4 5 8 16 22 31 32 33 32 32 30 29 20 30 36 35 29 22 19 22 20 14 15 12 14 15 12 9 10 10 8 7 10 13 14 15 17 18 18 18 18 21
8 4 5 9 2 3 3 2 2 5 10 8 23 33 37 36 29 29 27 21 25 32 28 22 18 19 16 21 22 17 16 16 11 6 10 11 9 6 8 10 12 13 14 16 16 15 19 22 24
7 6 5 5 4 4 2 4 7 3 3 4 10 30 35 38 37 33 31 32 25 24 25 21 19 14 23 21 23 17 13 13 14 16 14 10 6 3 2 6 10 12 15 17 20 22 23 18 19
8 3 4 6 3 2 6 5 4 9 17 6 18 12 26 32 36 35 30 30 27 24 24 21 20 20 23 24 23 16 18 23 19 21 17 11 8 10 10 12 14 16 19 21 25 23 21 22 23
4 4 3 5 5 5 9 3 13 13 8 12 21 27 17 17 29 33 30 30 28 27 27 28 25 25 22 28 22 23 22 21 21 18 18 16 15 14 16 20 21 23 26 25 21 21 21 21 21
4 5 4 5 2 4 10 4 4 13 12 26 27 19 13 23 23 26 27 26 24 21 22 24 25 25 30 30 27 25 23 22 22 21 20 19 19 21 18 24 24 24 22 22 22 22 21 20 20
1 3 5 6 4 4 5 4 5 8 5 10 14 15 18 18 19 21 23 23 22 24 22 25 26 30 27 26 27 28 28 26 23 20 18 17 17 18 19 19 18 20 21 20 18 16 16 18 20
4 3 4 3 4 4 3 3 4 4 6 9 12 22 21 20 21 22 24 25 28 29 24 21 22 24 25 25 26 27 25 22 19 17 13 15 12 16 18 19 17 18 19 17 17 19 20 22 23
1 2 3 3 4 4 0 4 1 6 8 9 14 28 29 26 25 27 27 26 26 25 24 24 22 21 23 25 26 25 23 20 17 13 11 10 12 19 19 19 18 19 16 15 20 23 28 22 17
5 5 2 4 4 2 5 5 2 5 8 12 13 29 30 29 29 29 29 29 28 27 24 23 27 23 24 27 28 25 21 15 14 9 9 11 16 20 21 19 20 19 16 17 22 25 24 19 19

GFSSGP_850_spd_042.txt.gz
Wind_Speed
6 4 3 3 3 4 4 7 3 2 2 6 10 14 10 10 1 2 6 32 32 35 35 33 32 30 28 25 21 19 18 18 20 21 21 21 21 20 22 23 25 27 29 29 29 27 27 25 23
4 4 3 2 4 2 5 5 5 4 8 8 8 9 7 4 3 9 28 22 36 35 35 35 34 31 27 24 22 20 19 20 21 21 22 21 21 22 24 25 26 27 29 31 30 28 24 23 26
4 7 3 4 4 6 4 4 7 3 9 5 4 11 5 4 7 26 25 30 34 34 35 34 33 31 27 24 22 20 20 22 22 21 21 21 22 23 25 25 26 27 27 28 28 27 24 20 22
2 4 3 3 10 4 6 1 3 5 4 5 15 7 7 5 3 16 24 24 35 35 35 33 31 31 27 23 21 20 21 23 23 21 21 22 24 25 25 24 24 24 24 24 23 22 21 22 18
3 1 1 3 3 5 5 9 1 2 2 5 1 4 5 10 4 15 23 28 34 35 33 31 26 27 27 22 20 20 21 22 22 21 21 23 24 24 23 22 21 21 21 20 19 17 17 17 19
1 1 1 4 3 2 1 9 2 6 10 6 7 7 6 6 18 18 22 31 35 34 30 29 27 24 24 21 19 20 21 21 22 22 23 24 24 23 21 20 19 18 17 16 14 14 14 15 15
4 3 4 2 3 3 3 2 3 3 11 10 9 4 7 11 9 14 16 28 24 27 29 30 29 25 20 16 18 20 21 21 22 23 23 23 22 21 18 17 16 14 13 11 10 10 10 12 15
4 4 3 3 2 4 2 4 16 18 7 10 4 5 5 13 13 14 13 33 34 32 32 37 36 32 22 19 18 19 21 21 22 22 23 22 20 17 15 14 13 11 10 9 8 9 9 10 12
6 0 6 3 1 4 7 4 4 7 12 8 6 10 21 20 17 16 22 17 6 12 24 33 25 21 22 21 21 20 21 22 23 22 21 19 17 14 12 11 10 10 10 8 6 4 5 9 11
4 2 3 6 6 6 11 3 3 2 15 12 26 27 25 22 16 17 27 23 26 21 25 28 20 22 22 21 22 23 24 23 21 19 18 17 15 12 11 11 11 10 8 5 1 3 4 7 10
3 6 4 4 9 7 10 3 4 2 4 17 24 27 24 23 20 25 30 26 35 28 24 23 21 23 21 22 23 24 24 22 19 15 14 13 12 12 11 12 11 6 7 3 3 1 5 7 10
3 16 6 5 12 11 6 7 3 4 7 17 18 23 28 28 27 36 34 34 30 29 27 24 22 22 21 22 24 24 24 20 16 16 13 11 11 10 11 12 10 8 6 5 4 4 6 8 11
6 8 2 17 15 11 15 8 7 11 11 20 23 27 34 32 33 37 30 32 30 30 27 24 23 24 24 23 24 24 21 18 18 16 14 11 9 8 10 10 9 10 9 8 6 7 9 11 12
11 10 17 17 15 7 7 2 12 11 24 24 26 28 30 31 31 31 30 32 35 31 29 27 24 24 25 26 23 22 20 20 16 15 13 11 11 11 9 9 10 10 9 9 10 13 11 12 13
11 6 7 10 5 5 10 4 5 15 17 26 25 24 27 27 29 31 32 32 33 31 31 29 25 24 26 24 21 20 21 18 16 13 12 11 11 11 12 12 12 12 11 12 14 11 12 13 16
5 8 5 7 11 4 1 5 3 13 15 21 22 27 29 31 32 31 33 30 29 30 32 28 27 25 27 23 24 23 21 19 15 11 8 6 12 14 16 14 13 12 12 12 10 12 14 16 16
5 3 5 3 7 8 5 4 5 15 20 20 23 27 29 32 33 34 33 32 30 32 34 35 32 30 28 26 28 26 21 17 15 10 7 6 12 15 13 11 11 11 9 9 12 14 16 17 19
4 2 2 4 5 4 4 5 2 16 26 24 28 30 34 35 37 38 36 33 29 30 32 36 36 33 28 27 25 23 22 20 15 11 8 6 12 12 11 10 10 8 9 10 12 14 18 19 21
4 1 4 7 8 6 9 7 9 19 20 20 29 29 35 39 39 41 42 39 34 28 33 37 36 33 28 28 27 27 26 23 16 12 10 9 12 11 12 11 8 9 9 10 14 17 18 19 19
3 7 10 9 5 7 6 7 6 11 17 29 31 33 37 38 38 43 43 40 34 30 30 31 33 30 28 26 26 25 24 22 16 13 12 13 13 13 13 10 10 10 11 14 16 16 17 17 19
6 3 8 8 2 1 6 6 4 6 9 23 29 41 41 43 47 44 44 39 34 35 32 28 27 29 28 28 26 26 23 21 20 18 17 18 16 14 11 9 10 12 14 15 15 16 17 18 20
5 10 16 6 5 2 3 4 4 6 8 11 22 28 38 42 45 44 43 41 40 39 33 29 29 29 26 29 29 26 25 25 23 22 19 18 16 13 11 12 13 14 15 16 17 18 19 21 22
7 1 6 3 3 3 3 4 6 5 6 10 20 35 41 44 45 43 42 42 40 39 36 31 29 26 19 22 28 25 19 20 19 20 19 18 16 16 16 15 13 13 16 18 17 18 21 23 22
4 4 6 4 2 1 1 2 4 5 16 14 11 31 35 39 43 44 40 37 36 35 33 30 29 24 22 24 31 28 23 21 22 23 23 19 18 17 16 14 13 15 17 18 19 22 22 21 22
3 5 3 5 4 5 5 4 8 6 8 9 11 21 28 37 40 43 40 33 31 31 30 27 27 23 23 28 29 29 26 24 24 24 27 22 21 19 15 13 14 18 20 20 23 22 22 21 21
2 5 5 4 2 4 3 4 5 8 14 19 15 15 12 24 40 40 37 34 31 31 28 28 28 25 24 29 29 30 28 25 24 23 25 24 21 18 17 15 18 18 19 19 21 23 21 19 20
2 3 4 6 3 3 4 5 5 5 6 4 7 9 11 20 34 38 36 33 32 30 26 24 25 25 27 28 28 31 29 25 23 23 23 21 17 14 16 14 15 18 24 23 22 21 20 21 23
6 3 2 3 3 3 4 4 4 1 3 2 4 13 19 22 27 28 32 30 25 25 26 24 22 25 28 27 30 26 22 24 23 21 19 20 18 21 14 18 14 20 20 21 22 19 20 24 27
1 2 1 4 4 4 1 5 5 8 8 8 10 17 23 25 24 24 25 27 26 25 27 25 24 24 26 30 31 28 26 24 22 20 19 18 14 18 20 17 17 20 22 22 22 22 23 25 28
1 4 5 4 4 1 4 5 4 8 8 15 18 21 28 28 26 27 26 27 28 27 28 27 28 29 29 29 30 28 28 27 25 21 19 20 25 22 13 19 18 21 23 25 24 22 24 25 26

GFSSGP_850_spd_045.txt.gz
Wind_Speed
3 1 1 2 3 4 3 7 3 4 1 2 2 1 5 6 0 2 3 28 31 34 33 33 31 29 27 26 24 22 21 21 24 25 24 25 25 27 28 30 31 31 30 28 26 25 25 23 24
1 2 2 2 4 2 5 4 8 5 7 10 8 5 8 4 6 4 18 24 29 32 34 34 31 29 28 26 23 22 22 24 25 24 24 25 27 29 31 32 31 31 30 27 23 23 22 21 21
2 4 1 4 3 4 4 3 5 1 7 1 4 8 5 6 7 16 16 23 29 31 33 33 32 30 27 24 23 22 23 25 24 23 24 26 28 31 30 31 30 30 29 27 22 21 20 22 22
4 4 3 3 4 6 4 7 6 4 3 2 8 5 5 6 4 5 19 22 31 31 32 32 32 29 26 24 20 21 24 24 23 23 25 27 29 30 29 29 28 27 26 25 22 21 21 20 20
5 3 3 0 3 4 2 2 4 4 7 6 1 3 5 8 3 10 17 25 28 31 33 30 27 26 21 24 22 21 22 22 22 23 25 28 30 29 27 26 25 24 22 21 19 19 19 17 17
4 3 3 2 3 4 1 4 3 3 10 8 8 7 4 8 4 15 15 18 23 30 31 30 25 26 22 20 22 21 20 20 22 24 26 28 28 27 26 24 22 20 19 17 15 15 15 15 14
6 4 3 4 4 4 4 6 5 5 4 2 12 6 6 10 8 14 16 21 19 34 32 31 31 27 22 21 21 20 19 18 21 24 25 26 25 24 23 21 19 16 14 12 10 9 9 11 14
3 4 3 3 3 6 3 5 1 6 1 5 3 7 6 12 12 13 12 18 10 16 27 29 32 29 21 20 17 17 17 19 21 23 24 23 22 20 18 17 15 12 10 9 7 6 8 11 12
4 2 3 4 3 5 5 4 5 4 8 6 3 12 19 20 16 15 22 20 17 27 28 36 35 30 16 11 13 15 18 21 23 22 22 20 18 17 15 14 12 9 6 7 5 5 7 10 12
5 4 5 7 3 5 4 5 6 5 7 8 18 21 23 22 22 27 33 26 28 31 35 39 40 34 28 24 24 23 23 23 22 21 20 19 17 15 13 13 10 8 6 5 2 4 7 10 12
4 4 7 7 14 10 6 2 4 13 0 13 28 27 26 25 23 24 21 22 31 29 29 30 30 21 19 21 22 24 24 22 21 19 19 17 16 13 13 11 8 5 4 1 1 3 7 9 9
3 9 8 9 7 7 7 6 4 6 2 19 27 28 27 23 24 21 22 27 32 30 41 30 23 20 20 22 23 23 23 21 20 18 16 14 14 13 12 9 7 5 4 4 3 4 6 7 9
5 5 3 14 11 8 11 5 5 5 9 20 23 25 26 24 25 25 28 28 35 36 29 26 23 23 22 23 24 25 23 21 18 18 14 12 13 11 12 9 8 8 8 7 5 5 6 9 10
3 7 6 10 10 8 6 3 3 9 18 24 23 26 27 27 33 31 34 36 33 32 27 24 25 23 23 24 25 25 23 20 17 15 12 11 10 9 10 11 11 10 10 9 8 8 8 10 12
2 4 5 1 5 4 17 2 3 19 16 19 22 26 29 29 35 29 28 29 29 30 24 24 22 24 24 25 26 26 23 21 17 13 11 9 9 9 11 11 13 13 12 10 9 10 10 10 13
4 4 3 4 0 3 6 4 5 21 25 23 23 28 27 28 33 29 27 29 28 29 30 25 23 26 27 28 27 25 22 20 15 12 11 10 10 14 14 15 14 12 10 10 11 11 10 12 14
5 1 1 3 5 4 1 4 11 26 26 22 25 26 28 27 30 32 31 30 30 28 28 26 25 26 28 28 27 23 23 21 17 16 12 9 16 18 17 15 13 12 11 12 11 10 12 14 15
2 1 2 6 4 4 2 7 5 27 27 26 28 31 29 29 30 30 32 32 31 30 29 29 29 28 28 29 27 26 26 23 20 18 14 11 17 18 17 15 14 13 11 10 9 12 14 14 15
4 3 5 6 4 6 7 5 7 15 19 19 25 29 31 33 30 30 29 32 34 31 32 32 30 32 32 32 30 31 29 25 23 19 14 13 15 16 17 16 13 10 8 9 12 14 13 14 15
3 1 3 6 5 6 3 8 3 7 11 29 30 31 33 33 32 35 34 35 33 32 33 35 34 34 34 34 32 32 29 26 22 18 15 14 15 16 16 14 11 10 10 12 13 13 13 15 16
1 1 5 3 6 2 4 5 5 6 8 21 28 37 35 39 39 38 41 39 37 37 35 35 37 36 35 32 31 30 30 26 25 22 17 15 15 14 14 13 12 12 13 12 13 15 16 16 18
1 3 6 5 2 4 4 4 5 6 11 13 26 33 39 40 43 42 44 43 41 41 38 34 37 39 37 33 34 34 32 29 25 22 18 17 17 14 16 15 14 14 13 12 13 15 18 19 19
5 1 4 2 5 2 0 2 7 2 7 12 23 32 39 44 46 48 49 45 42 44 41 39 40 37 36 35 33 31 31 27 23 21 20 19 18 18 18 15 15 14 13 12 13 18 19 21 22
3 2 7 4 3 2 3 4 5 4 11 12 9 27 37 45 47 46 46 44 45 46 43 42 39 36 33 30 30 29 33 28 22 19 22 21 20 20 19 18 16 15 12 9 16 19 21 23 22
4 5 3 4 3 5 1 1 8 6 8 8 13 31 37 43 46 48 45 45 45 45 43 40 39 38 33 33 25 26 29 25 22 20 24 25 24 24 23 20 16 13 12 20 18 20 22 21 20
2 5 4 3 2 4 2 4 5 5 11 9 15 22 31 36 43 46 48 47 46 42 39 39 37 39 33 33 29 27 28 25 22 23 25 27 28 29 29 24 23 18 19 16 17 18 22 22 19
2 2 3 6 2 3 3 6 9 7 5 7 6 14 17 27 38 44 45 46 43 39 37 36 32 30 28 30 27 27 29 27 28 29 29 28 29 27 21 19 19 23 19 23 14 16 18 17 16
5 4 1 3 1 2 4 4 5 6 5 2 4 10 15 20 31 37 42 41 37 34 32 32 26 25 25 30 28 28 29 28 31 29 27 31 32 27 27 26 22 25 17 10 14 17 17 17 19
2 2 3 4 4 4 1 5 6 7 5 5 3 7 13 15 16 19 24 31 31 32 29 29 26 24 26 27 26 30 29 31 30 28 30 31 31 32 28 25 17 14 9 12 16 19 18 19 20
3 5 5 4 4 2 4 6 3 6 7 7 11 10 15 17 15 17 16 21 27 28 27 29 29 28 28 28 30 27 28 27 27 30 30 30 29 23 20 15 12 10 11 14 18 18 18 19 20

GFSSGP_850_spd_048.txt.gz
Wind_Speed
3 2 4 4 4 5 4 6 3 4 2 2 2 3 3 5 1 2 4 22 28 33 33 32 29 27 26 24 22 21 20 21 24 25 25 25 25 26 28 29 29 29 27 26 25 25 24 23 22
1 5 5 3 5 2 5 3 4 5 1 4 5 3 6 4 6 1 9 17 29 31 33 33 30 28 27 25 23 21 22 25 25 25 25 26 28 30 31 30 29 29 28 26 24 24 23 21 20
3 6 3 4 3 5 4 4 4 1 6 3 4 9 4 5 7 3 7 19 27 30 31 31 30 28 27 24 22 21 23 25 25 25 27 30 32 32 32 30 28 28 26 25 22 21 20 19 18
4 3 4 4 3 5 5 4 4 1 7 15 8 5 4 4 3 1 18 20 27 28 29 29 30 29 26 23 22 23 24 24 26 27 30 32 33 33 32 30 27 27 26 25 23 21 21 19 16
4 2 3 1 3 4 4 4 4 4 9 8 4 2 3 5 4 10 17 18 24 27 28 31 28 26 26 25 23 24 23 23 25 29 31 32 32 31 31 28 25 25 23 22 20 19 19 18 15
2 2 3 1 5 4 4 4 2 4 7 7 7 4 1 5 12 12 15 19 22 24 30 32 31 30 26 22 23 23 23 23 25 28 30 31 30 29 27 26 24 22 20 17 16 17 17 16 15
5 4 4 3 4 5 4 3 0 1 4 4 11 4 5 11 11 12 13 18 19 18 29 31 38 33 29 25 24 23 22 22 25 27 28 28 27 26 24 22 20 18 15 13 12 13 13 13 13
3 4 2 2 3 5 1 3 3 5 3 7 7 7 5 14 12 13 14 15 10 29 36 30 39 29 25 23 23 22 22 22 25 26 26 25 25 23 20 18 16 14 12 11 9 9 12 11 11
3 4 1 4 3 5 3 2 1 1 6 4 1 9 14 16 14 15 15 15 15 16 30 36 41 33 21 21 18 20 19 21 23 25 24 23 21 19 17 14 12 11 9 7 6 7 9 12 13
3 3 7 6 5 5 4 5 7 4 6 5 10 12 18 16 18 18 18 24 27 31 36 38 42 43 32 27 19 16 17 22 23 24 22 21 19 17 15 12 10 7 6 5 3 4 7 11 13
5 5 6 8 16 2 7 3 4 10 2 11 19 25 20 18 19 21 22 25 29 30 33 42 40 44 37 20 19 21 20 23 24 22 20 20 18 16 13 10 7 5 4 1 1 2 6 11 14
2 12 7 9 6 5 7 7 3 5 4 7 21 24 25 20 21 21 29 31 33 38 41 36 39 38 27 21 19 23 23 23 23 22 19 18 15 14 11 9 8 5 3 2 2 3 7 11 12
3 5 2 2 8 8 10 6 5 1 6 14 21 21 23 19 17 19 21 25 25 27 30 40 37 30 24 25 24 24 25 23 22 21 19 15 13 12 10 9 8 8 7 5 4 6 7 10 10
1 4 5 5 8 7 7 4 2 4 16 19 18 18 20 20 23 22 23 29 25 35 37 30 25 21 20 22 25 25 25 24 22 20 17 14 13 10 9 10 11 9 8 9 7 6 8 9 11
2 2 4 0 4 3 14 1 2 15 19 21 16 16 20 21 24 25 27 30 41 36 30 26 22 23 24 25 25 26 26 24 21 18 16 13 12 11 11 12 14 13 12 10 9 8 10 10 13
3 3 0 4 2 1 2 3 6 21 22 22 19 22 20 23 27 26 27 35 37 31 27 26 26 24 23 24 26 27 27 23 19 16 13 12 11 10 11 14 15 13 11 11 10 10 10 12 14
5 1 1 4 5 2 2 3 5 22 18 20 23 24 22 26 29 27 27 33 33 30 26 25 24 23 23 24 27 27 26 22 18 16 14 11 11 13 16 14 15 14 14 11 11 10 11 13 12
3 2 3 5 3 5 2 6 6 21 19 21 25 26 25 26 30 28 26 28 29 29 28 25 21 21 24 25 26 26 26 24 20 18 15 14 15 17 17 17 16 15 14 10 9 11 13 11 9
2 3 5 3 5 4 6 6 8 12 13 17 23 27 28 28 25 26 27 27 28 27 28 27 26 23 25 29 30 30 28 25 25 19 18 18 15 16 18 17 16 16 12 10 12 12 9 8 11
2 3 4 4 3 3 4 4 4 10 16 23 29 30 29 28 27 28 28 30 31 31 30 29 27 26 27 28 29 29 27 26 24 21 21 19 16 16 16 16 16 14 13 11 10 8 8 10 12
2 3 2 2 5 0 1 5 5 5 14 19 25 33 32 33 31 30 30 31 33 35 34 32 31 30 30 30 30 31 29 31 28 24 25 22 18 17 16 17 16 15 12 10 9 9 11 11 14
2 3 3 4 5 3 2 4 4 4 8 9 24 32 35 36 35 33 34 34 36 35 33 31 29 30 31 32 33 34 32 34 29 23 23 19 19 18 19 20 17 14 11 11 9 10 12 14 17
6 1 1 1 3 1 1 3 7 2 6 12 19 32 38 39 37 36 38 38 38 35 34 31 31 34 34 35 35 35 33 33 27 23 20 20 22 22 21 19 16 14 13 12 12 10 13 20 19
2 3 5 4 3 1 3 5 5 4 7 5 13 26 37 41 42 40 39 38 37 38 37 36 35 35 35 37 37 36 33 32 29 25 22 22 23 23 22 20 19 18 18 18 18 16 26 16 17
2 5 3 4 3 4 2 2 9 5 6 7 10 30 41 45 43 43 42 42 41 40 40 39 38 38 37 36 38 38 37 33 27 24 21 22 24 25 24 22 22 24 23 24 22 22 18 22 24
3 6 5 2 2 3 1 4 5 3 5 12 15 17 29 37 41 44 44 43 42 42 41 38 38 39 37 38 35 39 41 35 29 26 22 20 23 27 27 26 30 29 25 28 22 25 18 15 17
3 2 4 6 3 2 3 6 10 4 3 7 5 7 16 26 36 41 43 43 42 42 41 37 34 40 40 39 37 39 36 36 30 25 24 24 27 30 30 28 33 30 27 22 21 13 12 13 14
3 6 3 3 2 3 4 4 5 7 4 3 4 2 5 12 21 30 36 40 40 39 39 34 34 31 34 39 39 40 34 35 28 25 26 28 28 33 35 29 29 24 17 13 10 9 11 14 16
2 1 4 5 4 4 1 5 7 6 4 5 5 2 3 8 13 17 22 26 30 32 32 30 34 33 31 31 34 33 31 28 25 24 26 27 28 32 30 25 18 16 11 8 8 10 15 17 15
4 7 6 4 4 1 3 6 4 7 6 7 7 4 2 5 9 11 12 13 15 19 25 29 33 32 28 28 25 25 25 25 25 28 26 27 27 26 26 17 14 10 10 8 8 19 13 15 15

GFSSGP_850_spd_051.txt.gz
Wind_Speed
3 2 4 3 3 1 2 3 1 3 3 3 4 3 4 4 1 1 5 18 25 30 31 29 28 30 30 29 27 25 24 23 23 24 24 23 23 24 25 26 27 27 27 27 25 23 22 19 18
1 5 3 1 2 3 3 2 3 1 4 5 4 3 6 3 4 3 5 19 26 32 31 30 29 28 27 26 24 23 23 24 25 25 24 25 26 27 28 27 28 28 27 26 24 21 19 17 17
4 6 2 2 2 5 2 3 3 3 3 4 2 8 6 3 4 0 4 18 29 33 32 30 30 29 27 24 23 23 25 27 27 27 27 28 28 29 29 27 27 27 26 24 21 20 18 17 16
6 3 4 2 6 4 4 2 1 6 2 4 7 6 4 5 3 0 12 20 28 31 32 31 32 31 29 27 25 26 28 28 28 29 31 31 30 30 28 27 25 24 24 23 22 19 18 16 13
5 2 1 1 4 4 5 3 3 3 3 3 5 6 3 3 2 11 16 19 27 31 31 32 32 30 27 27 28 29 30 29 30 33 34 32 30 29 28 27 26 24 23 22 21 19 16 13 11
2 2 1 2 4 5 4 2 5 3 3 4 3 7 4 2 4 12 15 18 20 28 31 30 30 29 29 28 28 31 31 31 32 35 34 32 30 29 27 25 24 22 21 21 19 17 15 15 14
2 2 2 2 3 4 2 4 3 3 6 1 5 4 5 4 7 9 13 14 19 21 29 29 35 32 27 29 27 27 30 31 34 34 33 31 28 27 25 23 21 19 18 16 14 14 14 14 12
2 2 2 3 3 3 1 3 3 2 3 5 5 3 4 11 9 11 11 12 14 16 28 37 37 38 40 26 24 23 28 32 33 32 31 29 26 24 22 19 17 15 13 12 13 13 11 12 12
2 2 2 3 3 2 3 4 4 4 5 3 3 6 6 21 16 12 11 11 15 16 25 36 42 44 37 27 24 22 25 31 32 30 29 27 25 23 20 16 15 12 11 9 9 9 10 12 13
3 1 4 5 3 4 2 2 8 3 4 3 6 9 17 18 15 12 11 12 18 26 36 49 44 42 39 33 25 24 25 27 29 29 27 24 22 20 17 15 12 9 8 7 5 6 7 10 12
3 4 5 8 9 5 2 4 5 8 4 8 11 21 20 17 14 12 13 19 29 34 39 38 44 47 45 38 33 30 23 26 28 27 26 24 21 18 16 12 10 9 8 5 2 2 6 9 12
3 10 8 4 2 5 5 7 4 7 3 4 15 20 19 13 13 11 19 23 28 30 30 32 39 43 41 38 25 24 22 25 28 27 24 22 19 17 14 12 12 9 6 3 2 2 6 9 12
4 3 3 9 6 5 9 4 4 3 3 13 18 17 17 15 16 16 17 19 26 30 34 34 39 40 36 38 23 22 21 25 25 24 23 20 17 15 14 13 9 9 7 5 3 4 6 9 12
3 0 2 3 5 5 3 3 0 4 15 19 17 18 18 16 17 21 23 25 32 38 38 36 40 44 34 21 22 23 24 26 25 23 19 17 15 15 13 12 12 10 9 7 4 6 7 11 12
3 2 2 1 3 3 6 2 2 9 16 17 17 20 16 17 19 20 22 26 29 27 31 37 30 27 22 19 19 21 23 25 24 21 19 18 17 16 14 14 14 13 10 8 8 8 9 9 10
1 3 2 1 2 1 1 3 4 13 15 14 16 15 17 17 18 20 24 26 27 36 35 32 26 22 22 23 21 22 25 24 22 21 22 18 17 17 15 16 14 12 13 11 11 11 9 8 10
3 2 2 0 9 3 2 3 7 15 13 12 14 16 16 17 20 20 26 32 39 37 33 30 26 22 21 22 22 23 24 24 22 19 17 18 17 16 14 14 11 13 13 15 13 10 8 8 10
4 3 3 4 2 4 5 10 9 18 15 14 12 14 17 20 25 24 26 34 39 34 29 26 24 22 21 22 23 24 25 25 23 21 20 17 16 15 12 14 15 16 17 16 14 11 9 9 9
1 0 4 1 4 2 3 6 9 17 14 13 14 15 18 25 25 26 26 30 34 35 29 28 26 24 25 27 27 28 29 28 27 23 21 18 16 15 15 17 18 19 19 16 15 11 9 8 9
3 2 3 2 2 2 4 4 5 16 21 21 19 19 22 22 22 29 29 30 32 32 32 30 27 26 25 26 26 28 28 27 26 25 25 23 18 18 18 19 20 21 20 17 14 11 10 7 6
3 3 2 2 2 2 3 3 2 5 10 15 19 20 20 24 27 30 33 33 32 34 34 31 30 28 26 26 26 28 28 28 31 28 26 21 20 20 18 19 20 20 18 17 14 13 10 7 7
3 4 4 4 2 2 2 3 3 4 10 13 23 24 28 28 29 28 31 33 35 35 33 32 31 30 29 29 28 29 31 32 31 28 24 20 21 21 20 21 21 20 19 17 17 15 12 9 11
4 3 0 2 3 0 0 2 3 1 6 15 22 30 30 31 31 32 33 34 33 31 31 30 31 31 31 31 31 31 32 33 31 28 22 21 22 23 24 24 23 21 20 21 18 17 14 17 15
3 2 5 4 2 1 1 3 4 4 3 3 13 24 30 36 36 34 34 32 32 31 32 31 31 32 32 31 31 32 31 32 32 31 27 24 25 26 25 25 24 23 23 22 22 20 18 15 19
2 2 1 0 1 3 4 3 7 4 7 6 10 13 26 38 40 38 36 36 35 34 33 34 33 32 32 31 30 30 30 35 35 36 28 26 27 27 26 27 27 27 24 23 27 21 15 20 19
5 5 3 3 2 0 1 4 3 3 9 10 11 12 12 24 38 42 41 39 37 35 34 34 34 34 32 32 31 30 27 34 35 37 29 25 27 23 25 29 28 24 22 24 22 16 19 15 12
4 4 2 6 2 1 2 3 8 2 2 5 9 7 4 11 23 33 38 40 39 36 34 34 33 32 32 31 31 31 30 32 33 35 34 28 29 28 27 27 30 27 27 21 18 15 12 8 8
2 6 3 1 4 3 2 3 3 4 3 4 5 5 5 5 9 16 23 28 31 33 31 31 31 28 28 25 25 32 33 32 34 33 31 29 29 27 26 33 33 26 16 14 12 7 5 9 17
3 2 5 3 1 2 1 3 5 4 2 3 3 3 1 2 2 5 8 11 15 20 22 23 26 25 28 28 26 26 28 31 33 30 27 27 26 30 33 31 28 23 16 14 8 9 18 16 14
3 6 5 3 4 0 1 5 3 5 6 8 7 3 3 6 5 4 6 5 6 9 12 15 18 20 22 23 24 24 23 20 23 25 20 24 24 26 27 28 22 20 18 19 18 21 14 12 14

GFSSGP_850_spd_057.txt.gz
Wind_Speed
4 4 4 10 8 9 18 21 21 1 4 8 5 10 7 21 4 9 12 2 13 22 23 27 24 26 29 31 30 27 25 23 20 17 19 21 22 23 24 26 25 23 23 22 21 19 19 19 19
2 6 8 14 9 14 14 18 9 5 9 6 3 4 7 7 4 7 8 16 15 24 27 28 29 29 28 30 30 28 26 23 21 21 23 23 23 24 25 26 26 23 22 22 19 19 18 18 17
4 8 16 10 13 15 8 14 14 8 4 10 4 9 2 3 4 3 2 12 18 25 30 31 33 31 29 30 29 28 25 23 23 26 25 25 25 26 27 27 25 23 21 21 19 17 16 16 16
5 9 13 10 18 14 13 4 5 6 7 9 11 1 11 6 0 6 3 10 25 27 30 33 36 33 33 32 30 27 24 25 27 28 28 27 27 28 28 26 25 21 20 19 18 16 14 15 15
6 12 10 15 16 9 4 9 5 12 10 3 13 2 16 5 1 2 2 10 20 23 32 35 36 35 35 32 28 26 26 28 30 30 29 30 30 29 29 28 24 20 19 18 16 15 13 14 14
14 6 11 13 10 2 3 6 7 9 10 6 15 9 14 4 2 3 9 12 16 22 32 39 37 33 30 30 29 27 29 30 31 31 32 32 31 29 27 26 23 21 19 16 15 14 13 13 14
13 10 14 13 7 4 2 6 8 11 12 15 1 12 7 2 2 4 5 8 7 9 18 35 34 31 28 24 23 27 29 32 33 34 33 31 30 27 25 24 23 21 18 16 15 13 13 13 14
10 8 17 9 6 9 11 4 2 8 8 13 8 6 3 7 7 3 4 1 3 12 25 38 35 26 25 25 24 23 22 28 33 34 33 30 28 26 25 23 21 19 17 15 14 13 12 13 13
8 11 10 3 2 5 6 10 4 3 6 5 6 7 4 6 7 4 2 5 2 11 22 29 31 31 24 27 29 30 25 26 31 32 30 29 27 25 22 21 19 17 15 13 12 11 11 11 13
11 12 4 6 6 5 6 9 6 5 12 11 5 2 3 10 8 3 2 5 9 26 34 34 30 28 34 36 35 31 29 28 30 30 28 27 24 17 19 19 16 15 13 11 10 9 11 13 8
10 12 8 4 3 9 12 12 4 8 15 7 3 10 9 9 9 5 5 5 16 24 25 34 38 39 39 38 36 33 30 31 31 30 23 23 22 18 18 19 16 14 12 10 7 7 6 5 4
10 13 8 8 4 10 10 7 8 11 16 8 10 12 11 8 5 6 7 9 15 27 33 33 35 37 39 38 35 36 34 33 30 25 21 24 23 20 19 17 15 13 9 8 6 5 2 2 4
12 12 9 12 7 9 7 9 5 5 5 9 12 11 9 8 8 9 7 11 19 26 31 38 37 37 37 40 40 43 31 32 30 24 23 21 15 16 13 13 12 12 11 9 7 3 2 0 3
8 11 12 7 13 8 10 8 10 11 12 12 11 9 7 8 8 11 9 17 20 23 28 32 35 32 35 42 40 37 28 29 22 17 22 20 12 17 16 17 12 12 11 10 7 7 4 3 1
13 17 13 6 9 9 8 9 18 17 15 13 10 10 7 7 8 8 11 15 20 24 28 27 29 28 33 35 41 34 27 20 21 21 18 19 15 17 14 13 13 13 12 10 11 9 6 3 3
15 18 10 8 29 5 8 7 32 16 14 12 10 9 9 10 8 11 14 18 17 23 28 23 30 29 32 34 34 19 16 17 17 15 15 18 17 15 17 14 14 14 14 12 10 9 6 6 4
16 10 13 8 20 7 8 4 3 13 11 12 11 11 13 12 12 13 14 18 19 22 29 29 27 26 29 28 19 15 14 18 17 16 18 21 20 20 17 15 13 16 13 17 15 11 10 8 7
8 12 13 6 11 9 9 14 3 12 13 12 14 16 15 15 16 16 18 21 22 27 30 29 28 33 18 16 16 15 16 16 17 17 18 22 19 18 19 15 15 20 18 17 17 16 14 9 8
13 14 12 16 17 14 7 9 8 16 13 13 15 16 19 18 17 19 22 22 24 25 28 29 30 28 22 19 20 20 17 16 17 18 21 24 22 21 21 19 19 24 17 18 18 19 17 10 9
11 13 14 6 5 8 11 12 11 12 14 16 15 18 18 18 21 22 25 26 27 28 29 29 27 24 22 19 18 18 17 17 19 20 19 22 25 19 19 20 20 22 19 21 22 21 18 12 11
11 14 12 9 6 12 14 17 2 9 16 15 17 18 20 23 24 24 26 28 28 30 30 29 26 25 23 20 19 18 18 19 20 21 21 28 29 26 22 24 24 23 20 21 23 24 21 14 12
13 14 11 10 10 9 9 8 8 12 13 14 18 18 22 24 25 27 28 30 31 31 30 29 26 25 23 22 20 20 20 20 20 20 22 28 30 26 25 30 28 22 20 27 23 23 20 17 15
12 1 7 12 14 15 15 8 11 7 10 15 17 21 21 24 27 30 32 32 32 31 33 30 27 26 24 23 23 21 23 20 18 18 21 26 27 28 28 27 29 26 32 27 25 23 22 16 17
8 7 10 11 11 11 14 13 4 14 9 9 12 19 22 24 27 29 29 29 30 30 31 31 30 29 27 27 26 27 24 23 20 19 25 24 25 24 23 23 28 32 30 27 25 22 21 25 22
10 13 8 6 8 10 5 7 6 13 3 2 3 9 21 24 26 29 30 31 31 32 32 32 30 30 30 31 30 29 27 25 23 23 25 19 19 22 23 24 23 29 28 26 21 25 25 24 24
16 16 6 6 6 4 5 7 6 8 3 5 6 6 9 16 27 30 31 31 31 32 32 31 30 29 28 29 30 25 25 28 29 26 23 23 23 24 28 25 23 23 26 27 29 23 27 29 23
13 14 16 11 7 6 7 7 12 7 4 3 2 4 4 11 20 27 30 31 30 29 30 31 28 27 27 29 25 28 27 31 28 24 26 28 23 27 25 21 22 27 30 30 21 30 29 24 23
14 9 10 8 4 10 10 9 4 7 6 4 3 5 3 2 7 14 25 30 28 27 26 26 26 25 26 27 25 27 27 32 26 25 28 27 24 23 20 19 22 21 21 25 27 29 29 25 20
11 11 10 9 12 4 6 5 9 8 4 2 1 1 3 2 4 8 14 19 26 24 23 23 22 23 23 22 25 24 27 24 17 16 20 20 20 18 18 21 20 18 26 30 28 24 23 18 13
9 17 18 10 13 9 8 11 2 6 5 4 8 4 2 2 3 6 9 13 17 21 22 21 20 20 19 18 19 19 16 18 19 18 19 19 19 17 16 17 20 23 25 24 21 22 18 12 15

GFSSGP_850_spd_060.txt.gz
Wind_Speed
6 5 3 10 7 7 17 19 21 23 4 10 8 12 4 18 10 4 4 12 25 22 14 23 27 27 29 30 29 27 24 22 19 17 18 21 23 26 25 24 23 23 23 23 22 22 22 22 22
5 6 10 17 10 13 13 9 13 8 9 5 10 8 11 11 8 6 5 3 20 13 19 23 27 29 30 30 29 27 24 22 19 18 22 24 26 28 26 24 24 23 23 22 22 21 21 22 22
5 5 13 11 13 14 17 9 11 9 11 7 8 23 7 7 13 9 8 6 12 27 24 27 27 28 29 31 29 27 25 23 20 22 25 26 27 28 27 23 24 23 22 21 21 20 20 20 21
5 11 12 10 17 21 20 5 4 6 9 10 17 5 4 13 10 9 7 5 18 28 28 24 29 29 28 30 28 26 25 22 22 25 26 27 29 29 28 25 23 22 22 20 19 19 18 19 19
11 13 11 16 20 19 14 10 15 8 10 10 25 2 6 3 16 5 3 8 13 22 26 27 32 32 28 30 29 27 24 23 26 27 28 29 31 30 27 25 23 22 21 20 19 18 17 17 18
17 20 12 13 11 8 15 7 8 9 21 15 22 2 4 6 12 5 3 9 10 18 18 29 27 24 26 30 30 27 25 27 28 29 30 31 32 31 28 25 23 22 20 19 18 17 17 17 18
14 11 15 17 16 2 11 8 13 7 22 12 21 13 12 6 7 1 3 3 5 13 30 16 14 21 22 20 23 26 29 29 30 30 31 31 31 30 28 24 23 20 19 18 18 17 16 17 18
14 9 18 16 9 4 4 11 13 17 9 17 20 7 10 4 2 5 6 10 7 16 7 16 27 10 12 10 15 21 27 28 30 31 31 31 30 28 26 25 22 19 18 18 17 16 15 16 17
13 11 13 6 12 2 2 6 4 12 19 10 9 8 10 8 8 11 9 10 10 10 18 25 15 29 26 27 21 21 19 21 26 28 29 28 27 27 26 23 20 18 17 16 15 15 15 15 15
11 11 17 9 9 12 7 8 14 8 12 21 16 13 9 9 8 12 10 17 19 16 24 18 29 23 30 28 37 36 32 28 24 25 27 28 28 26 24 21 18 16 14 14 13 14 14 14 10
15 13 16 17 7 10 14 18 19 12 7 6 12 3 7 7 6 9 11 13 16 22 27 31 33 30 29 27 32 33 34 33 29 26 27 27 22 18 17 17 16 15 13 11 10 9 9 9 5
11 15 19 13 14 9 12 20 19 22 3 7 9 10 12 9 9 9 12 13 18 28 33 35 32 33 37 40 41 39 36 30 31 26 24 21 17 16 15 16 15 13 11 9 8 5 6 5 4
10 15 17 15 17 10 14 13 35 20 27 17 14 12 12 12 12 8 8 10 16 23 27 33 35 34 39 38 40 45 35 31 27 27 22 18 20 17 18 14 12 11 6 6 9 5 3 2 3
18 17 15 15 26 23 11 12 16 37 22 12 9 8 11 14 6 7 10 10 14 25 21 28 34 38 38 41 42 40 37 39 29 24 25 24 17 17 13 8 7 9 14 8 8 3 1 2 2
18 14 10 7 25 22 23 8 3 18 22 13 9 7 9 14 11 10 11 11 11 17 26 29 31 29 31 30 38 39 44 34 28 24 25 16 14 14 15 18 15 12 15 12 7 10 7 8 2
17 18 14 12 15 22 13 5 1 17 30 17 12 11 10 11 12 7 11 11 14 16 19 23 25 29 34 41 30 33 28 34 31 27 17 19 17 15 18 16 16 18 16 13 13 14 9 5 5
18 15 15 11 11 6 15 9 7 16 26 17 16 16 16 13 15 16 10 10 16 22 26 29 26 25 30 31 30 35 34 32 25 17 18 17 22 22 18 17 20 20 16 17 14 13 11 10 11
18 9 9 2 12 19 12 18 18 29 42 22 23 17 18 17 17 17 16 16 15 23 21 25 28 32 35 38 30 22 22 21 22 21 20 21 23 22 21 20 19 16 17 18 18 17 17 17 12
13 14 17 14 6 8 12 12 14 9 21 12 23 20 17 19 20 19 21 20 21 24 29 33 30 32 40 33 22 21 21 23 26 22 22 24 22 21 20 21 19 20 23 22 19 21 20 20 17
12 15 16 9 8 11 13 11 6 17 24 17 17 18 20 18 24 22 25 28 25 30 26 27 36 38 30 25 20 20 21 23 21 24 24 25 24 23 23 23 19 21 24 22 21 22 22 22 21
13 14 16 11 9 19 11 13 10 5 16 14 18 21 20 23 28 28 29 31 30 28 30 34 38 28 24 26 21 22 20 19 22 27 28 29 28 26 27 25 20 19 20 19 25 29 26 25 22
14 13 14 10 11 10 3 6 6 11 11 14 17 24 28 23 27 32 34 35 35 35 31 31 31 29 25 26 28 25 27 28 26 24 22 25 27 29 30 26 25 26 34 31 33 33 29 28 25
14 6 6 10 11 14 15 3 4 9 12 16 13 21 31 32 30 32 36 38 37 36 37 33 32 30 32 26 28 28 28 25 23 26 25 28 32 30 29 31 30 27 29 32 30 35 29 29 25
13 10 10 10 10 11 16 11 9 2 8 8 18 23 25 34 35 34 35 35 38 37 37 37 37 36 35 33 28 26 25 26 24 25 27 32 32 25 25 29 32 31 27 30 33 31 30 23 25
11 10 8 1 5 9 15 12 3 10 8 11 14 22 25 32 36 36 38 39 39 41 41 41 41 39 35 34 31 30 29 24 27 24 25 26 32 29 27 25 26 26 25 27 33 32 21 23 28
13 14 8 6 4 8 11 5 6 14 20 9 2 4 21 26 33 37 38 39 38 40 42 42 42 41 38 36 32 29 26 30 31 26 31 28 29 26 23 18 20 20 25 26 28 29 25 24 27
14 14 15 8 2 5 7 9 8 11 9 5 7 6 9 14 25 33 37 39 40 39 41 42 39 37 35 36 35 35 35 27 34 34 28 27 24 25 23 21 23 22 28 28 26 22 19 25 32
16 14 9 7 4 4 10 12 6 5 8 7 7 6 6 2 9 19 32 37 39 40 39 40 37 35 34 33 34 39 30 37 32 31 27 24 26 28 25 21 22 19 24 25 22 22 27 27 26
11 13 10 13 11 5 4 2 4 10 9 6 4 9 6 3 6 5 12 25 34 35 36 37 37 32 32 31 32 36 33 32 31 24 26 24 26 24 23 19 18 19 20 19 21 27 26 23 18
19 16 17 9 9 9 5 2 7 5 8 9 6 8 5 4 7 8 9 12 26 32 34 35 35 31 31 29 29 28 30 29 26 24 22 18 18 18 19 17 18 18 20 24 25 23 18 14 12

GFSSGP_850_spd_063.txt.gz
Wind_Speed
3 3 4 6 2 2 6 10 6 6 4 2 3 2 6 11 6 6 11 4 15 19 14 13 21 29 30 30 30 28 26 24 21 20 24 25 26 26 27 28 28 28 27 26 26 27 28 31 30
3 3 7 6 1 3 8 13 20 5 8 9 4 3 8 4 13 7 10 12 19 22 20 23 25 29 29 28 27 27 24 22 20 22 27 28 28 27 27 28 27 27 26 26 26 27 27 29 30
2 5 4 3 4 8 8 18 11 1 14 7 6 17 8 8 11 2 10 19 20 26 21 18 26 29 31 30 28 26 26 23 21 25 29 30 29 27 28 27 27 26 25 25 25 25 26 28 28
1 5 7 2 13 17 14 16 10 4 13 25 8 7 5 13 7 10 12 11 16 12 16 20 32 32 31 32 31 29 25 24 25 28 31 30 29 29 28 27 26 25 24 23 23 24 26 28 27
7 7 3 5 11 13 15 9 18 13 9 14 15 4 6 10 9 10 10 5 10 17 14 19 28 30 32 33 32 29 25 24 28 31 33 31 29 29 29 27 26 24 23 22 22 22 24 27 27
5 6 5 8 14 16 3 16 20 15 12 6 11 8 4 13 14 13 6 10 13 21 20 17 24 30 32 32 32 31 28 26 29 32 33 32 30 29 29 27 25 23 22 22 21 21 23 26 26
11 3 7 10 15 6 2 9 10 9 7 12 7 5 7 3 14 10 9 11 13 16 15 22 26 21 27 29 32 30 30 28 26 31 33 32 31 29 28 26 24 23 22 20 20 21 21 24 24
21 3 9 11 11 7 2 5 15 7 12 8 13 0 7 10 7 3 7 5 10 15 19 12 17 22 8 12 27 26 25 28 27 30 34 31 30 28 27 26 23 22 21 20 19 20 20 22 23
19 3 8 13 12 5 1 3 3 17 28 26 4 4 16 9 11 8 15 7 13 12 11 14 21 22 18 8 27 23 20 25 26 28 30 31 30 27 27 24 22 21 18 19 19 20 19 18 17
4 2 10 11 5 6 11 14 11 10 15 3 11 5 6 8 8 8 16 14 9 11 14 19 23 20 26 25 35 31 37 26 24 27 28 28 27 26 26 23 20 18 17 16 17 15 15 13 13
19 7 11 14 23 8 7 19 18 23 3 1 8 17 13 11 6 8 13 16 14 15 17 19 17 22 21 32 32 36 39 40 30 28 29 27 26 25 23 21 17 16 14 14 13 11 10 10 8
5 19 15 19 15 16 6 11 10 14 7 6 2 10 13 11 8 8 10 12 15 20 23 24 25 24 27 33 29 33 40 34 31 30 29 29 25 23 18 18 15 13 12 9 9 8 7 6 7
7 7 14 10 12 11 20 9 9 8 17 3 1 6 9 11 7 8 10 11 18 26 27 31 29 32 33 36 38 42 41 35 35 33 28 23 21 19 18 16 13 11 10 8 6 4 5 5 6
20 18 17 11 7 7 5 1 11 2 10 8 11 15 18 14 9 10 13 14 19 22 25 27 32 32 35 42 43 46 45 36 35 33 27 24 17 17 15 12 11 11 10 6 5 4 4 4 3
20 9 10 6 6 3 6 3 4 12 14 13 8 12 20 13 8 11 15 16 18 20 22 30 23 36 40 44 43 46 40 38 35 34 29 20 16 14 14 14 13 10 9 11 8 6 3 2 4
10 8 5 10 2 6 6 7 5 10 7 3 5 7 20 16 9 10 16 17 18 21 23 29 40 41 39 34 46 43 43 42 38 37 26 20 17 16 14 12 12 12 16 14 12 10 9 7 6
6 10 14 5 7 3 5 2 11 21 19 18 24 17 18 22 13 11 12 16 20 22 24 29 31 34 34 38 41 36 38 40 35 28 24 19 20 16 15 18 19 19 19 17 15 14 13 11 10
10 6 8 6 7 6 6 8 5 21 20 23 25 22 24 23 15 14 14 18 20 24 25 29 30 32 34 33 30 34 33 42 37 23 24 16 15 18 19 18 18 20 20 20 18 17 14 15 17
16 14 8 4 5 6 9 7 12 18 13 16 23 23 30 28 22 18 16 20 23 24 27 29 30 30 32 37 30 34 36 37 34 23 22 19 20 21 23 23 21 21 22 21 19 17 19 22 21
17 6 8 2 4 4 8 8 15 16 18 22 26 30 32 27 32 24 19 19 26 24 25 28 29 33 36 33 35 35 30 31 35 26 23 26 24 22 23 22 22 22 25 24 22 21 22 23 24
9 6 8 7 4 6 2 8 10 15 15 23 30 36 33 37 34 33 30 24 25 31 32 33 35 40 42 34 29 26 23 25 27 30 30 28 28 27 25 25 23 25 26 29 24 23 22 22 22
6 10 8 7 3 4 4 5 3 11 13 12 27 31 34 38 35 32 35 35 32 34 35 38 44 46 37 28 27 27 27 28 29 30 28 29 31 29 26 28 28 26 28 27 25 27 26 24 24
8 9 2 4 6 5 7 2 6 6 7 9 19 27 33 38 40 41 39 38 35 33 35 40 43 40 32 30 30 28 27 26 24 25 26 27 29 31 30 31 29 31 32 28 29 29 28 31 26
6 6 4 3 2 6 8 5 5 6 7 7 17 34 38 33 41 40 40 38 37 36 35 38 44 38 32 32 32 33 36 32 31 31 30 29 28 26 28 29 31 34 36 32 29 28 30 30 31
5 1 3 4 3 6 4 7 9 11 10 8 13 38 33 36 40 44 43 43 40 38 40 40 40 42 38 35 33 36 36 34 33 34 30 31 32 31 28 28 30 29 34 33 29 27 28 31 30
7 8 5 5 4 5 3 4 4 7 10 15 25 30 38 40 43 47 46 44 43 44 42 43 43 41 41 41 37 36 37 38 35 36 34 32 33 32 30 30 28 21 21 19 20 26 29 31 22
5 6 10 3 1 2 4 7 8 3 6 4 10 8 36 43 44 48 48 46 43 43 47 49 46 45 43 44 45 44 42 37 42 40 35 35 31 27 29 27 22 15 13 14 19 26 28 19 16
11 5 2 1 5 4 5 5 4 6 6 3 5 7 12 30 39 45 48 47 45 43 43 45 44 44 45 47 45 45 43 41 39 35 32 25 25 29 32 25 19 17 17 20 20 23 20 18 21
5 9 3 6 4 5 1 4 6 8 6 7 7 12 9 6 8 27 42 49 47 48 48 45 47 46 45 43 43 46 45 43 43 35 24 28 25 24 25 22 19 19 19 19 22 18 19 21 24
16 15 9 5 4 4 5 5 8 9 8 7 15 17 17 13 9 9 10 38 45 51 51 50 46 46 46 44 42 44 43 37 38 15 25 28 23 24 18 18 19 18 19 20 18 19 21 22 17

GFSSGP_850_spd_066.txt.gz
Wind_Speed
1 2 2 2 4 5 4 6 4 9 7 3 5 7 10 8 4 5 7 8 16 22 20 21 24 29 28 25 27 26 25 23 22 25 28 29 29 30 31 30 29 28 28 28 28 29 27 25 24
2 2 2 2 4 1 5 7 9 7 12 3 7 7 9 5 8 10 7 4 12 18 17 21 27 31 30 22 27 28 26 24 23 27 30 31 32 33 32 30 29 28 28 28 28 27 25 22 21
1 2 0 3 3 4 5 5 6 7 15 2 5 10 4 4 2 6 4 4 21 24 22 23 26 24 30 33 30 31 29 26 26 29 31 33 34 34 32 32 29 28 29 29 28 28 27 20 19
2 1 1 3 7 10 6 16 20 10 5 10 3 6 2 2 3 3 5 6 11 25 24 31 28 35 34 47 41 31 28 25 29 29 30 32 34 34 32 31 30 28 28 28 29 29 23 18 17
1 1 3 2 7 8 11 21 2 7 6 8 1 3 3 6 7 7 6 6 8 12 15 14 22 26 33 38 44 39 34 28 31 31 31 32 34 34 33 30 30 28 27 28 30 28 21 17 16
2 2 2 3 7 8 7 9 11 11 6 4 5 5 4 9 9 7 5 6 8 11 16 21 27 12 29 40 44 41 36 30 34 32 31 33 35 34 32 30 28 27 26 25 27 27 22 17 16
5 3 5 4 10 9 4 14 10 6 6 2 8 4 2 4 9 8 3 6 10 13 14 15 23 14 26 49 42 38 38 41 38 34 33 34 34 33 32 29 28 27 25 24 25 27 23 18 12
3 4 3 5 5 9 9 4 13 8 2 7 2 3 2 10 7 8 4 2 9 11 18 22 19 21 23 19 15 27 32 40 39 36 34 33 34 32 30 28 28 26 25 24 24 25 24 19 13
4 2 4 7 3 6 10 4 7 10 9 5 1 2 4 9 9 6 3 3 6 12 15 19 16 12 3 9 17 17 22 35 38 36 33 33 33 32 29 28 27 25 24 24 24 23 22 19 12
4 3 7 7 3 5 5 5 14 5 2 1 3 0 2 1 5 8 7 3 8 9 8 11 10 13 17 17 21 35 37 28 33 34 34 32 32 32 30 27 26 25 23 21 20 19 19 18 11
4 6 12 21 14 1 10 5 6 9 0 5 3 9 6 5 5 6 10 11 11 9 10 10 15 16 19 22 33 38 42 35 32 32 32 32 32 31 30 27 24 23 20 18 15 14 14 13 11
2 13 19 22 9 1 7 13 5 5 6 5 9 12 10 9 10 11 13 13 13 13 13 13 17 19 28 36 39 36 39 41 41 38 33 30 32 30 28 25 22 19 17 15 13 11 10 9 10
5 8 13 21 8 10 19 8 8 6 12 8 12 13 15 11 10 14 16 15 16 16 22 18 20 22 28 40 39 42 39 39 39 39 37 32 31 27 23 22 20 17 16 14 11 10 7 6 8
9 12 16 13 9 4 5 4 2 5 17 13 14 14 12 14 17 16 16 16 16 20 23 25 25 30 33 37 38 41 37 37 36 36 36 33 29 25 24 20 17 16 14 12 8 8 6 7 7
12 6 9 9 4 2 14 3 6 15 17 20 14 15 12 15 14 10 14 15 17 20 25 35 29 30 33 39 42 43 40 39 38 36 33 32 26 23 20 17 17 15 12 10 8 7 8 7 5
5 2 3 4 2 7 9 5 6 17 21 15 9 16 15 14 10 7 13 14 17 19 19 26 29 31 33 38 46 43 42 40 38 37 31 27 22 18 18 16 14 13 12 9 6 9 8 6 5
3 5 5 9 7 3 3 4 6 20 18 16 14 17 15 12 12 9 10 16 17 16 18 28 30 31 38 40 44 37 37 40 40 35 29 28 23 18 17 15 15 13 11 10 11 12 11 8 9
6 4 3 6 6 3 1 4 4 22 19 19 22 14 17 17 15 10 10 14 18 17 17 27 34 31 35 38 44 36 36 39 39 35 33 34 21 19 18 16 14 14 15 16 17 16 14 13 14
6 7 8 11 10 6 8 7 11 16 13 13 18 19 23 22 17 13 12 15 18 20 22 24 34 31 37 37 41 42 42 38 35 38 41 23 18 20 19 19 17 18 21 19 18 19 19 19 19
9 13 14 10 4 7 7 8 7 11 13 20 22 19 28 26 23 19 17 20 22 25 29 31 33 31 35 35 41 43 43 37 41 39 32 24 23 23 22 21 21 21 23 22 22 23 22 21 22
14 13 13 9 5 4 2 5 3 7 6 14 23 30 30 35 31 28 24 25 26 28 33 35 35 36 39 42 38 36 40 35 44 45 34 27 27 24 21 21 21 24 27 25 23 24 23 23 23
11 11 9 5 2 3 3 5 5 7 16 10 20 29 34 37 36 33 29 29 31 30 32 36 37 38 39 39 37 39 41 42 48 46 36 30 30 28 26 24 24 27 26 25 25 24 25 26 26
13 16 8 6 3 2 3 1 6 4 10 10 15 29 37 43 43 42 37 32 30 32 34 35 36 37 40 41 39 41 40 40 42 42 37 35 33 30 30 29 28 29 29 31 29 28 29 27 27
16 5 3 3 2 3 5 5 4 6 10 14 23 34 37 42 46 44 41 35 36 34 34 37 39 42 45 43 41 39 36 36 37 39 37 34 33 33 34 33 31 30 30 31 32 31 29 28 27
7 4 2 3 2 7 5 3 7 10 13 12 22 37 41 45 42 47 45 44 40 41 41 40 43 47 47 43 40 39 37 35 35 34 35 35 35 34 33 32 33 32 28 33 33 34 32 30 29
7 9 5 5 4 5 4 5 5 6 8 10 32 41 40 41 48 47 50 46 45 45 46 46 49 50 48 44 42 40 38 38 39 37 36 36 35 31 26 26 29 27 28 35 31 32 32 29 28
5 4 8 5 2 2 4 7 7 7 1 2 16 25 33 39 46 51 50 48 47 49 51 52 51 53 50 46 42 43 43 44 42 40 41 41 38 33 30 28 31 31 31 19 21 20 21 22 24
11 6 3 1 3 4 5 5 6 4 1 2 7 20 32 41 44 45 50 51 50 49 52 53 53 53 51 49 47 45 42 43 42 43 44 42 41 33 29 31 31 29 28 19 18 19 17 24 25
3 3 1 5 5 5 2 5 6 9 8 7 6 20 21 28 38 41 42 46 51 52 48 53 54 54 52 50 48 47 44 42 42 41 46 36 34 24 27 33 32 34 25 20 20 22 20 22 22
10 11 9 6 5 4 5 9 3 9 10 5 9 16 21 22 25 30 39 46 47 51 51 52 49 48 44 39 37 39 39 39 41 44 34 27 24 37 35 32 35 31 22 23 22 23 23 20 23

GFSSGP_850_spd_069.txt.gz
Wind_Speed
3 4 2 1 4 5 3 6 3 8 6 3 6 3 5 4 0 3 4 11 15 19 25 29 31 31 31 31 25 19 21 22 22 21 24 26 27 27 30 31 31 29 28 26 25 23 22 22 23
4 5 2 2 4 3 5 4 4 5 7 5 8 1 2 1 2 5 8 9 14 17 21 24 28 29 32 32 30 19 20 22 22 21 26 27 29 32 33 32 30 29 28 27 26 23 21 20 21
3 2 1 4 3 3 4 5 5 2 4 3 4 2 4 8 10 12 9 9 15 18 21 26 26 30 32 31 28 35 28 27 25 28 28 30 32 33 32 32 31 30 30 28 25 24 24 22 20
3 1 4 3 4 6 6 13 13 5 6 2 4 3 3 7 7 8 11 11 16 23 24 21 19 20 20 25 28 35 35 30 30 30 30 32 33 34 33 32 32 31 30 28 25 24 23 22 22
2 2 3 2 5 5 6 11 15 5 3 1 5 4 2 5 5 7 9 9 17 25 28 19 19 21 22 22 24 37 40 31 33 32 33 34 35 35 34 33 32 32 31 27 23 22 21 21 20
3 2 3 2 5 6 7 5 3 5 4 3 3 2 2 3 5 6 9 5 11 20 36 29 29 23 14 9 24 39 43 40 34 35 35 35 35 35 34 33 32 31 30 27 22 20 21 20 18
5 3 2 3 5 7 1 11 3 3 6 5 4 3 2 3 3 2 4 8 11 13 19 24 33 26 10 32 29 46 51 40 37 37 37 36 35 35 33 33 32 32 31 27 22 21 22 20 17
5 4 1 4 4 6 4 3 6 8 6 5 4 5 4 3 2 2 2 11 16 22 22 26 30 14 21 24 22 21 36 46 43 38 39 38 35 34 33 32 31 32 31 28 22 19 19 18 16
6 3 3 5 2 5 1 4 6 4 5 6 6 8 5 4 6 5 6 12 18 20 15 13 18 18 12 8 7 17 33 50 42 40 41 38 36 33 33 31 30 31 31 29 24 17 16 14 13
4 4 6 6 5 7 10 5 10 4 5 6 9 13 8 5 8 8 10 12 10 11 11 10 11 12 15 15 16 20 32 29 34 36 38 38 35 34 33 31 30 30 30 28 24 19 15 12 11
5 5 5 15 21 20 9 3 7 5 6 12 12 14 12 10 10 8 7 6 7 6 4 3 6 15 18 25 26 29 43 38 31 35 35 36 35 34 33 32 30 29 28 26 24 19 14 12 9
1 10 7 14 17 5 5 6 5 15 11 8 10 10 11 10 10 6 4 3 7 11 5 2 10 19 18 24 28 45 44 39 38 35 33 36 34 32 30 29 27 25 23 23 20 18 15 13 10
5 5 8 17 21 11 8 9 7 18 19 10 9 10 11 9 9 7 5 7 8 13 6 11 14 17 20 25 37 44 47 44 41 40 34 33 32 31 30 27 26 23 21 18 17 15 12 11 11
3 11 16 16 18 9 9 3 4 17 12 10 9 12 9 11 10 8 6 8 10 11 12 15 16 20 26 32 39 40 42 43 41 43 39 34 32 32 29 27 24 22 18 16 13 11 10 10 9
4 8 9 8 7 7 13 4 10 13 14 9 12 13 15 13 11 8 8 6 8 12 15 18 20 23 28 34 34 40 40 42 41 41 40 38 35 30 27 24 22 19 16 15 13 10 10 10 9
4 2 3 5 2 5 10 11 6 11 16 14 16 18 19 13 10 8 9 8 8 11 16 22 30 29 32 38 39 34 36 37 39 39 37 34 32 26 22 21 19 15 14 13 10 9 10 10 9
3 5 5 10 3 1 4 8 5 12 16 17 16 20 19 14 15 9 7 8 8 10 13 19 27 29 37 41 39 37 36 36 36 35 35 33 27 22 20 18 16 15 14 12 10 10 9 10 9
5 4 3 5 6 3 5 13 7 10 18 18 17 18 17 17 17 10 6 6 11 11 13 17 24 28 33 37 41 34 33 34 35 35 33 31 31 24 20 18 15 14 13 13 13 10 11 12 9
3 3 4 11 13 3 8 12 10 8 13 15 20 19 19 17 16 13 9 8 14 14 16 20 26 30 30 35 39 33 37 36 36 34 32 27 25 21 18 18 16 16 15 13 12 13 14 15 13
5 6 10 10 12 7 8 11 10 7 9 21 23 26 25 18 18 17 14 12 17 19 17 19 25 28 32 34 37 38 38 37 34 36 29 25 26 28 20 17 18 15 15 17 17 19 19 18 19
8 8 7 9 8 6 1 7 5 3 9 15 26 24 25 24 24 22 20 14 17 21 22 22 25 29 31 34 39 34 34 36 38 39 33 33 33 27 22 21 19 20 22 22 21 22 23 22 23
13 9 12 12 4 5 5 4 5 5 7 7 15 26 29 28 27 26 24 21 20 21 21 25 28 32 32 36 36 39 41 39 39 38 41 38 37 27 23 22 21 22 22 23 24 25 26 25 26
10 7 10 10 7 2 2 1 6 0 6 10 13 30 31 33 32 33 30 24 21 23 24 27 31 32 33 35 34 37 41 45 43 39 42 41 39 34 29 26 26 26 27 26 27 28 28 27 28
9 3 3 2 3 5 5 6 5 5 9 6 16 28 35 36 37 35 32 27 24 26 26 29 33 34 35 35 38 40 41 42 46 46 43 46 46 38 36 32 31 29 31 30 30 30 32 32 31
5 3 3 3 1 8 5 3 7 9 10 12 11 28 40 40 38 38 38 35 30 31 31 30 34 36 38 39 41 42 41 41 41 41 45 46 44 41 39 35 35 34 33 32 31 34 35 35 34
7 9 5 6 3 5 1 5 6 7 13 21 25 31 38 37 40 41 41 40 37 34 35 34 35 38 40 42 44 43 40 39 37 37 41 44 43 41 36 36 38 36 33 31 30 36 34 33 30
4 6 10 4 2 2 4 7 8 8 8 7 11 18 26 36 41 43 43 43 42 40 40 40 38 37 41 43 45 45 43 42 41 40 40 41 41 40 37 37 38 40 41 38 32 35 36 30 30
9 5 2 1 5 4 4 4 6 10 6 7 5 15 26 36 39 42 44 44 45 45 43 41 41 41 42 45 45 45 43 42 41 38 41 40 36 36 38 43 41 40 38 37 37 35 24 21 22
3 9 3 4 5 6 2 6 7 8 7 7 6 20 29 35 40 43 45 44 46 44 46 46 44 44 44 46 47 46 43 42 42 42 43 41 39 35 35 39 34 43 37 33 30 27 23 23 20
8 8 9 5 3 3 4 10 4 9 8 7 11 13 19 32 36 40 42 44 43 43 44 48 49 48 46 45 47 45 43 44 44 47 46 41 37 34 24 29 34 36 36 34 31 31 28 27 22

GFSSGP_850_spd_072.txt.gz
Wind_Speed
5 4 2 1 4 5 3 5 3 5 3 3 7 3 2 2 1 2 4 9 7 14 23 28 29 30 27 29 28 27 26 22 27 30 27 26 24 23 24 27 27 26 24 23 22 23 24 24 23
6 4 3 3 4 3 5 4 6 6 4 4 2 1 0 3 2 4 4 10 12 17 20 22 25 25 27 29 32 31 27 25 27 26 22 25 24 24 27 29 27 25 24 24 26 25 25 26 26
5 3 1 4 3 3 5 6 7 4 4 4 3 3 3 3 4 7 7 8 15 18 22 21 26 26 27 25 25 27 30 26 25 21 21 23 23 26 30 30 28 26 25 28 25 25 28 24 22
3 2 5 4 3 6 6 7 9 5 3 2 3 4 2 6 3 5 8 7 15 18 22 24 23 27 28 27 24 21 24 27 26 23 21 21 25 29 30 29 28 27 25 26 25 25 25 23 22
2 3 4 2 4 5 6 7 7 2 2 2 4 2 3 6 9 9 12 12 13 19 21 24 22 26 32 26 19 21 23 30 28 24 25 23 30 31 29 29 29 28 27 27 26 26 25 23 23
3 2 4 1 4 5 6 9 2 2 2 3 3 2 4 5 8 11 11 12 13 21 26 26 24 20 19 31 21 9 30 32 34 30 30 33 34 33 31 30 30 28 27 26 25 25 25 23 23
6 3 4 3 4 4 4 1 4 3 2 7 5 3 2 7 5 7 6 8 13 16 26 29 27 20 20 15 12 21 27 38 35 32 35 39 36 35 33 31 29 28 26 25 25 25 23 23 21
4 4 2 4 1 5 4 3 6 5 6 6 5 5 3 7 4 5 4 6 12 16 20 33 32 28 28 27 26 29 23 46 38 39 39 41 38 35 31 30 29 26 25 24 24 24 21 20 19
5 4 2 4 4 5 4 3 5 6 8 7 7 8 4 5 6 6 5 8 12 12 14 16 20 24 20 20 19 22 23 41 40 41 42 39 38 33 32 31 31 26 24 24 24 23 21 20 19
4 4 8 6 4 7 14 8 5 4 5 10 16 15 9 6 9 9 11 12 17 16 20 18 23 24 21 16 8 6 45 46 45 43 43 41 34 35 33 33 31 27 25 23 23 22 20 18 18
6 6 5 7 15 14 6 4 6 6 6 18 10 4 11 8 9 10 11 13 15 14 12 11 12 18 20 20 14 29 30 34 41 41 38 33 39 36 35 34 32 29 25 23 21 18 15 14 13
2 10 7 10 5 5 3 4 6 14 11 4 5 5 9 12 13 10 11 12 13 13 10 8 7 16 18 18 23 33 35 43 42 41 39 44 40 37 34 32 31 28 25 21 18 17 12 11 13
4 5 5 9 20 19 12 14 8 17 23 21 7 6 8 10 11 10 10 10 13 13 11 8 11 17 16 21 25 28 37 41 40 44 43 42 39 35 33 31 30 26 24 20 19 15 14 14 14
6 8 12 14 23 12 7 4 1 13 13 16 10 9 9 9 12 10 9 9 11 11 13 9 13 17 16 20 23 37 40 39 41 39 39 36 35 33 32 29 25 25 22 21 17 14 15 14 12
4 5 6 5 7 5 9 7 9 22 7 13 11 10 11 11 12 10 9 10 12 13 15 12 17 17 17 21 30 41 38 42 44 39 39 39 36 30 26 26 27 23 22 21 16 15 14 12 11
2 2 3 3 2 3 9 10 5 14 13 15 12 12 13 13 13 12 10 7 8 12 15 12 15 20 23 25 33 38 38 35 40 37 37 35 29 24 32 29 23 21 19 16 13 12 13 12 10
3 4 5 8 4 3 4 9 3 2 12 15 15 16 16 15 15 14 9 5 9 10 9 10 15 23 22 27 34 36 36 35 39 42 36 32 32 34 27 23 21 19 17 15 12 13 9 8 8
6 4 5 5 3 2 4 13 16 11 13 19 17 17 17 18 17 15 10 5 9 8 9 9 14 22 23 32 34 35 34 35 32 43 36 36 34 29 24 19 20 18 15 15 12 11 10 8 8
5 4 3 5 5 1 9 7 16 6 10 16 24 20 20 20 14 15 11 8 11 11 10 12 13 17 26 33 33 31 33 36 38 40 39 37 32 30 24 21 18 17 15 13 12 12 11 10 11
4 5 6 9 9 7 8 11 14 5 7 18 25 24 24 20 19 19 14 11 10 14 14 14 13 17 26 35 36 32 30 29 34 34 35 34 32 26 24 23 21 18 15 15 15 15 13 12 13
6 12 4 8 6 5 4 7 8 5 5 10 19 23 22 24 24 22 19 15 13 14 17 18 18 20 22 31 35 26 28 31 32 34 38 35 31 34 35 26 22 18 16 16 15 15 17 17 16
9 9 8 6 2 4 4 5 6 7 8 6 15 21 25 23 25 22 21 18 15 14 14 20 23 25 25 28 33 35 40 36 37 34 35 33 33 31 31 29 24 19 18 20 19 17 21 20 21
9 8 10 6 4 1 3 2 7 2 8 9 8 23 26 26 26 27 25 19 15 16 15 19 21 24 27 32 35 35 38 40 37 38 39 38 33 28 26 25 26 25 22 20 20 21 23 23 25
4 2 3 1 3 5 8 7 5 4 8 7 5 17 24 26 27 26 24 21 20 18 20 21 24 27 29 31 35 38 37 41 45 45 44 46 40 36 35 35 30 26 23 27 25 24 26 27 29
4 6 2 2 2 6 5 3 9 8 11 8 10 20 20 25 28 29 29 28 26 25 25 25 27 31 32 32 34 38 40 43 43 48 46 45 45 44 42 39 38 35 29 28 29 29 31 32 33
8 8 5 6 3 3 3 5 5 8 11 18 21 26 21 21 26 32 31 30 29 28 29 30 32 32 34 34 35 37 37 39 41 47 46 46 43 41 44 43 40 37 33 33 34 35 36 35 36
5 5 7 0 2 0 4 6 8 8 8 7 12 14 17 19 23 30 32 31 31 32 33 34 33 34 35 37 38 39 40 40 42 41 42 46 47 45 45 44 43 39 35 38 36 34 34 36 37
7 7 3 1 4 5 3 3 5 7 9 9 7 12 13 15 19 23 31 33 32 33 32 33 34 33 34 36 40 41 42 42 42 42 42 40 37 38 39 40 40 38 38 38 38 33 29 35 41
3 5 2 3 4 5 3 5 7 9 4 6 7 11 15 16 19 21 29 33 32 33 34 36 35 34 36 36 37 40 41 41 40 40 39 39 38 37 35 35 36 36 37 40 40 34 36 33 31
2 6 9 6 5 4 3 9 5 8 7 7 13 14 12 16 19 23 25 28 31 33 34 35 37 39 36 37 37 37 37 39 37 40 38 37 39 37 34 35 38 41 40 42 34 38 35 32 29

GFSSGP_850_spd_075.txt.gz
Wind_Speed
6 6 4 3 1 0 1 3 1 3 3 3 6 4 3 2 3 3 2 11 13 21 22 24 25 25 26 26 26 24 27 27 27 29 29 28 28 26 25 25 24 24 23 20 19 19 20 21 21
7 6 3 3 1 1 1 1 6 6 4 4 2 3 4 2 4 3 5 11 10 18 21 26 25 26 29 23 22 25 29 31 27 32 31 29 26 25 25 23 24 22 20 18 18 20 22 22 22
7 5 2 3 2 1 2 5 8 5 9 4 3 5 3 2 5 3 5 7 12 17 22 23 26 25 19 20 23 27 29 26 26 34 33 30 27 25 25 24 24 21 20 20 23 24 24 22 20
5 2 5 1 2 3 4 4 6 6 2 4 3 4 4 7 3 7 8 8 13 20 21 23 26 30 27 24 24 23 27 29 31 34 33 29 26 26 26 25 25 22 20 26 25 26 23 20 19
4 2 2 1 3 3 5 7 4 3 2 2 3 2 4 7 12 10 12 14 10 18 22 28 27 28 24 19 26 30 27 26 27 32 31 29 28 28 27 26 25 25 26 25 23 23 21 20 21
2 2 1 2 3 3 6 6 3 2 4 2 4 3 5 7 11 12 13 15 14 17 21 26 28 30 35 30 33 31 26 39 32 29 30 30 31 33 31 29 27 27 26 27 25 24 23 22 21
3 2 2 2 2 4 3 3 3 3 4 5 4 3 4 8 11 12 12 13 14 15 19 24 23 33 31 34 39 36 30 27 35 31 32 34 36 35 33 31 27 28 27 26 26 24 24 22 22
5 2 3 4 3 3 3 3 5 5 4 4 5 6 3 7 12 12 9 7 9 11 15 19 21 23 33 41 40 36 25 18 38 38 39 39 40 36 33 30 29 28 27 27 26 24 23 22 22
5 2 4 5 7 3 4 4 3 7 6 6 8 10 7 6 9 7 5 6 7 8 11 17 22 23 27 27 33 33 25 26 31 50 42 43 40 36 33 31 30 28 27 27 26 23 22 22 22
5 4 9 6 6 4 5 6 5 4 5 8 10 16 12 8 6 6 6 6 7 6 6 11 9 16 21 22 25 24 25 28 39 41 42 42 41 36 33 32 29 28 28 27 25 23 21 21 22
6 6 6 6 13 9 5 4 4 5 9 17 9 12 13 10 9 9 8 7 8 8 9 11 12 17 20 23 23 24 26 34 44 44 40 36 36 35 35 32 30 29 28 27 24 22 20 19 19
5 10 8 4 7 5 4 3 5 13 14 8 4 8 10 12 11 11 11 10 12 13 13 12 11 15 22 20 17 15 17 36 42 41 41 39 38 37 32 32 30 30 29 26 22 20 18 17 16
6 5 7 15 13 11 8 11 9 17 19 18 6 5 11 12 11 12 12 13 13 12 13 12 11 13 11 13 15 18 20 43 47 42 40 39 39 35 31 30 31 29 27 26 24 22 19 18 16
5 9 10 10 14 8 7 4 2 9 8 19 15 11 12 12 11 15 14 14 12 12 13 12 10 12 11 14 24 24 27 40 45 44 40 40 33 34 33 34 30 26 23 22 17 19 20 17 14
4 6 8 9 7 4 8 5 9 12 7 8 12 14 14 13 13 14 12 11 12 15 14 17 12 12 13 18 25 28 31 40 46 43 34 34 35 32 33 33 28 24 20 16 17 20 19 17 16
2 2 5 1 4 1 7 8 2 5 8 11 12 14 16 16 14 12 11 10 10 14 15 17 12 16 18 17 22 30 30 36 41 40 41 38 36 38 36 30 25 21 19 17 19 21 17 16 14
2 7 6 5 3 3 4 6 5 3 7 11 14 14 15 17 17 16 12 10 10 13 17 15 15 19 21 19 21 29 36 41 42 39 41 40 39 38 32 30 28 26 23 21 20 18 14 14 12
8 6 5 8 2 1 4 14 18 12 12 15 14 15 17 17 19 16 14 11 9 12 14 14 13 18 21 21 27 31 28 39 40 40 39 39 36 31 31 29 26 24 21 21 20 16 14 12 11
7 6 7 4 4 2 10 8 15 10 8 12 15 17 19 19 16 17 15 12 12 13 14 14 14 17 20 25 32 33 34 27 43 36 38 37 35 25 30 29 23 18 19 18 17 17 16 14 13
8 7 10 12 4 8 10 13 15 9 8 11 12 18 19 19 20 21 19 15 15 15 17 18 16 17 23 28 33 36 37 32 42 37 38 33 34 31 34 24 22 22 21 22 19 17 15 14 14
16 18 14 13 6 4 6 9 6 3 5 8 11 13 18 24 26 25 23 19 16 19 19 20 20 20 24 29 33 32 34 35 35 36 42 38 36 34 31 28 27 24 23 20 19 16 15 16 16
14 10 13 13 5 7 2 8 6 8 13 7 11 13 16 23 27 25 25 21 19 18 18 23 22 22 24 29 34 33 34 37 39 38 45 41 39 36 36 32 27 24 27 21 20 16 16 18 21
12 8 12 11 9 6 9 6 2 3 9 14 10 12 16 24 29 31 28 22 18 18 20 26 26 25 26 30 35 32 29 30 32 40 41 40 43 40 38 35 30 29 28 26 21 20 18 17 20
5 4 2 2 2 6 10 7 7 6 12 7 5 7 10 21 28 29 26 24 21 21 22 22 29 30 30 29 35 37 34 33 38 41 41 44 41 38 39 38 37 33 33 28 24 23 20 20 19
6 4 3 2 4 7 2 8 11 9 13 10 11 16 11 13 26 31 32 31 28 25 25 25 28 31 31 31 32 33 36 38 39 41 42 44 47 44 41 38 38 35 30 26 24 24 21 24 24
13 13 5 7 5 2 4 5 5 7 11 13 12 17 15 12 21 31 35 33 31 28 28 28 29 31 32 32 34 35 37 40 43 43 44 44 46 44 41 37 34 32 32 33 35 33 30 30 29
6 9 11 1 1 2 3 4 10 9 9 7 9 9 9 10 18 28 34 33 33 32 31 31 30 30 32 33 34 37 41 42 45 45 45 45 47 48 45 44 41 40 40 38 37 37 36 32 28
8 10 5 3 6 9 5 4 6 4 8 5 7 6 10 4 10 20 29 32 32 34 32 31 31 30 30 33 34 36 39 42 43 45 49 51 52 52 48 47 46 44 44 44 43 41 41 36 34
7 7 2 4 4 6 5 4 7 12 9 6 7 10 9 6 7 15 21 27 29 32 34 35 34 33 34 34 36 37 38 40 42 43 44 46 47 49 49 49 50 46 41 40 39 41 41 40 33
2 8 10 6 5 2 2 7 4 10 8 7 10 12 12 10 5 11 15 19 24 29 32 35 37 38 36 35 36 39 40 40 39 38 37 39 40 40 41 39 35 34 35 36 46 44 47 48 37

GFSSGP_850_spd_078.txt.gz
Wind_Speed
7 5 4 2 6 6 3 6 2 5 4 1 5 7 6 9 6 7 3 6 8 13 18 26 25 22 23 23 24 27 30 30 30 29 29 27 25 24 23 21 23 25 24 22 21 21 21 23 22
8 7 2 3 7 7 6 2 6 3 5 5 5 6 7 5 3 3 5 7 9 16 15 16 24 23 24 22 22 28 31 31 30 31 29 27 26 25 23 24 25 25 23 21 19 21 21 22 20
10 7 4 4 4 6 1 2 3 4 6 7 3 5 4 2 3 2 5 7 12 17 16 19 22 23 22 20 20 28 30 32 31 31 30 29 27 25 26 26 26 25 21 19 20 21 21 21 21
6 4 3 7 5 2 3 4 5 3 2 6 5 5 4 5 1 3 6 8 11 13 18 22 23 24 28 30 25 26 29 31 32 32 30 28 26 25 28 27 26 22 19 19 21 21 23 23 22
6 4 5 8 5 2 2 5 4 3 0 3 5 2 4 3 9 7 7 9 7 12 18 20 23 32 31 31 25 31 27 23 29 31 31 29 27 27 26 28 26 21 20 22 24 24 22 21 21
8 4 7 8 9 5 3 3 2 2 2 3 6 8 6 6 5 7 11 9 14 13 16 19 15 20 27 27 20 23 26 30 31 24 27 27 26 28 26 28 26 22 22 23 24 21 20 20 20
11 6 9 7 7 7 2 2 3 5 7 8 5 7 4 2 6 8 11 13 12 15 16 19 16 20 23 25 19 26 26 29 34 32 22 23 25 28 28 28 29 28 25 24 21 21 22 21 21
8 4 7 9 11 9 2 4 3 5 5 2 4 7 7 4 8 9 11 12 9 10 15 17 21 20 25 30 26 27 26 27 36 28 32 29 29 33 33 32 29 29 26 24 23 23 23 23 22
7 6 10 10 12 9 3 4 0 5 8 6 8 10 7 9 10 6 8 8 6 6 12 13 24 29 32 37 31 27 27 24 23 31 40 40 35 37 34 31 30 30 30 27 26 24 24 23 22
13 9 13 5 10 8 5 6 7 6 9 11 11 12 11 12 9 7 5 5 3 5 8 13 10 17 23 32 35 33 27 26 24 27 41 43 41 40 34 33 32 31 31 27 26 24 24 23 23
13 15 10 8 11 8 9 9 7 10 15 11 13 12 14 12 10 9 7 7 6 7 8 10 14 12 13 24 24 30 34 35 31 31 38 44 43 43 36 37 34 33 31 28 25 24 21 19 18
13 16 17 13 9 11 12 12 13 16 19 9 12 7 11 12 11 11 10 9 8 9 9 11 12 13 15 18 22 23 25 28 32 27 45 52 48 43 39 40 31 33 30 29 26 21 18 19 17
18 15 14 18 17 15 14 18 18 23 17 12 8 8 11 12 11 11 10 10 10 11 13 15 15 15 13 15 21 23 22 20 27 49 52 46 44 41 41 38 33 33 26 26 22 19 19 20 18
5 17 17 18 18 16 14 20 5 22 4 11 11 11 12 13 12 11 12 11 13 11 16 15 16 15 12 12 13 15 13 33 42 45 46 43 39 37 38 34 34 34 26 23 20 19 18 18 16
12 15 15 17 21 16 12 19 16 17 6 10 14 13 13 14 13 13 12 12 11 11 14 16 14 13 9 10 16 14 23 35 47 47 43 38 32 35 31 32 32 29 27 23 21 19 17 16 14
10 12 13 4 10 10 13 12 9 4 8 9 12 14 16 16 14 12 12 12 11 10 15 15 16 13 10 12 18 16 25 36 40 39 40 40 40 36 36 33 30 26 24 25 22 18 18 16 14
14 14 12 9 11 6 13 10 7 5 7 8 12 15 17 16 16 15 13 11 9 9 13 16 17 13 10 15 18 16 32 41 45 43 40 39 35 31 30 27 24 24 23 23 21 20 18 14 14
18 16 12 13 6 12 15 16 12 10 11 11 12 16 18 18 18 16 14 12 10 10 10 14 16 14 11 14 15 19 31 41 46 43 40 38 33 33 31 32 31 32 29 22 20 18 18 13 13
15 14 16 8 0 7 14 16 14 15 10 15 13 17 19 19 16 16 15 14 12 11 12 17 15 17 15 16 19 23 35 44 45 41 40 39 42 39 41 38 34 29 25 20 17 17 15 13 15
19 17 18 12 7 8 14 17 15 14 13 15 13 16 18 18 19 18 19 17 15 13 14 18 16 15 18 19 22 25 34 43 38 39 41 42 44 41 39 34 33 27 24 25 18 20 16 14 16
20 20 17 15 7 11 16 19 20 16 14 12 12 10 15 20 23 21 22 20 16 17 17 20 19 18 20 22 22 30 32 39 37 38 39 40 41 40 35 31 30 29 25 20 20 20 20 18 17
21 19 16 17 11 9 3 9 6 8 15 14 16 13 14 19 22 23 23 22 20 18 18 22 23 21 22 25 29 34 36 35 47 41 43 44 40 38 33 31 28 28 27 25 23 22 20 18 16
19 14 12 15 14 14 16 8 7 3 12 11 12 16 15 18 24 26 26 22 20 19 21 23 24 26 25 27 31 29 32 34 54 46 43 44 43 39 35 33 29 31 32 28 25 24 23 23 19
5 8 7 6 7 10 16 12 11 9 11 7 4 7 9 17 22 24 23 23 22 21 21 23 24 29 28 29 30 33 34 37 43 45 51 48 43 42 44 40 39 32 32 28 28 24 23 23 23
15 13 6 7 6 8 2 10 14 8 11 10 9 8 5 14 21 26 29 29 27 27 25 26 28 29 31 28 31 33 32 31 38 42 42 56 46 48 47 42 45 39 35 31 33 28 27 27 25
20 15 6 7 8 6 5 7 6 3 3 5 8 12 9 13 20 27 29 29 29 30 29 29 29 29 30 32 32 32 34 33 32 35 41 49 56 52 48 48 41 43 38 37 37 33 29 24 25
9 15 17 17 8 6 6 4 7 9 9 5 6 11 11 14 20 24 29 31 29 30 32 31 31 29 30 32 30 31 34 36 35 34 37 46 45 48 48 43 43 44 40 37 37 33 29 23 24
15 12 8 9 8 14 9 11 7 4 10 4 4 4 1 7 15 21 26 30 29 28 29 31 32 31 30 31 31 33 33 36 36 37 42 44 46 45 47 44 43 42 42 41 36 32 30 29 29
15 13 11 9 14 12 10 6 4 10 7 6 1 4 8 1 9 16 23 26 28 27 29 31 33 33 32 32 33 34 36 38 38 44 43 44 42 41 40 40 39 39 38 36 35 34 33 34 41
17 17 17 10 12 9 10 11 3 6 8 4 5 9 4 3 4 12 18 23 28 30 30 33 33 34 35 34 35 37 38 37 42 48 51 52 51 46 43 42 41 41 41 40 40 40 48 42 43

GFSSGP_850_spd_081.txt.gz
Wind_Speed
7 5 2 7 7 7 15 2 7 5 6 2 4 7 13 12 10 5 2 6 5 7 10 13 23 23 19 18 22 24 26 26 26 25 25 25 24 22 21 20 20 20 20 21 21 20 21 21 21
4 7 7 10 8 12 4 8 6 3 3 2 5 7 8 10 5 2 4 3 2 7 10 11 25 24 21 19 22 25 27 27 27 25 26 26 24 24 22 20 21 23 22 20 20 19 20 21 21
9 9 15 6 11 11 7 6 3 3 2 4 5 3 7 6 5 1 2 2 4 7 11 14 18 23 19 21 22 25 27 29 28 28 28 26 27 23 23 22 25 24 22 18 18 20 21 20 18
7 9 13 9 16 1 8 3 1 4 4 5 4 7 3 1 1 1 2 1 3 8 13 18 20 21 21 22 23 25 25 25 32 30 30 28 27 23 23 23 24 25 21 16 16 20 22 18 17
11 13 13 14 15 1 3 2 5 6 1 3 5 11 2 2 3 3 2 4 3 10 15 18 17 18 18 25 22 19 16 22 31 31 32 28 28 27 24 24 23 22 19 15 17 20 20 20 19
15 14 13 13 11 7 4 3 6 8 4 5 9 10 9 6 3 5 8 5 9 11 13 16 16 18 26 27 25 12 23 25 29 27 27 28 29 27 21 24 23 21 19 18 20 21 22 20 19
17 13 16 18 12 7 8 4 11 6 8 8 5 9 6 6 6 5 9 10 12 12 14 15 12 18 23 29 23 26 26 22 27 27 29 25 27 27 24 25 23 21 20 22 23 22 22 21 21
20 14 20 15 12 11 11 9 7 11 8 0 6 9 10 5 6 4 5 9 11 13 14 14 14 14 15 13 15 25 23 28 32 30 29 23 22 25 25 25 24 23 22 23 22 22 23 22 22
13 14 15 18 12 11 12 10 10 7 11 10 9 12 6 3 6 6 7 8 9 12 13 15 19 18 15 16 21 24 21 20 27 29 27 21 25 23 25 27 26 24 23 21 22 24 23 23 22
17 13 21 10 8 8 4 8 13 9 15 15 15 15 10 8 9 10 10 9 6 7 9 12 12 23 21 21 22 25 23 24 25 29 24 25 25 28 27 28 30 26 23 23 24 24 24 23 25
21 19 21 9 9 12 9 15 13 12 15 14 13 13 10 10 11 12 10 8 6 6 6 9 12 13 19 23 24 21 24 25 26 28 27 26 26 32 29 31 29 27 26 26 25 26 24 18 20
20 25 21 23 10 12 14 19 20 15 16 14 12 14 11 11 11 11 10 8 8 9 8 9 11 14 13 13 16 20 23 27 29 26 24 21 37 37 36 32 29 33 29 29 28 26 18 18 18
20 21 24 18 18 18 17 20 20 24 20 18 10 11 10 11 10 9 9 9 8 9 9 9 10 13 13 13 15 19 21 24 24 28 27 22 46 45 40 33 30 31 23 24 25 19 20 17 16
18 20 23 26 20 20 18 19 23 27 18 9 11 12 12 12 11 10 10 10 11 9 10 12 14 13 11 11 13 16 21 26 28 28 31 42 41 44 39 39 32 28 24 22 21 19 19 17 15
21 19 20 20 21 20 19 21 23 27 16 13 13 13 14 13 12 12 11 12 11 9 10 13 16 13 13 12 13 14 16 20 24 27 41 46 59 45 41 35 35 28 25 24 22 21 18 16 16
13 18 19 20 23 21 17 20 22 17 12 14 13 14 15 15 14 13 12 13 12 12 10 12 14 14 10 9 10 12 16 20 25 42 54 48 44 43 41 33 30 27 28 25 21 20 18 16 16
17 17 19 21 11 10 13 17 21 11 14 14 14 15 16 16 16 15 14 14 13 10 11 14 16 15 11 12 13 16 19 32 39 45 42 40 44 42 39 35 35 33 32 30 27 22 19 16 15
20 20 19 20 14 13 16 19 19 15 17 17 17 14 17 17 18 17 16 14 12 11 12 13 14 15 13 16 15 16 26 32 33 45 47 46 48 41 38 34 28 26 21 19 16 18 18 16 14
22 23 18 12 3 8 14 17 18 17 21 15 19 17 17 18 16 18 18 16 14 13 12 14 16 17 16 15 16 19 34 38 39 39 40 39 38 41 38 36 28 26 28 23 21 23 22 17 15
25 23 21 17 9 6 17 17 16 17 17 23 19 20 19 18 17 19 19 18 16 14 14 15 16 17 15 17 19 21 37 40 46 46 45 43 39 37 33 33 36 36 32 27 28 24 20 15 17
22 23 21 19 15 7 16 20 21 19 24 21 22 16 16 17 19 21 21 20 17 16 16 16 20 19 18 16 20 26 32 45 46 44 43 37 38 42 36 38 42 36 29 29 25 24 20 16 16
21 19 22 18 15 14 17 15 16 9 14 18 18 18 18 17 18 22 23 23 21 18 17 18 20 21 23 24 25 30 37 50 47 45 46 42 40 41 44 39 42 39 31 27 24 21 20 18 15
21 18 20 17 13 17 21 11 13 19 17 14 14 20 22 18 19 22 25 23 21 19 20 19 23 22 23 28 26 29 35 45 47 45 45 47 46 43 40 39 35 37 36 30 30 22 21 22 18
18 17 13 12 13 15 18 16 14 14 15 16 11 10 13 18 18 21 23 22 22 20 21 20 23 25 26 31 32 29 35 42 45 46 44 46 44 47 46 40 34 35 36 31 33 33 23 22 23
19 13 9 10 11 12 14 13 15 5 1 6 6 10 13 14 17 21 25 27 25 25 23 22 24 26 27 32 35 31 32 41 47 47 47 48 50 48 47 43 40 38 34 34 35 28 26 26 24
17 18 9 14 11 12 18 7 11 12 9 7 5 7 10 12 16 22 26 27 27 27 25 24 25 25 28 30 35 34 34 34 40 51 53 53 56 55 50 47 42 37 36 39 39 33 29 29 25
13 18 19 9 14 5 8 10 4 8 7 8 2 8 14 17 16 21 25 28 28 28 28 26 25 25 28 31 32 35 35 33 35 38 57 53 55 55 53 50 53 52 49 46 44 38 35 36 32
17 12 9 8 6 12 11 13 7 10 10 8 4 1 2 5 10 19 24 28 29 27 27 26 26 26 27 28 31 32 33 35 34 33 47 56 57 55 51 57 55 55 48 46 46 43 38 42 40
17 19 13 14 15 4 3 5 6 7 3 10 8 4 7 3 4 15 21 25 28 28 28 28 28 28 29 29 29 30 33 36 34 34 35 43 44 50 48 48 57 54 50 49 48 50 44 40 37
20 20 20 8 11 11 10 4 5 9 6 11 9 4 1 2 2 6 15 22 27 30 29 30 29 31 33 31 32 34 32 32 35 40 41 43 43 43 46 44 43 49 51 50 47 48 42 38 39

GFSSGP_850_spd_084.txt.gz
Wind_Speed
7 4 1 12 6 8 15 14 8 6 1 7 8 6 13 12 10 4 6 4 7 8 8 7 11 20 18 17 17 19 19 19 21 20 18 19 18 18 17 17 18 19 21 23 22 21 21 22 23
5 5 8 10 9 12 10 11 5 2 9 9 4 7 8 9 10 14 7 3 3 6 4 9 9 20 19 16 15 17 19 22 23 21 21 21 20 19 17 17 19 22 22 22 21 20 22 22 21
7 7 10 7 13 14 14 7 4 7 5 3 5 5 8 9 11 5 2 3 3 4 7 10 11 13 19 17 14 17 21 25 24 24 24 23 22 20 18 18 19 22 21 21 20 20 21 22 21
5 10 10 7 16 20 6 8 5 1 5 4 7 8 5 2 5 5 4 1 2 4 7 8 10 8 15 16 15 16 21 25 25 27 26 26 24 21 18 19 21 22 21 18 19 19 20 21 20
10 11 11 16 21 22 7 3 6 9 3 4 6 11 1 10 7 3 2 6 5 9 7 12 12 12 14 16 19 19 22 15 18 24 29 29 25 25 23 22 23 22 19 16 14 20 20 18 19
12 17 13 14 21 7 7 6 2 7 13 5 7 13 1 9 8 5 6 5 9 8 9 11 14 13 15 20 18 21 29 32 35 23 18 28 29 26 25 23 23 21 18 12 15 21 21 20 26
15 12 17 20 20 21 8 13 6 10 9 8 7 4 5 11 10 10 7 8 9 9 10 8 12 17 18 22 25 25 26 29 31 28 34 31 30 28 26 24 24 21 15 12 18 22 23 24 32
21 12 19 18 17 17 5 14 6 5 12 1 4 5 3 10 10 7 8 7 9 8 9 7 13 15 15 13 12 21 23 20 22 17 23 31 27 24 25 22 21 18 16 18 22 23 23 26 32
23 13 15 20 22 16 14 8 8 13 8 14 9 13 10 8 8 8 9 9 10 7 8 14 11 14 12 12 14 16 15 16 5 15 22 26 24 27 22 23 22 20 18 23 23 22 23 26 29
18 14 21 20 21 11 12 9 5 9 12 16 19 16 11 10 10 10 11 8 12 12 6 11 15 15 13 14 16 17 16 13 14 14 26 28 20 26 16 21 22 21 24 23 23 23 24 26 27
26 19 20 24 26 6 15 13 11 14 15 16 11 3 9 13 13 12 12 12 13 11 6 8 15 12 16 16 14 11 12 16 18 22 27 26 25 24 28 24 25 25 25 24 25 26 26 28 32
23 27 27 25 25 20 10 22 13 18 18 11 14 11 8 13 11 12 11 8 8 7 6 7 11 12 14 17 17 17 16 18 19 26 32 27 28 25 32 29 29 29 26 26 27 27 24 31 31
25 23 26 28 30 21 19 16 18 21 19 18 18 10 11 15 11 11 9 9 8 9 11 7 9 14 15 12 11 15 19 21 23 28 31 30 28 29 32 30 33 27 28 28 29 25 22 26 21
27 27 27 29 24 28 19 18 21 25 21 23 19 11 13 14 14 12 11 11 10 9 12 11 11 11 13 13 11 13 18 20 22 30 32 31 29 26 35 37 31 33 31 30 27 22 22 21 17
30 22 21 22 21 21 27 21 20 25 23 24 16 14 15 15 14 14 13 14 13 11 12 12 12 13 14 14 15 16 18 21 24 26 28 31 33 31 42 38 36 31 28 31 21 24 22 21 19
19 19 19 21 22 24 22 21 19 28 27 24 17 18 16 16 15 14 13 13 13 12 13 15 14 12 14 14 15 16 16 16 20 24 27 28 34 39 48 46 41 27 28 27 26 26 22 20 19
17 17 21 21 23 21 24 22 20 26 10 14 19 18 17 17 16 15 15 14 14 15 14 17 12 12 13 11 11 9 11 12 13 16 24 40 46 53 51 43 40 34 34 27 29 25 22 22 20
20 19 20 20 21 21 16 16 16 15 18 19 20 21 20 21 19 18 16 16 16 14 14 16 14 14 13 12 10 8 10 10 19 33 41 52 52 49 45 43 36 32 32 30 29 27 24 22 18
18 15 19 22 22 19 16 15 16 16 19 18 23 21 17 18 20 23 21 18 16 16 17 19 18 17 18 16 14 12 14 21 28 36 35 37 38 40 43 43 33 28 29 32 30 27 24 23 21
20 21 25 24 24 8 11 15 15 16 15 18 19 18 21 21 20 25 24 21 20 19 18 20 17 17 20 16 16 16 17 29 33 33 43 44 43 37 28 40 31 29 30 30 27 25 25 25 22
21 23 21 24 22 20 12 16 18 19 20 23 22 22 20 17 23 29 27 25 23 22 21 18 18 19 21 18 18 19 27 32 34 38 41 39 33 36 41 40 33 31 33 33 32 30 27 27 27
23 21 21 20 19 14 15 13 17 18 22 23 21 19 21 15 18 29 30 27 26 24 22 20 23 22 22 23 22 27 34 37 37 39 37 37 35 38 39 39 36 30 33 33 31 29 29 25 28
26 19 12 19 21 20 20 12 14 13 14 11 13 22 21 20 18 24 30 29 26 24 24 23 22 25 25 25 25 25 31 36 39 41 41 39 38 36 32 36 35 39 39 37 32 31 28 27 25
18 24 14 18 16 18 17 15 14 15 17 12 10 15 19 24 25 22 28 27 26 26 25 26 26 28 29 28 26 26 31 41 44 45 45 43 38 39 43 36 38 43 41 34 34 32 30 29 23
16 12 3 5 10 13 16 15 16 12 18 10 8 11 8 10 20 21 29 30 29 30 28 26 27 29 31 32 31 27 30 37 45 47 47 48 46 46 49 47 43 38 43 42 34 33 30 27 23
18 16 6 6 4 10 19 12 15 17 14 7 8 4 5 15 17 19 29 30 30 32 31 28 25 30 32 33 33 30 30 34 40 47 48 47 50 50 48 48 46 44 40 41 39 33 30 30 35
8 15 19 10 10 6 7 20 2 5 6 7 6 7 10 12 17 20 25 32 31 32 33 30 28 29 29 34 37 36 34 34 39 44 48 48 47 47 49 49 46 45 42 41 42 39 37 36 34
16 3 6 4 4 4 8 15 7 11 6 5 4 3 2 3 13 24 23 33 32 31 31 28 29 32 29 35 37 41 37 35 34 38 47 50 49 50 51 52 51 49 49 46 47 43 39 37 40
14 10 4 3 6 1 3 4 8 5 7 3 7 11 8 5 5 3 17 27 30 29 31 31 29 29 32 29 34 40 43 41 38 38 41 49 52 53 54 54 54 52 52 49 48 45 44 45 46
23 19 16 3 4 6 2 5 9 2 6 7 8 19 12 7 4 2 11 21 28 29 30 32 32 33 33 32 30 32 39 42 43 40 41 42 46 57 57 56 58 56 56 57 57 57 54 51 45

GFSSGP_850_spd_087.txt.gz
Wind_Speed
6 3 0 4 3 3 5 8 4 3 5 16 13 9 3 6 1 3 7 6 5 2 2 1 4 12 16 16 17 17 17 17 17 15 15 16 17 18 17 17 18 20 21 22 22 22 23 22 19
6 8 3 4 3 2 6 9 3 9 13 12 8 4 0 5 17 16 6 2 7 5 2 2 3 11 15 14 15 16 17 18 19 18 18 18 19 18 17 17 19 20 21 22 23 24 24 24 24
8 6 3 4 3 6 5 4 8 10 15 8 2 7 4 7 17 12 3 1 5 4 3 5 2 5 15 14 12 14 16 18 19 20 20 21 20 18 18 18 21 23 22 22 24 26 27 26 24
7 5 6 1 11 17 14 5 4 7 11 8 4 2 7 8 11 7 4 1 3 5 8 7 5 5 8 17 18 15 16 17 18 18 17 23 24 21 20 19 22 23 21 23 24 25 26 25 24
7 6 3 5 12 14 13 7 7 2 8 14 8 3 9 10 9 8 5 4 4 6 5 6 7 9 10 14 17 20 19 25 29 27 24 19 26 23 23 20 23 24 22 21 24 26 26 25 25
4 5 2 6 14 14 11 14 9 4 2 9 6 4 8 15 12 11 7 6 8 9 8 8 11 13 14 14 19 21 24 25 25 25 30 28 21 29 25 23 24 25 22 16 25 27 26 25 28
8 2 6 9 15 19 8 17 9 6 7 3 2 4 14 15 9 8 7 8 11 12 11 12 12 14 15 15 17 19 19 19 22 20 32 34 25 28 25 24 23 24 19 14 25 26 25 29 30
18 3 9 12 11 16 4 11 16 10 4 7 4 3 8 23 16 13 11 8 7 9 12 9 11 12 14 15 17 19 19 19 14 23 25 31 25 28 27 24 21 20 17 15 24 26 29 35 30
21 6 10 16 14 15 1 3 11 11 8 4 8 16 14 22 18 15 9 8 8 4 8 11 13 12 12 15 15 14 16 15 15 17 21 25 25 32 28 23 24 21 16 15 25 28 32 37 33
10 7 16 12 17 10 15 5 13 6 10 8 15 16 17 18 18 12 9 11 10 12 11 12 14 14 13 14 13 12 12 11 13 8 9 22 38 30 27 22 19 19 19 22 27 29 34 36 34
19 17 14 22 31 23 15 11 7 7 4 11 13 16 22 20 15 12 10 14 10 10 10 7 14 14 14 12 12 12 16 14 16 15 10 24 30 34 25 23 21 20 21 26 27 29 34 34 30
15 21 26 28 34 26 7 18 9 7 8 4 4 2 19 19 19 17 18 18 16 12 10 8 13 14 15 16 14 11 12 15 18 17 20 25 32 35 28 21 25 22 25 26 28 29 33 33 32
17 18 30 31 33 30 28 12 13 17 21 18 14 13 12 13 10 17 19 16 14 12 10 6 11 14 15 18 17 17 15 15 14 19 25 33 36 38 22 33 33 28 26 27 29 29 33 37 28
21 23 25 30 27 28 17 10 12 21 21 23 24 19 14 12 10 18 18 17 14 13 10 8 6 13 16 15 14 14 18 20 18 19 26 32 33 33 31 33 35 34 28 29 30 31 38 30 29
27 17 18 19 17 10 20 10 16 27 24 25 24 24 21 15 13 18 21 19 18 14 12 13 10 10 13 15 17 17 17 21 23 24 27 33 34 32 33 35 38 37 32 32 32 31 38 25 26
9 11 15 8 11 14 7 16 13 27 23 29 32 25 20 15 15 19 19 18 18 15 15 15 14 13 15 19 18 17 17 18 23 26 31 34 36 33 36 35 39 39 35 37 31 30 32 27 24
2 8 13 12 13 14 12 19 20 32 31 25 31 29 22 21 21 20 20 19 17 14 17 19 16 12 14 18 17 20 21 18 21 30 28 31 34 38 42 41 40 39 39 36 32 31 29 28 27
6 8 9 11 17 14 16 18 21 27 18 23 23 22 24 32 30 28 24 23 19 17 19 17 15 13 14 17 16 13 12 13 12 21 28 30 35 40 38 44 43 39 43 34 39 34 29 26 28
13 15 18 12 13 13 16 17 19 11 12 12 23 28 33 33 34 32 29 28 26 23 23 21 20 17 17 17 15 12 11 9 8 11 18 28 31 35 52 56 51 45 42 35 39 34 30 28 25
9 14 24 21 20 14 19 18 11 8 7 14 27 32 36 30 37 36 35 32 30 28 24 24 20 18 17 18 16 16 10 9 13 21 28 37 46 49 54 59 49 47 39 39 38 38 35 32 29
12 19 20 23 23 18 21 15 21 6 9 19 22 35 35 38 38 41 39 35 31 27 27 25 21 17 18 20 18 15 12 15 21 25 29 35 42 45 46 44 38 42 39 39 39 38 35 34 32
17 15 18 19 11 9 13 14 16 8 14 16 24 24 24 29 35 44 42 37 34 30 27 23 20 19 21 23 21 21 17 24 26 31 31 33 36 39 40 43 41 42 38 35 36 34 34 36 32
14 15 15 10 12 17 23 11 14 14 13 11 18 36 33 26 33 45 43 39 36 30 26 24 21 20 24 25 24 22 20 23 32 34 34 33 37 42 39 34 39 40 41 39 35 36 35 32 33
11 14 10 9 10 9 19 10 10 15 15 15 10 22 38 30 35 39 43 39 35 29 25 24 22 21 25 26 25 23 25 28 31 34 36 40 38 36 31 35 35 33 35 39 39 37 34 33 33
12 8 4 6 5 7 7 11 15 9 17 23 18 21 37 35 34 44 43 39 35 31 28 26 25 24 29 28 28 26 23 28 26 31 40 42 38 36 39 40 38 36 38 38 36 34 32 33 32
9 10 3 4 3 3 11 7 9 14 20 24 16 13 20 28 33 44 43 39 35 32 29 27 26 26 32 32 30 28 25 25 25 28 35 42 41 41 40 37 39 42 42 38 36 35 32 32 32
4 7 13 5 3 2 5 6 10 14 22 8 8 12 11 25 35 40 40 37 37 31 29 29 28 27 33 34 31 30 28 29 29 31 34 41 43 40 43 43 38 38 40 41 39 36 36 38 35
9 7 5 3 3 4 5 6 2 7 5 7 7 9 16 18 30 37 38 40 36 31 29 27 26 27 28 36 33 32 30 30 30 31 36 43 45 41 41 45 46 44 41 40 38 42 41 41 41
8 4 5 2 3 2 3 3 2 10 10 11 8 16 14 11 8 14 38 38 37 32 31 28 27 27 29 30 35 34 35 33 29 33 34 36 45 46 41 45 46 51 49 47 45 44 46 44 42
8 11 7 3 5 3 0 4 9 17 16 6 7 23 27 25 9 10 25 34 36 34 33 31 28 27 29 30 29 37 38 37 34 34 33 37 38 43 46 45 47 48 49 49 50 50 49 48 48

GFSSGP_850_spd_090.txt.gz
Wind_Speed
2 4 3 3 3 4 4 6 5 6 1 5 5 7 9 1 1 4 14 9 10 7 6 4 7 14 17 19 19 18 19 19 17 15 15 17 18 18 18 18 18 19 21 22 23 22 23 20 19
6 7 2 1 3 2 5 5 8 7 9 10 9 10 5 2 8 13 13 12 10 7 5 6 5 10 17 18 19 19 19 19 18 17 16 18 20 20 19 18 20 21 22 23 23 23 23 21 20
8 8 1 3 4 6 5 1 3 5 14 9 6 3 12 12 12 14 10 12 10 5 5 6 5 6 13 17 17 18 19 20 20 19 18 18 19 20 20 21 22 23 22 22 25 25 24 22 23
8 5 2 2 11 7 6 6 6 5 6 7 9 6 8 10 15 10 10 10 8 5 5 5 6 7 9 16 17 17 20 21 21 21 19 19 20 22 21 21 24 25 24 25 26 27 27 27 27
10 3 1 3 9 7 5 12 22 9 6 9 11 5 10 17 13 15 13 10 7 6 9 9 10 11 11 14 18 19 21 24 26 28 27 28 25 19 19 24 27 27 26 26 28 30 29 28 27
5 2 2 5 11 7 7 22 23 7 10 12 8 10 7 14 17 16 13 12 9 10 13 13 14 14 15 15 18 21 24 24 27 30 28 25 21 19 20 21 27 27 26 27 31 31 29 28 25
6 4 5 5 8 9 8 18 6 8 6 8 9 4 12 22 17 16 14 14 9 10 13 14 14 16 16 17 19 21 23 23 25 29 28 24 25 23 19 23 26 28 22 28 32 33 31 29 26
6 4 3 6 4 11 5 10 11 7 3 8 10 6 7 25 23 19 16 12 8 10 13 13 16 16 17 18 19 19 19 20 20 19 21 21 26 35 28 28 30 27 23 29 31 32 31 28 29
7 2 5 10 7 8 14 8 11 8 7 12 11 13 13 23 27 23 20 14 11 10 9 10 14 14 13 16 17 17 17 18 17 18 17 23 26 38 41 36 32 28 22 27 30 31 31 28 24
7 5 10 6 9 9 18 9 15 6 7 8 10 12 12 23 29 26 22 16 11 10 9 10 11 15 15 15 17 17 18 18 15 15 15 23 24 27 40 34 29 25 18 20 31 30 34 27 26
7 12 6 16 21 21 18 20 23 7 4 12 16 14 19 32 30 26 20 14 7 12 10 9 12 14 15 14 15 17 17 16 14 13 12 15 24 34 36 31 29 28 25 28 31 34 37 29 28
7 7 12 20 29 22 12 31 11 15 15 7 6 10 24 31 29 25 20 16 15 15 11 9 11 14 16 14 13 14 17 17 16 14 10 12 31 29 28 32 30 26 25 30 35 37 40 34 28
8 10 23 29 29 27 32 23 24 20 25 23 14 11 22 28 28 23 20 15 16 17 11 8 9 14 16 17 17 16 14 14 18 18 17 24 22 31 38 35 34 30 27 32 36 38 42 38 30
8 16 23 25 26 25 14 21 17 23 30 21 20 18 19 25 26 26 27 24 23 19 13 9 8 12 15 18 20 19 18 17 16 20 27 31 30 37 36 35 34 29 26 32 35 38 42 37 32
16 13 14 13 11 8 17 21 8 27 31 24 26 26 24 23 27 24 28 27 24 21 14 10 10 9 13 14 17 19 19 21 19 19 26 29 34 40 40 31 35 32 34 34 34 37 41 38 28
4 4 6 5 8 7 8 24 8 24 21 24 28 33 30 27 25 20 25 26 23 21 17 12 12 11 13 15 18 20 19 20 20 22 24 27 34 41 47 32 34 33 32 34 37 39 43 36 26
3 8 12 7 3 6 8 19 7 23 25 25 33 34 34 29 26 23 27 27 25 24 20 16 14 15 15 12 16 19 18 20 22 22 26 38 40 43 46 36 38 37 36 37 39 44 44 39 27
6 6 5 3 3 7 11 14 9 26 22 24 33 34 37 35 34 32 31 30 28 25 21 16 16 18 17 17 17 21 22 26 26 29 25 34 34 37 41 36 39 41 39 41 40 48 39 40 30
4 7 9 6 5 7 13 13 15 18 24 22 31 33 37 39 39 36 33 34 31 27 25 22 20 20 20 19 19 20 21 19 21 25 32 33 41 47 51 45 48 48 43 45 43 44 41 33 30
6 3 7 5 5 12 16 25 19 23 20 26 27 29 31 40 34 36 39 38 35 31 27 24 21 20 19 19 17 18 15 16 15 17 30 34 35 38 41 40 36 47 48 42 41 39 38 34 36
6 5 3 5 14 11 5 22 21 24 17 26 25 32 37 38 36 36 45 43 39 34 31 27 22 20 20 17 19 17 16 12 12 11 18 27 33 33 45 43 50 52 50 45 46 40 38 36 36
12 6 5 7 6 5 2 11 17 16 20 19 17 20 26 32 35 39 48 47 42 37 32 27 22 21 19 17 21 18 18 15 15 11 14 23 31 38 40 43 54 55 52 44 47 41 41 40 38
6 4 7 1 8 9 14 7 13 12 18 19 15 22 24 27 34 41 53 49 44 39 34 28 24 21 20 19 21 20 18 14 18 17 17 22 28 34 40 50 53 47 45 40 45 43 41 41 38
2 4 5 6 8 10 12 11 11 13 16 17 16 21 28 26 35 44 52 51 47 40 34 29 26 24 22 21 24 21 21 19 23 24 20 24 28 30 35 35 36 44 43 42 41 40 40 37 37
5 5 3 5 6 11 5 13 17 12 16 15 17 22 33 26 31 41 46 51 47 42 36 31 28 27 23 22 25 24 23 22 23 27 26 29 33 35 37 37 38 44 44 45 45 41 40 39 40
6 5 3 6 4 3 10 7 5 21 22 32 34 29 39 26 35 46 51 54 50 44 38 34 30 28 25 23 24 24 24 25 27 28 28 31 31 34 37 38 37 35 38 41 41 42 40 40 37
4 4 5 5 2 1 4 5 5 7 12 13 20 22 16 26 40 44 47 51 48 42 40 34 30 28 25 24 23 25 23 22 27 27 26 29 36 38 38 35 32 35 37 38 43 42 41 40 38
8 2 2 3 3 3 4 3 3 10 9 13 17 10 7 24 34 40 45 47 43 43 37 33 28 26 24 25 25 26 28 26 25 25 29 31 34 41 38 35 36 39 38 37 40 42 39 38 36
3 3 4 4 3 1 3 2 6 11 11 14 16 26 12 12 26 35 39 43 43 39 37 33 30 27 25 25 27 28 30 30 29 29 31 30 32 38 41 39 39 42 44 44 44 43 41 40 39
8 4 4 3 3 3 2 3 6 12 15 16 18 31 17 23 11 28 34 38 38 36 35 31 28 28 26 25 28 29 29 32 32 32 31 31 33 34 38 42 41 43 43 44 46 48 48 47 46

GFSSGP_850_spd_093.txt.gz
Wind_Speed
7 5 3 0 3 4 4 7 3 6 3 5 5 4 5 3 4 4 17 14 11 10 9 11 15 20 22 21 21 21 20 19 17 14 15 18 21 22 21 21 20 20 23 24 24 25 23 21 21
6 5 3 3 4 1 5 5 7 7 9 5 11 12 2 1 8 13 16 15 11 11 9 9 12 17 21 21 21 21 21 20 19 17 17 20 22 22 20 19 19 20 22 24 25 23 23 21 21
8 7 2 4 4 6 5 4 1 7 7 7 5 3 7 4 10 18 12 16 16 13 10 9 9 11 17 20 21 21 20 20 19 19 19 19 20 20 19 18 19 20 21 22 23 24 23 23 21
9 5 2 3 8 7 6 4 4 9 17 12 4 4 5 14 12 14 14 14 16 12 10 10 10 11 14 18 20 21 21 21 21 21 19 19 20 21 20 20 20 21 22 22 24 25 25 23 22
11 3 1 3 7 5 5 12 10 8 5 16 12 6 3 9 15 13 14 14 12 11 10 11 11 12 14 17 20 21 22 22 22 22 20 22 21 20 20 18 19 18 20 22 24 26 28 25 26
5 3 2 6 9 3 5 16 16 14 23 19 4 9 6 11 14 16 15 13 11 9 10 13 14 15 16 18 20 21 22 25 26 26 27 27 23 18 20 17 17 21 22 25 26 29 29 27 27
6 4 5 4 6 6 5 6 4 6 7 10 9 6 4 15 18 19 16 13 12 11 13 14 16 16 17 18 19 21 22 22 23 25 27 26 25 24 10 16 20 23 24 25 30 32 29 28 27
6 4 4 6 5 9 5 4 13 4 8 9 13 6 6 22 23 20 18 15 14 12 11 12 14 16 19 20 20 22 23 22 24 26 29 29 28 22 27 29 27 26 27 29 33 32 29 27 25
9 2 6 11 7 6 3 7 10 16 10 7 12 7 9 21 27 24 22 20 19 14 10 10 10 14 17 19 21 21 21 21 22 23 29 31 24 21 26 31 31 31 30 32 34 31 29 27 24
6 6 11 5 8 5 8 8 17 11 20 14 8 12 13 19 30 30 28 25 20 15 12 10 10 13 14 15 17 19 20 20 19 20 22 25 27 27 28 35 32 37 29 33 36 34 30 28 25
8 12 5 9 16 13 7 12 13 6 9 20 16 13 12 22 32 31 29 24 18 14 13 11 10 12 13 14 16 19 20 20 20 20 21 22 24 28 33 33 31 37 37 36 37 37 34 28 25
5 9 19 14 21 11 7 23 6 12 25 32 27 9 13 24 33 34 31 25 22 19 13 12 10 12 14 14 14 17 20 20 20 19 20 21 24 28 32 40 40 40 32 39 38 36 33 28 26
9 3 14 19 22 20 24 17 15 26 35 37 31 19 17 21 27 34 31 25 22 22 17 13 9 11 14 16 15 15 18 19 17 17 15 9 22 22 25 35 42 30 28 36 39 36 33 28 27
5 13 19 18 23 17 14 20 15 23 33 31 30 28 24 23 25 35 33 28 27 24 19 14 10 10 12 16 17 17 17 15 17 19 15 14 15 15 16 25 30 34 32 34 38 39 36 33 30
14 15 10 5 6 7 13 20 10 26 29 29 29 25 26 27 32 34 32 32 30 26 22 17 12 10 12 16 18 20 19 18 16 17 20 24 25 23 27 28 33 36 31 34 39 43 35 34 31
4 3 2 4 9 9 11 30 8 16 21 26 26 26 25 27 33 32 35 31 31 30 27 20 16 13 14 16 17 20 21 21 20 18 22 29 27 27 33 35 35 35 34 37 41 45 41 35 31
3 6 5 4 6 5 9 18 3 8 16 20 25 29 31 29 25 33 37 31 32 35 30 25 20 17 16 16 16 18 18 20 19 20 22 28 34 31 35 38 34 36 35 38 40 45 45 38 30
6 5 2 4 3 3 7 13 4 14 7 15 22 27 30 35 35 31 37 33 34 37 32 26 22 19 19 17 16 18 20 22 22 24 23 23 30 35 38 41 34 38 37 42 44 44 45 40 33
4 4 4 3 5 4 4 12 14 11 15 18 20 26 30 37 39 32 39 37 36 39 34 29 26 23 23 21 19 19 22 23 25 25 28 22 31 34 42 45 43 38 39 41 43 44 48 39 31
6 7 9 5 5 5 6 16 18 16 8 19 23 27 32 39 29 29 40 41 40 40 35 32 29 25 24 21 17 17 18 22 21 26 30 33 28 36 36 46 44 37 38 40 41 43 45 38 34
4 7 4 7 4 6 5 18 14 19 13 18 23 26 34 35 31 29 41 44 44 43 38 34 31 26 25 20 19 19 20 19 18 23 26 30 35 36 30 49 44 38 44 46 43 44 47 41 35
4 5 6 4 2 7 3 16 22 13 12 12 19 21 30 30 24 32 40 46 46 45 40 35 31 27 25 23 21 19 18 18 18 17 20 25 32 35 36 28 34 42 42 46 45 46 47 40 39
5 4 5 7 3 2 5 3 17 7 14 16 10 17 23 27 29 32 37 45 49 47 42 36 32 28 25 23 21 18 18 16 13 11 11 14 23 31 34 34 41 45 40 49 47 45 49 43 40
1 2 3 3 0 8 11 11 13 9 13 13 14 19 25 29 23 32 34 44 52 49 43 38 33 30 26 25 21 20 19 17 15 17 15 14 16 21 28 34 35 51 49 56 49 51 42 44 37
3 3 2 4 5 6 5 12 17 23 19 17 17 20 26 24 21 23 32 41 53 52 46 41 35 32 28 26 22 22 19 18 16 15 17 17 18 19 20 30 42 44 46 47 42 42 46 41 39
5 5 3 4 3 3 8 6 5 12 14 13 18 19 30 36 34 25 29 43 51 54 49 43 37 34 29 27 23 22 22 20 18 17 16 17 18 19 21 25 31 39 35 43 46 45 44 45 45
3 7 2 5 3 3 4 6 5 14 17 18 15 21 25 29 32 32 36 42 46 55 51 44 38 34 30 28 24 24 25 23 23 21 20 19 19 22 27 30 30 30 37 42 44 44 46 46 42
4 3 4 3 3 3 4 4 2 12 16 17 18 15 21 16 16 27 39 43 45 52 47 43 35 32 28 28 24 23 24 25 22 25 26 25 23 25 27 32 31 31 38 40 42 47 47 45 44
3 3 3 2 4 2 3 3 4 6 11 15 15 26 27 24 9 22 31 37 41 45 45 41 35 31 28 27 25 24 23 22 21 25 28 28 28 29 31 33 36 35 35 37 39 39 39 45 42
3 3 4 2 2 3 2 5 3 8 11 16 21 32 29 23 9 17 20 28 33 38 41 38 34 29 27 26 25 24 24 24 25 26 27 27 29 28 29 35 39 37 34 35 38 39 40 45 45

GFSSGP_850_spd_096.txt.gz
Wind_Speed
9 7 6 4 3 5 3 6 3 4 3 4 3 4 6 5 6 4 16 14 13 10 9 13 19 22 21 19 18 18 17 15 15 16 17 21 24 24 23 23 23 22 20 22 23 22 21 19 20
10 9 7 4 4 2 5 4 6 6 8 3 3 5 2 1 7 13 17 16 13 12 11 11 15 20 22 20 19 19 18 16 15 15 18 23 25 24 24 23 21 21 21 21 23 22 21 20 22
11 10 5 4 4 6 6 6 6 3 3 5 1 4 3 3 9 21 13 15 14 14 12 12 14 17 20 21 20 19 19 17 16 17 19 22 23 23 25 24 21 21 20 22 23 23 21 22 22
9 5 4 4 8 6 6 5 3 7 4 3 4 5 3 8 9 15 15 16 15 14 12 12 13 15 19 21 20 20 19 19 19 19 20 21 24 24 24 22 20 18 18 21 22 23 22 22 22
10 3 3 2 6 5 6 9 10 5 3 9 6 4 3 11 11 17 17 18 15 14 13 13 13 14 17 20 21 21 21 21 22 18 20 25 19 15 20 18 15 15 17 20 23 23 23 23 21
3 3 2 7 6 4 5 13 8 6 17 19 7 6 5 14 16 17 17 16 14 12 12 14 15 15 17 19 21 22 22 22 23 24 25 23 25 22 20 22 14 14 17 20 23 23 24 23 22
6 4 5 4 6 4 5 8 4 7 10 9 9 9 7 17 19 17 18 16 15 14 12 13 14 15 17 18 19 20 22 22 23 23 25 26 28 27 31 23 21 15 19 23 25 26 27 26 26
5 4 4 6 12 7 5 4 3 5 2 7 11 6 7 17 23 20 20 18 18 16 13 11 12 14 16 18 19 21 22 22 23 22 23 24 26 28 23 20 22 22 24 26 26 28 29 29 26
7 1 5 6 6 5 2 4 2 11 4 15 6 8 7 10 25 25 24 23 21 20 15 12 13 13 16 17 20 22 24 23 21 23 25 27 29 30 27 27 27 20 30 27 29 31 31 29 26
6 5 9 5 5 4 5 3 6 6 11 12 8 9 13 12 26 29 29 28 24 23 17 12 13 14 15 14 16 24 23 23 24 24 25 28 28 29 26 19 21 27 31 30 32 33 32 31 28
7 9 4 5 18 11 4 11 6 3 7 21 13 18 15 17 27 30 29 28 24 22 18 14 14 15 15 12 12 21 25 23 23 22 25 24 26 28 25 21 30 33 30 31 35 35 34 31 28
4 6 11 9 21 9 6 14 6 12 21 33 30 23 24 21 28 30 31 30 27 25 20 16 16 16 13 13 13 18 22 22 21 22 22 25 24 25 26 29 35 33 33 34 38 38 35 30 26
6 2 7 17 25 19 23 14 16 15 29 35 31 27 25 24 28 24 28 30 28 27 23 20 18 16 14 14 14 18 22 23 22 21 21 21 21 24 32 35 36 36 33 41 40 40 34 28 25
4 9 17 19 23 19 12 20 12 14 25 30 29 26 25 25 30 30 31 31 32 29 26 23 21 17 15 15 15 17 19 21 21 21 19 18 16 13 19 33 42 32 32 40 42 42 36 30 26
10 7 8 7 9 9 10 14 10 27 29 30 30 25 23 23 30 33 27 28 32 31 27 26 22 18 17 16 16 15 18 18 17 20 21 18 17 10 10 25 35 39 32 42 45 40 35 30 27
2 2 3 4 10 10 10 26 8 13 19 21 21 22 20 20 26 31 32 32 34 32 30 26 25 20 18 18 18 17 19 18 18 16 18 21 18 15 17 16 16 29 36 36 42 38 34 30 31
1 4 4 4 7 5 9 12 3 3 5 12 12 13 14 15 17 23 31 35 37 34 32 30 28 22 18 17 19 17 18 19 20 20 18 23 24 22 19 21 23 28 34 34 39 36 35 35 32
5 4 4 5 5 5 10 17 5 16 13 10 20 24 24 22 21 22 23 31 39 38 36 33 30 24 20 19 20 19 21 22 20 21 21 20 29 28 25 29 26 28 33 31 36 38 38 37 33
3 4 4 2 6 5 8 14 7 11 18 11 21 30 30 30 27 22 23 27 40 42 40 38 34 29 25 24 23 22 23 23 23 24 23 22 24 32 32 29 33 30 34 33 37 40 40 37 35
5 5 5 5 7 7 8 23 10 7 12 24 24 27 30 30 31 27 25 26 37 43 43 40 38 33 29 25 22 22 21 21 22 22 24 28 24 27 35 37 32 36 37 37 40 44 42 38 36
4 4 4 6 4 5 7 25 22 15 20 25 28 30 32 29 31 29 26 25 37 43 44 43 41 35 31 26 24 22 21 20 25 26 31 31 32 25 33 36 34 36 35 38 39 43 45 44 37
3 5 5 3 2 4 2 13 17 12 19 14 21 26 36 33 35 30 26 24 35 44 44 43 42 37 32 28 24 24 22 21 23 22 21 28 35 36 29 29 34 34 34 39 42 46 45 47 45
4 3 2 1 3 1 5 4 2 8 7 11 13 24 32 31 30 28 24 18 28 43 45 45 42 37 32 28 24 23 21 20 18 17 20 23 26 29 31 33 32 34 35 37 42 44 47 47 48
3 2 1 2 2 5 10 10 7 6 10 6 10 23 28 30 28 24 16 16 26 39 44 44 43 38 34 28 25 23 20 20 19 17 15 13 14 26 27 27 32 32 30 32 37 47 46 48 49
3 4 3 3 2 5 6 9 16 18 20 16 19 21 23 21 19 16 17 19 28 40 46 45 44 40 34 29 26 23 19 20 19 15 16 14 13 16 26 28 32 33 28 36 34 45 49 48 48
3 3 4 4 3 3 3 6 5 3 5 16 22 22 20 20 18 20 22 19 31 39 46 47 46 41 36 30 26 23 19 21 18 15 17 15 16 14 16 20 22 28 33 34 41 51 56 52 45
3 3 1 3 6 4 4 6 5 9 14 18 22 28 30 33 26 15 15 23 33 39 44 49 46 42 36 28 25 24 21 21 18 16 16 15 15 14 12 12 13 17 22 28 37 46 45 51 48
4 4 1 3 3 4 4 5 3 10 13 15 21 24 36 36 29 12 17 24 31 34 38 44 45 41 35 27 24 23 20 20 18 17 18 17 14 16 15 12 15 19 22 28 34 41 45 46 48
3 1 2 2 3 3 3 3 2 4 5 11 15 27 36 38 20 5 11 19 24 29 33 39 42 38 31 26 21 22 19 19 18 18 18 18 17 15 15 19 19 20 20 27 38 41 42 43 43
3 3 1 3 3 3 4 5 4 5 7 9 16 31 37 29 12 7 8 10 16 21 26 32 35 33 28 23 18 17 17 17 17 17 19 19 20 20 18 19 22 26 25 25 28 34 39 38 43

GFSSGP_850_spd_099.txt.gz
Wind_Speed
9 7 7 4 3 0 2 5 2 4 3 5 7 4 7 3 5 2 12 19 16 12 10 10 13 16 17 16 16 16 17 17 19 20 21 21 21 23 23 22 21 20 20 20 22 20 19 18 18
10 10 7 2 3 4 4 3 8 9 5 1 7 7 3 3 6 6 21 18 15 12 11 11 13 16 18 18 16 16 16 17 17 19 20 23 23 23 23 22 21 20 20 21 22 20 18 18 20
11 12 4 2 3 7 5 6 6 3 8 7 4 5 4 3 9 21 18 19 15 14 13 12 13 16 18 18 17 17 16 16 16 19 21 24 24 23 22 21 19 19 19 18 20 20 18 20 21
11 6 2 3 13 5 5 5 7 3 2 8 3 2 3 7 13 18 18 18 15 16 15 13 14 16 19 19 18 18 17 17 18 18 20 24 27 24 20 17 18 17 16 16 18 20 20 22 21
13 4 2 4 8 4 8 4 5 7 5 4 3 2 3 10 13 19 18 18 16 16 15 14 15 17 19 20 21 20 19 20 20 20 21 21 19 20 19 14 14 13 15 16 18 21 21 22 21
5 4 3 13 16 4 6 10 5 5 10 7 6 5 6 9 15 19 19 18 16 15 16 15 15 17 20 21 22 22 21 20 19 19 21 23 27 28 22 24 20 17 16 15 15 19 21 22 22
7 4 6 6 9 5 4 10 6 8 7 4 7 7 7 14 17 18 19 20 19 18 18 17 16 17 19 20 22 23 22 22 21 22 24 26 27 27 24 23 26 23 20 18 18 20 23 25 23
7 4 6 6 15 10 4 5 6 4 1 8 3 5 4 10 20 20 21 22 21 21 19 17 16 16 17 19 20 22 22 23 23 23 23 24 25 22 26 28 27 25 18 23 21 26 27 27 24
9 5 10 12 10 6 3 0 3 3 6 10 3 8 7 9 22 24 25 25 24 23 21 18 17 16 15 18 18 20 23 23 23 21 23 22 23 25 24 27 26 19 21 20 23 30 30 27 26
7 7 12 7 11 11 4 4 6 7 8 9 10 4 13 14 16 27 28 28 27 26 24 19 17 16 15 17 18 20 23 24 24 22 22 23 23 23 25 29 23 25 26 26 27 31 30 29 29
6 12 5 8 19 10 11 13 8 12 16 18 13 6 21 15 13 26 30 30 28 27 25 21 18 16 16 17 17 18 23 25 25 22 23 24 24 26 29 30 28 27 26 26 29 28 31 34 32
6 8 15 9 16 9 9 14 13 17 21 27 25 22 23 22 18 21 32 34 30 28 25 22 19 17 17 17 17 15 19 24 24 22 21 23 25 26 30 31 28 23 28 31 32 32 35 32 28
7 5 8 15 21 17 19 21 20 21 23 32 29 25 20 20 20 20 25 33 33 31 28 25 22 19 17 19 17 15 19 24 25 24 24 23 24 25 26 30 29 26 29 36 37 34 36 32 28
6 18 18 10 16 14 16 23 13 10 25 29 26 28 23 23 22 21 25 28 33 32 32 28 25 21 18 19 17 15 19 23 24 23 24 23 24 24 26 27 29 32 37 33 34 36 37 32 28
6 7 10 11 12 8 5 19 16 23 29 26 32 31 26 23 21 20 22 26 32 33 34 32 27 23 21 20 17 17 17 22 25 23 23 23 23 21 21 24 25 32 44 41 34 38 36 33 27
5 3 5 1 13 10 13 26 4 9 12 17 20 21 20 19 19 19 21 26 31 33 35 34 30 26 24 21 18 18 17 18 20 20 23 24 22 21 18 17 21 28 33 36 42 41 39 34 29
2 8 5 3 7 4 15 21 7 3 3 6 7 11 12 15 15 18 20 23 28 32 32 36 33 29 27 23 19 18 18 19 18 18 20 19 23 19 16 17 14 32 32 25 38 42 39 33 29
9 7 5 6 2 7 14 20 13 15 12 12 16 18 21 23 23 19 18 20 24 30 32 35 36 33 29 26 21 21 21 22 21 20 20 19 22 23 22 19 18 18 32 30 33 35 34 29 28
6 4 6 2 5 8 16 21 16 14 19 18 19 22 25 30 30 29 25 21 21 27 32 35 39 36 33 30 26 24 24 25 25 22 21 18 22 27 25 22 23 21 24 28 31 34 30 27 27
8 10 10 6 8 7 14 26 18 12 16 27 28 27 27 31 36 35 32 27 26 28 34 36 41 38 36 33 27 24 22 23 24 24 24 23 22 24 30 30 27 26 25 31 30 41 41 42 40
8 12 8 10 5 7 12 25 22 14 26 30 29 30 31 32 32 34 36 30 29 30 36 38 42 41 39 35 30 25 22 22 22 24 26 25 23 27 27 30 29 31 31 34 33 36 42 45 43
12 8 7 5 3 5 2 9 9 3 7 12 20 23 25 27 32 35 36 34 35 33 34 39 41 42 41 38 33 27 21 22 20 21 23 25 26 28 25 31 31 27 28 35 38 38 46 46 45
4 5 6 5 6 3 6 7 2 12 12 14 15 21 25 28 28 31 37 37 36 34 35 37 39 41 42 40 33 28 23 19 17 18 22 24 27 32 30 28 34 32 32 32 44 42 44 46 45
8 6 2 2 3 5 11 8 3 3 5 23 17 23 25 20 21 27 30 33 34 29 32 36 39 41 44 40 33 28 21 19 20 18 20 22 23 26 32 32 33 23 32 35 32 38 45 46 48
3 5 2 2 3 4 1 7 11 16 10 10 14 22 25 23 20 18 19 28 31 30 31 35 36 41 44 41 34 27 22 19 18 17 18 20 16 17 24 27 30 32 30 30 30 40 43 49 46
7 4 3 4 3 1 2 6 3 5 4 9 18 22 24 28 24 19 15 25 30 29 31 34 35 42 44 41 34 27 22 19 18 17 16 15 12 11 13 26 22 27 30 30 27 30 31 44 51
3 3 1 2 3 1 4 5 5 4 8 14 21 28 32 33 28 22 15 22 28 26 31 31 34 40 42 39 32 28 23 20 19 14 14 15 13 11 12 17 26 26 26 23 28 30 39 45 49
2 6 3 1 2 3 4 5 5 8 10 12 16 23 33 34 30 16 14 19 25 25 27 27 30 36 40 37 30 27 22 18 17 15 15 14 16 14 11 11 17 18 19 19 22 26 31 43 47
3 3 3 1 2 1 3 1 7 11 9 10 11 16 26 33 29 16 9 9 16 20 24 26 26 32 37 32 28 26 21 17 17 16 15 16 14 15 14 10 7 10 16 15 19 22 27 35 42
3 4 3 2 4 2 3 5 3 9 10 13 13 18 24 30 32 13 8 3 8 16 20 23 26 30 31 29 24 22 19 16 16 16 17 16 16 15 12 12 12 13 13 14 17 22 25 30 37

GFSSGP_850_spd_102.txt.gz
Wind_Speed
11 7 6 4 6 6 11 7 2 6 5 5 7 7 9 7 2 3 4 12 12 11 9 8 10 12 13 13 13 12 12 14 17 19 21 21 19 18 18 18 18 17 16 15 16 17 18 17 17
13 10 6 4 7 11 10 8 9 7 5 4 6 7 6 5 3 2 11 15 16 12 9 8 9 11 13 14 13 13 13 14 16 19 20 20 19 19 18 18 17 16 16 16 17 16 16 17 17
13 11 8 5 9 15 9 7 5 2 4 7 7 7 3 2 5 9 9 19 16 13 12 10 10 10 13 14 14 14 14 15 17 19 20 20 20 19 18 17 16 16 16 15 14 15 15 16 18
11 8 6 10 17 11 11 4 5 4 3 7 7 7 4 6 7 13 16 19 16 15 14 11 10 11 14 16 16 15 16 16 17 19 21 21 22 19 16 15 15 13 13 13 14 14 16 16 19
11 7 11 14 22 18 10 5 7 3 1 3 7 9 4 5 11 16 21 20 16 16 15 13 13 14 15 17 17 17 17 17 18 18 21 23 23 24 19 18 17 16 14 12 13 14 15 17 20
12 9 12 18 21 10 13 14 13 12 9 8 9 13 10 7 14 18 21 21 18 16 16 15 15 15 16 18 19 19 19 18 18 17 19 19 22 25 20 25 19 19 15 18 20 16 15 18 21
19 12 20 20 18 14 10 12 14 13 10 8 6 8 9 7 11 17 21 23 20 18 18 17 16 16 17 19 20 20 20 19 18 18 19 21 24 25 23 22 22 26 25 25 25 22 19 19 20
18 12 23 20 17 22 14 11 10 14 6 3 4 5 9 2 10 17 21 24 23 22 20 18 18 17 17 18 19 20 20 20 19 20 21 23 23 24 31 22 24 19 23 26 20 23 25 24 22
13 12 18 20 17 14 6 11 10 7 7 4 3 5 3 8 9 14 19 23 25 25 23 21 20 17 17 17 18 19 20 21 21 21 23 23 24 25 31 27 25 21 25 22 20 23 24 26 26
16 16 26 17 13 7 9 10 8 8 13 11 8 4 3 6 3 16 19 24 26 28 26 24 22 18 17 18 18 18 19 21 22 23 25 24 23 23 24 26 24 27 26 20 22 20 21 25 27
17 25 16 13 18 22 19 18 16 15 14 16 12 9 8 8 8 13 20 22 22 20 25 24 24 20 18 15 18 19 20 23 23 23 23 24 25 22 24 21 27 31 24 21 23 27 25 29 30
17 23 25 18 20 19 17 20 20 19 22 21 18 17 17 16 14 15 17 22 22 22 27 28 26 22 20 16 16 18 19 23 23 24 24 25 25 24 25 26 29 36 27 27 27 27 26 30 30
23 21 19 20 26 25 23 24 23 26 19 25 21 19 19 19 18 17 17 19 22 25 27 30 28 25 22 20 17 17 18 20 21 23 22 25 25 26 26 25 30 33 31 27 27 31 29 31 30
10 25 24 22 21 23 22 24 25 18 20 28 21 20 21 20 21 19 19 21 24 25 25 26 30 27 24 21 17 16 16 21 23 20 22 24 25 24 25 27 32 33 32 29 33 34 33 33 28
21 19 17 17 16 13 12 23 26 26 26 29 28 25 25 24 24 23 22 22 23 23 23 27 31 30 27 24 19 17 14 19 24 23 23 23 25 25 26 28 30 32 31 30 34 37 36 35 27
17 18 19 18 20 25 21 26 10 2 11 16 15 13 18 23 24 24 23 22 21 23 25 26 31 33 30 27 22 18 17 17 21 23 23 24 25 25 26 26 27 27 28 32 29 44 37 38 29
13 15 17 14 12 13 21 19 16 7 13 16 14 15 13 15 16 20 21 21 20 22 22 26 29 33 32 30 24 21 21 21 20 20 23 23 24 25 24 23 25 21 28 36 37 37 40 36 27
15 15 18 15 13 16 19 20 15 15 14 15 15 14 16 17 18 19 19 18 17 18 20 24 27 32 34 31 27 20 23 23 22 20 21 20 21 24 23 21 20 16 24 30 41 44 41 38 25
16 16 17 10 4 12 16 19 18 17 18 20 21 25 27 29 28 26 23 21 18 18 21 24 27 30 35 35 33 29 27 25 26 23 20 21 21 21 23 22 17 15 26 27 26 41 40 40 31
18 16 15 12 11 14 19 21 19 19 21 26 30 32 33 31 30 30 29 28 23 22 23 24 27 31 37 38 35 30 27 26 26 24 22 21 21 21 25 26 20 18 22 27 23 36 43 41 31
20 19 14 13 11 16 18 22 19 12 22 29 30 30 30 30 31 32 33 33 30 26 28 27 27 30 35 35 32 29 26 26 28 26 25 23 21 22 22 31 25 22 22 26 29 28 29 31 32
18 16 14 12 8 7 2 5 10 6 4 7 7 12 15 17 21 27 30 31 31 28 28 26 26 31 32 34 36 37 31 28 23 22 23 24 24 26 25 22 31 32 28 27 31 34 39 40 36
14 6 11 10 10 10 13 7 2 6 8 2 9 11 11 14 16 22 26 28 30 28 24 26 26 30 32 37 38 35 27 20 16 18 19 22 21 24 23 26 35 37 30 30 33 34 41 42 39
9 9 6 4 5 7 14 11 5 2 6 7 7 12 13 15 16 15 16 22 27 28 26 25 27 32 34 38 39 36 29 22 16 17 16 16 22 20 27 25 28 29 28 30 35 36 35 43 41
11 12 5 5 4 5 3 7 9 3 3 5 9 14 15 18 19 18 16 15 23 27 27 25 28 34 40 44 39 36 32 24 18 15 15 15 18 19 21 30 28 32 33 31 28 34 36 40 38
14 13 4 7 5 4 6 6 4 3 2 6 10 14 18 23 22 22 19 15 17 22 24 26 30 33 40 44 40 36 29 22 17 16 14 14 14 15 17 23 29 29 29 29 29 30 34 41 41
10 8 1 2 1 3 5 5 8 3 5 5 12 18 24 27 24 26 19 14 12 19 21 23 27 29 35 41 41 37 29 22 17 15 15 14 13 14 14 18 23 24 24 25 28 25 28 30 36
5 9 4 4 5 5 5 4 4 8 13 12 14 18 25 26 27 27 21 13 10 14 16 21 26 30 32 36 39 35 29 22 17 15 15 13 14 13 13 16 21 22 20 26 27 26 28 26 34
6 5 2 0 2 2 1 5 5 10 14 15 15 17 20 21 26 25 23 13 2 9 14 20 24 29 30 37 36 32 26 22 19 15 15 15 15 17 14 14 16 19 21 23 24 24 28 30 33
3 5 4 3 5 2 0 3 4 11 15 14 17 16 17 17 20 28 22 13 4 7 12 18 24 27 28 33 31 28 24 22 18 16 16 16 16 19 18 15 14 15 16 18 18 19 19 21 24

GFSSGP_850_spd_105.txt.gz
Wind_Speed
11 8 4 10 8 8 17 17 8 3 4 6 5 6 7 3 1 3 6 6 11 13 8 7 7 8 10 11 11 11 10 10 11 13 15 17 16 14 13 14 14 13 13 13 12 12 12 13 13
10 9 10 16 9 14 14 17 7 10 7 4 6 4 6 6 3 6 8 10 13 12 7 6 7 6 8 9 10 10 10 10 11 14 16 17 18 16 15 15 15 14 12 10 11 12 12 12 12
16 13 14 7 16 17 16 5 6 4 6 9 8 11 10 5 4 6 8 15 15 11 9 6 5 6 8 10 11 11 11 11 12 14 16 17 18 16 15 16 15 12 10 9 10 10 11 12 12
12 13 14 13 21 20 22 11 6 5 9 11 12 8 6 3 6 9 13 16 14 11 10 10 9 9 10 12 12 12 12 13 13 15 16 17 17 16 16 17 15 12 11 10 10 8 9 11 12
17 17 13 18 24 25 11 7 7 8 4 7 12 11 5 6 7 11 16 16 14 13 12 13 11 10 10 12 13 14 14 14 14 15 16 17 17 18 18 19 16 15 15 14 12 9 10 11 13
16 21 16 18 24 22 21 12 12 13 11 7 9 14 7 8 10 12 16 16 15 14 14 14 14 12 12 13 14 15 15 16 16 16 15 16 19 20 20 21 17 16 15 15 14 13 15 13 16
20 15 21 24 22 19 18 13 16 16 18 18 13 11 15 11 10 13 16 16 15 15 16 16 15 14 13 14 15 16 16 16 17 16 16 18 21 23 24 21 18 14 16 16 19 19 19 18 20
26 15 27 23 20 23 13 13 16 20 20 4 8 9 13 7 9 11 15 18 16 17 18 17 16 16 15 15 16 17 17 17 17 17 19 21 22 22 25 23 23 15 19 18 21 20 19 20 17
24 18 22 27 24 20 9 8 15 17 21 11 13 17 4 2 7 13 16 18 17 17 17 17 16 16 15 15 15 17 18 18 19 20 21 21 22 24 25 25 30 18 20 23 21 18 20 23 21
22 18 31 21 20 15 13 11 14 12 16 13 13 8 7 4 7 15 19 20 20 18 17 16 16 15 16 15 15 15 18 19 21 22 23 24 21 22 24 24 32 22 22 24 20 18 22 24 23
30 29 23 24 28 14 15 16 16 18 17 19 24 17 15 10 11 13 21 21 22 20 19 19 17 17 14 12 14 12 13 15 18 21 23 24 23 24 23 21 26 26 22 23 24 21 24 25 22
30 33 31 32 29 16 20 24 25 24 22 22 20 17 16 17 16 16 18 23 23 23 22 21 19 19 18 14 15 17 17 17 17 19 22 24 25 25 24 24 22 21 24 25 23 27 26 23 24
31 27 32 30 29 26 25 26 23 26 23 22 25 26 23 24 23 21 21 22 24 25 23 23 22 21 19 18 14 13 14 17 20 18 21 22 23 24 23 21 20 20 23 30 27 26 25 24 27
31 33 29 30 26 25 25 26 27 29 26 28 30 29 28 29 28 26 24 24 26 25 25 24 24 23 20 18 17 14 14 17 18 19 20 22 24 24 24 24 24 27 27 29 29 29 25 26 29
34 23 21 22 32 24 27 29 30 31 28 29 27 31 30 29 30 31 28 26 25 25 24 25 22 25 23 21 18 15 13 12 18 21 21 23 23 26 23 24 26 27 27 31 30 27 22 33 29
17 25 24 24 21 21 20 29 21 26 31 35 32 34 32 31 30 32 31 28 26 24 24 24 23 25 26 22 20 17 15 15 14 20 21 23 23 26 24 22 26 27 29 31 31 28 26 34 28
25 21 27 26 25 23 27 28 23 35 27 18 18 22 24 23 26 29 30 30 28 26 24 25 26 26 25 25 21 19 17 17 14 16 18 23 22 23 25 23 21 22 25 27 27 26 30 38 31
23 24 22 23 19 21 21 25 22 24 14 17 19 22 21 23 20 22 26 29 29 27 24 26 27 26 26 26 23 19 19 25 19 18 17 18 20 22 23 25 25 24 25 25 27 28 39 31 36
22 20 21 16 20 19 22 20 20 20 24 21 25 23 24 24 23 23 24 26 26 24 23 26 29 28 28 32 29 25 25 27 24 23 20 16 17 20 24 22 24 22 21 20 22 29 31 36 36
22 19 18 16 17 8 15 21 21 21 21 26 25 27 29 29 28 28 28 26 27 27 24 26 29 28 31 31 29 24 29 27 21 23 22 23 18 19 20 22 23 20 17 15 20 36 38 33 38
19 19 19 17 12 14 14 22 23 29 27 28 28 26 26 25 26 26 28 30 30 29 27 26 27 29 30 26 24 24 21 21 24 23 25 23 19 20 21 22 24 20 16 13 21 31 33 40 34
19 20 21 18 14 14 13 13 14 8 9 8 5 5 9 12 14 18 25 30 31 33 31 28 27 29 30 28 27 30 26 25 24 24 23 22 22 22 23 23 24 23 17 17 24 21 33 39 40
17 18 19 16 16 15 20 9 17 5 11 12 4 3 6 8 11 15 19 24 29 32 33 31 30 30 31 32 31 32 27 22 17 18 17 22 21 24 24 22 21 28 22 18 20 24 26 33 40
21 11 11 13 12 14 18 16 11 13 5 5 4 3 5 6 11 14 16 18 24 29 34 33 32 32 33 33 35 35 29 24 21 20 18 22 21 24 21 22 24 23 29 32 26 27 30 31 37
17 16 8 9 10 11 10 13 10 13 8 3 2 3 7 10 15 18 20 20 21 25 31 33 31 34 35 35 35 34 29 25 24 21 18 16 19 20 20 23 24 28 28 32 33 31 31 35 43
19 17 7 11 13 13 11 8 3 15 6 3 3 5 7 13 17 19 19 22 20 23 28 34 34 33 34 34 34 33 28 26 22 20 17 17 17 19 22 23 24 23 28 31 29 27 24 39 38
17 15 18 6 9 4 9 9 9 8 8 3 11 12 14 17 19 22 22 22 19 20 24 28 29 30 31 34 35 33 31 26 22 21 18 17 16 15 16 18 23 25 26 26 26 26 25 32 43
14 14 6 6 4 6 9 9 10 3 8 6 8 13 16 20 21 21 22 19 19 17 17 21 24 26 30 37 39 33 30 25 22 19 19 18 20 17 17 17 21 24 24 22 25 27 23 27 27
6 10 5 5 3 4 2 6 11 9 9 10 11 16 17 19 20 20 21 16 17 11 10 17 20 24 30 31 40 34 27 25 22 19 19 19 17 16 15 16 19 19 24 21 21 22 23 24 24
14 11 10 5 5 1 4 4 6 8 9 12 16 15 16 16 18 19 21 18 13 17 5 13 20 22 25 29 35 34 26 26 22 19 18 20 18 17 16 17 19 19 22 23 26 24 23 23 24

GFSSGP_850_spd_108.txt.gz
Wind_Speed
11 8 5 9 7 8 15 19 21 16 3 1 7 3 3 14 10 5 13 12 12 10 11 10 7 7 7 8 9 9 9 8 8 9 9 10 10 10 8 8 8 8 8 8 8 9 8 9 8
11 8 10 11 9 13 15 22 21 9 11 11 2 4 3 2 18 15 13 15 12 14 12 7 7 7 7 9 10 10 9 8 9 9 10 11 12 12 10 10 11 9 8 7 8 8 7 8 9
11 13 14 6 13 16 17 24 10 10 14 6 3 5 5 1 12 13 16 18 15 11 9 7 6 7 8 10 10 10 9 9 9 9 11 12 13 12 10 11 12 10 9 8 8 8 7 8 8
11 6 12 12 22 20 25 24 13 4 9 6 9 6 7 7 8 11 17 18 15 10 8 8 7 7 8 10 10 10 10 10 9 10 11 12 12 13 12 12 13 10 10 9 9 10 8 7 7
13 13 11 17 23 24 23 25 3 9 1 11 14 12 6 9 7 15 20 17 17 16 9 11 9 8 7 9 10 10 10 10 10 11 11 12 13 14 14 14 14 12 12 12 11 11 8 7 7
14 16 15 18 24 24 21 29 21 7 9 7 9 15 9 15 15 15 20 19 18 17 12 14 12 10 9 10 10 11 11 11 11 11 11 12 15 15 15 15 16 14 14 13 12 9 9 7 7
18 12 20 24 24 23 21 28 14 12 14 15 11 10 16 17 18 17 18 19 18 18 13 15 14 13 12 11 11 11 12 12 12 11 11 12 14 16 18 18 17 15 15 14 14 11 10 9 11
25 13 26 23 20 25 25 24 8 13 17 18 6 5 6 2 21 22 19 20 19 19 16 15 15 15 14 13 12 12 12 12 13 13 13 15 15 17 19 18 19 15 15 15 14 13 15 15 14
28 16 20 26 25 22 26 21 8 10 17 21 14 13 3 5 10 16 20 19 18 18 18 17 16 16 16 14 14 14 14 14 15 15 16 17 18 19 20 21 22 17 17 18 16 16 17 19 12
24 17 33 22 22 21 27 27 7 7 18 21 15 11 7 5 9 16 22 24 22 20 19 19 17 16 15 15 14 15 15 15 16 17 19 19 20 21 23 23 25 22 21 17 17 17 19 18 16
33 29 23 27 32 33 27 21 11 17 12 17 15 15 18 16 15 16 22 23 26 22 20 19 18 17 15 18 13 13 15 15 16 16 18 21 22 22 22 24 25 26 24 19 18 21 23 18 20
28 37 33 34 33 31 22 30 16 20 17 21 19 20 25 21 18 18 19 24 26 26 22 20 20 21 19 14 15 11 9 11 13 14 17 20 23 24 23 25 24 24 29 25 23 27 27 19 20
31 30 37 38 34 34 31 25 22 27 26 27 21 24 23 16 21 20 20 22 25 28 27 25 23 22 24 18 20 16 22 19 15 16 17 20 22 25 26 24 24 22 21 23 27 29 28 22 22
34 34 34 36 35 33 26 24 23 27 27 25 25 23 28 26 26 22 24 25 26 25 32 31 28 26 25 25 21 20 16 18 18 20 17 19 20 23 24 24 24 22 22 22 26 28 26 21 24
34 29 29 28 34 27 30 26 28 28 29 30 31 31 32 34 31 32 32 31 28 26 24 35 32 32 29 28 28 27 22 19 18 15 17 19 20 21 22 23 24 23 23 23 23 24 24 24 23
26 26 24 29 25 26 26 35 23 31 33 32 33 32 30 33 36 34 32 35 29 29 28 36 35 31 32 30 28 25 17 18 17 13 18 21 21 22 22 22 23 22 25 26 25 26 26 25 19
22 22 30 28 26 25 22 32 24 26 28 28 34 35 38 34 36 32 32 33 32 29 26 34 34 30 29 32 29 26 22 21 20 16 14 19 20 21 23 22 21 20 23 24 26 27 27 26 20
22 26 24 25 23 26 27 29 22 29 32 27 32 25 18 27 32 31 31 32 33 32 29 31 35 30 29 29 30 28 26 25 22 21 16 15 17 20 21 22 21 20 20 23 24 25 25 25 27
24 25 25 23 26 25 28 27 25 19 24 19 19 15 17 20 19 21 20 24 31 31 35 27 34 32 31 31 36 31 31 29 30 23 19 16 16 15 20 21 23 22 24 24 22 22 21 25 27
29 27 26 22 26 16 16 22 19 22 19 21 23 25 26 22 20 23 22 26 27 29 29 23 27 32 31 32 36 33 29 35 32 30 26 20 15 17 19 21 26 25 22 22 22 20 20 24 33
27 27 21 20 20 17 16 15 16 17 19 25 26 25 22 23 28 29 29 29 24 29 27 26 23 25 30 35 36 29 29 34 29 28 26 24 22 21 21 21 24 22 21 19 17 17 18 30 38
23 24 21 20 14 11 16 13 17 23 24 26 22 22 20 12 6 9 14 18 19 20 24 31 33 31 32 34 33 36 39 41 37 31 27 24 23 23 20 22 23 21 20 19 16 16 16 33 24
22 14 12 12 13 17 19 12 13 10 12 14 11 13 7 5 6 9 13 17 20 20 19 23 33 35 35 38 37 35 35 37 31 28 27 26 21 23 23 23 25 22 20 18 16 17 22 23 34
14 4 8 10 12 14 21 16 12 12 10 16 13 9 5 7 11 10 13 13 14 19 26 26 26 37 37 41 37 35 37 30 28 25 29 25 25 22 24 23 25 23 20 21 17 18 19 21 36
11 12 3 7 7 12 18 15 13 10 13 15 11 15 15 15 16 17 21 21 24 22 18 30 30 34 40 40 40 38 37 34 29 26 27 25 24 24 27 26 26 27 22 26 23 19 18 21 28
18 17 6 8 9 11 18 9 14 16 12 11 15 14 20 17 17 15 17 22 23 23 23 16 30 30 38 37 41 39 35 39 28 29 32 24 20 21 23 24 24 25 24 26 25 27 22 23 25
20 19 19 4 6 2 7 7 10 13 13 9 12 13 15 19 16 17 19 23 23 22 24 23 21 30 35 35 39 35 35 34 31 33 29 22 21 16 19 25 26 25 25 25 27 30 31 27 28
7 11 8 5 5 3 10 10 9 9 8 12 15 16 20 20 21 21 23 27 24 21 22 18 22 28 32 29 36 36 35 32 31 27 27 26 22 19 16 22 24 27 24 22 24 27 26 27 28
2 7 5 8 7 3 4 4 9 4 4 16 17 21 21 23 22 21 23 27 26 19 14 4 3 14 16 24 33 33 34 34 29 28 29 26 28 24 18 22 24 25 26 25 23 24 26 26 26
12 7 15 2 6 4 3 3 14 17 19 19 23 22 23 24 23 21 23 28 26 20 17 9 12 9 19 25 32 34 32 33 27 28 27 29 26 22 16 20 19 26 22 23 21 20 23 24 25

GFSSGP_850_spd_111.txt.gz
Wind_Speed
7 5 2 4 2 3 5 9 17 20 8 2 12 11 5 4 4 5 18 15 13 14 17 15 12 11 10 11 12 13 14 13 12 11 11 11 11 10 8 10 10 9 9 9 9 8 9 10 9
7 8 1 4 3 3 6 18 20 18 9 9 11 11 9 2 19 25 18 13 12 17 18 15 10 9 10 11 12 12 12 12 11 11 11 11 11 10 9 9 10 9 9 8 8 7 8 9 8
9 11 3 4 4 10 6 15 8 16 4 5 3 10 4 8 21 20 16 17 20 19 15 12 9 9 11 12 12 12 12 11 11 11 11 11 11 11 10 9 10 9 8 7 6 6 8 8 8
10 8 6 2 12 9 20 18 12 9 2 5 6 6 9 15 22 22 19 17 19 17 13 11 10 10 10 11 12 12 11 11 11 11 11 11 12 12 11 11 11 9 8 7 8 8 8 7 7
11 4 3 5 11 12 19 29 23 16 10 9 6 1 11 13 17 23 22 17 13 17 13 12 10 9 9 10 10 11 11 11 10 10 11 12 13 13 12 12 12 11 10 9 9 8 8 6 6
4 5 2 13 19 16 17 33 26 18 18 2 4 3 7 23 27 30 26 20 13 15 15 14 12 11 10 9 10 10 10 10 10 10 11 12 13 13 13 13 13 12 11 11 9 9 7 6 6
8 2 7 9 13 16 20 31 18 18 14 5 6 2 8 23 26 30 29 25 19 17 17 17 15 13 11 10 10 10 11 11 11 11 11 12 13 14 15 15 15 14 13 12 11 10 9 8 8
18 3 13 15 13 22 24 30 27 21 13 17 10 5 3 26 28 31 29 26 23 20 19 19 18 16 13 11 11 12 12 12 12 12 13 13 13 15 16 17 17 16 14 13 13 13 8 10 12
18 7 17 25 17 17 24 17 32 24 7 6 4 9 20 28 27 30 28 25 25 23 21 21 20 19 16 13 13 13 14 14 14 14 14 14 15 16 16 18 18 18 16 15 16 16 12 11 14
9 7 33 3 15 17 24 25 27 7 6 6 4 17 21 25 22 24 29 28 26 25 25 22 22 21 19 17 16 15 15 16 16 16 16 16 16 16 17 19 19 21 18 19 17 16 15 14 17
16 21 23 18 29 34 27 27 30 6 5 10 17 22 18 15 20 24 28 28 26 25 24 24 23 22 21 20 18 17 17 17 17 17 17 17 18 18 19 20 21 25 21 23 21 18 18 16 17
17 33 31 28 31 30 19 25 16 13 14 13 12 20 18 22 22 24 24 31 30 28 24 23 23 23 22 20 18 17 16 17 17 17 18 19 20 21 21 22 23 25 26 26 25 22 19 19 20
23 28 27 33 35 42 42 31 23 25 27 17 16 13 19 11 26 24 24 25 34 34 29 25 24 24 25 20 19 19 16 16 13 14 15 16 19 21 22 23 22 24 25 27 27 25 23 22 22
17 24 27 30 32 36 27 28 22 31 27 26 22 23 18 15 15 19 23 25 27 36 35 32 27 25 25 24 23 22 18 17 17 16 15 17 19 21 21 22 22 22 24 21 24 27 25 23 23
29 21 20 22 28 27 30 21 30 25 19 23 25 27 28 24 23 23 24 23 22 26 35 40 34 30 27 25 24 24 23 23 22 19 19 17 19 21 21 23 24 24 24 21 23 23 23 22 22
17 17 19 29 25 23 20 28 23 26 26 26 28 29 29 31 32 33 30 26 28 29 31 43 42 37 32 28 27 28 28 26 23 22 22 19 18 21 22 23 23 24 23 22 23 24 24 22 24
10 17 20 24 12 15 15 26 12 27 27 25 30 32 36 37 34 35 34 35 31 32 36 37 47 43 37 32 30 31 30 27 24 20 19 18 20 21 24 24 24 25 24 23 24 25 25 24 24
13 14 15 20 11 19 20 29 11 19 25 31 27 30 34 41 42 40 39 34 32 33 32 36 44 46 41 36 32 31 30 30 26 22 20 18 19 21 23 23 24 23 23 22 25 27 26 26 24
17 16 18 16 19 20 16 26 19 16 27 22 26 30 35 31 29 38 38 35 36 33 34 32 36 44 46 40 36 33 32 30 29 27 23 19 17 17 22 24 24 24 23 23 25 26 26 26 23
19 20 22 24 21 16 15 18 15 22 21 29 25 29 22 18 15 10 7 21 21 27 31 24 30 38 46 42 36 33 33 32 31 31 27 23 19 17 20 24 24 24 24 26 25 27 25 24 22
20 21 21 20 21 19 12 18 18 13 21 16 25 25 25 27 25 24 18 16 17 19 27 31 28 36 45 40 35 33 29 29 33 37 35 29 22 20 21 23 24 26 27 27 26 25 26 25 26
19 18 22 22 18 7 4 6 14 15 17 8 12 15 7 8 10 10 7 6 8 3 6 17 29 32 40 38 33 33 35 36 43 44 40 33 29 26 24 24 24 25 25 23 25 24 23 22 25
19 20 19 9 11 4 5 7 7 8 10 16 18 18 22 25 21 18 15 11 7 1 5 6 16 35 41 39 33 32 33 33 41 42 40 36 35 30 28 27 26 26 22 21 22 22 21 22 26
20 11 5 5 2 6 13 6 6 4 7 9 18 25 28 24 20 16 12 8 9 8 8 9 14 8 36 38 34 34 35 31 41 40 37 35 32 35 34 30 28 27 22 20 22 20 20 21 27
12 8 3 1 2 5 6 5 10 10 16 19 19 25 28 26 23 24 21 19 18 21 19 16 17 21 19 41 40 40 38 32 37 40 39 35 35 34 37 32 30 27 23 20 23 20 21 24 23
6 9 5 5 4 2 4 8 10 8 25 28 29 30 32 32 26 26 26 23 22 22 21 22 23 24 24 34 44 42 41 36 37 38 35 32 33 34 32 29 28 23 23 21 22 22 20 22 22
6 9 7 3 1 2 5 3 3 8 20 19 23 31 31 30 29 27 26 26 23 22 20 20 22 25 25 22 41 44 41 38 39 36 33 29 28 29 31 28 27 25 24 23 23 26 24 23 23
7 6 5 3 2 4 6 6 2 11 15 19 22 25 30 29 27 26 28 28 25 24 24 18 15 19 27 23 35 43 41 37 36 35 33 30 27 25 24 27 28 25 23 24 22 26 27 28 25
5 4 5 2 2 2 2 3 7 7 12 17 19 31 26 25 27 28 29 29 27 25 23 17 12 6 14 25 35 39 39 36 34 34 32 31 29 26 23 23 26 26 25 23 22 25 28 31 30
4 2 6 2 3 2 2 4 14 16 19 23 26 23 23 26 34 35 32 32 31 30 25 19 13 9 4 3 26 28 30 33 34 31 31 31 28 25 24 24 27 26 24 24 24 25 25 28 27

GFSSGP_850_spd_114.txt.gz
Wind_Speed
6 6 5 2 3 4 4 8 5 10 8 7 16 5 7 4 4 5 30 20 21 19 22 21 18 16 16 17 18 18 18 17 16 15 15 15 13 11 11 11 11 11 11 10 10 10 9 8 5
7 8 6 3 4 1 6 7 16 9 20 31 17 3 1 2 13 23 28 18 19 20 22 21 19 17 16 16 17 17 17 17 15 15 15 14 14 12 11 12 12 11 10 11 10 9 7 7 6
9 11 4 4 5 7 6 9 6 9 23 27 7 3 5 9 15 32 28 24 22 23 23 20 18 16 15 16 16 16 16 15 15 15 15 14 14 13 11 12 12 11 10 9 9 9 9 8 8
9 6 3 2 13 8 10 12 5 15 31 25 12 2 5 12 32 24 28 24 25 23 20 18 17 16 15 15 16 16 15 15 15 15 15 14 14 13 12 11 12 11 10 9 9 10 10 10 9
11 3 2 5 11 7 11 17 14 14 16 23 30 3 10 26 22 28 26 27 27 23 20 19 18 16 16 15 15 15 15 15 15 14 15 15 15 14 13 12 12 11 9 9 11 11 11 10 9
5 2 1 9 20 6 8 26 17 12 24 26 13 5 8 22 29 31 27 27 25 22 22 20 19 17 15 15 14 15 15 14 14 14 15 15 15 14 13 13 14 12 11 11 11 12 11 10 10
6 3 7 9 5 6 8 18 13 12 15 16 23 8 10 33 30 32 29 27 25 21 21 20 19 17 16 15 15 15 15 14 13 14 14 15 15 15 15 14 15 13 12 12 11 12 10 10 10
7 3 5 9 13 16 9 21 15 14 14 33 22 7 10 39 39 35 30 26 23 21 20 20 19 18 17 16 16 16 15 14 14 14 15 15 16 17 17 17 17 16 14 14 12 13 11 9 10
9 2 16 19 7 8 15 7 17 13 23 26 7 9 25 39 41 39 34 28 24 23 22 23 21 20 18 17 17 17 16 15 16 16 16 16 17 18 18 19 18 18 16 17 14 14 12 7 10
8 7 26 3 13 12 13 21 27 10 14 20 2 13 26 43 42 41 37 31 28 27 26 25 25 23 22 21 19 18 17 16 16 17 17 18 17 18 18 19 20 19 19 18 15 15 15 12 11
8 24 24 20 10 18 19 25 22 10 16 21 13 25 36 44 42 39 35 29 26 27 27 27 26 26 25 24 22 20 18 17 17 17 18 18 19 19 20 21 23 22 23 21 20 19 18 15 14
10 30 23 31 25 24 19 19 22 10 18 17 22 24 40 43 42 38 35 32 27 26 26 28 28 28 28 26 25 22 21 19 18 18 19 20 21 21 22 23 23 25 25 25 23 22 20 17 16
17 24 27 32 27 33 34 33 30 33 31 31 32 18 37 40 41 39 35 32 31 29 28 27 30 31 29 28 27 26 24 22 19 18 19 20 22 22 22 23 24 25 25 27 25 25 23 21 18
10 18 25 29 36 33 23 27 24 45 27 27 33 24 22 27 33 35 38 35 33 30 32 31 28 28 29 30 28 28 26 23 21 20 19 19 21 21 22 23 24 25 25 26 25 26 25 24 21
15 17 22 23 25 16 21 21 25 48 29 30 34 32 25 21 17 21 29 31 33 35 32 36 34 30 28 28 29 28 27 26 24 21 19 19 21 21 23 23 24 24 24 24 23 24 24 24 23
12 7 10 19 10 18 11 25 30 34 29 29 33 31 24 19 18 21 22 22 21 21 38 40 38 36 33 30 28 28 28 29 25 23 20 19 19 22 24 24 25 24 24 25 24 23 23 23 24
6 15 19 22 4 12 12 27 31 32 29 30 31 36 34 31 29 26 25 29 32 30 26 36 40 41 40 37 33 31 31 30 27 24 23 21 21 21 24 25 25 25 25 26 25 24 24 25 25
18 10 13 14 2 10 17 23 24 20 20 26 28 29 30 32 35 35 35 36 33 32 37 29 34 39 43 44 40 36 32 29 28 27 26 25 25 23 23 24 25 26 26 27 27 26 26 26 25
13 15 21 18 14 11 17 19 23 14 24 23 23 26 32 35 34 33 34 35 41 37 35 36 31 34 46 51 45 42 36 34 33 33 28 27 26 25 24 25 26 28 29 27 27 27 26 28 25
16 18 23 22 24 15 15 15 9 13 13 15 23 28 31 34 36 36 37 35 41 44 44 41 33 32 41 54 52 46 41 37 34 32 29 28 26 26 26 25 25 28 29 27 26 28 28 27 27
19 19 17 22 19 20 14 16 15 19 16 26 29 32 37 36 32 12 13 11 10 11 19 25 33 34 37 47 54 46 40 35 33 33 32 31 27 25 26 26 26 26 27 28 28 29 29 29 29
15 21 19 20 12 9 6 7 9 10 11 12 14 22 13 12 21 16 16 14 12 10 8 8 22 33 39 46 56 52 46 41 39 37 35 33 29 27 27 26 27 26 27 28 29 31 31 30 30
17 21 20 13 11 4 7 3 7 8 8 7 8 22 28 27 24 22 19 15 13 10 8 11 9 24 32 42 53 52 47 40 37 34 35 35 33 30 29 27 28 28 27 29 28 32 32 31 30
4 7 11 1 3 7 7 8 5 4 11 4 19 22 25 27 26 23 21 16 14 12 8 3 4 5 25 32 38 43 42 40 42 38 38 37 36 33 33 32 31 30 28 29 29 30 28 30 28
5 3 3 1 2 5 5 9 10 13 17 20 18 22 24 28 30 28 26 21 17 13 13 13 9 6 11 29 34 38 40 41 39 39 36 36 39 38 36 37 36 33 30 30 28 28 27 27 24
4 9 5 6 4 4 5 6 1 15 18 24 29 25 28 32 33 30 27 24 21 18 17 17 17 14 11 19 36 42 44 48 41 40 33 35 38 38 36 38 38 34 30 29 26 26 26 23 22
5 6 7 4 3 3 3 5 13 17 20 21 23 30 30 30 32 31 28 26 23 21 19 19 18 15 14 13 22 40 47 51 45 41 33 30 31 30 30 35 39 35 31 27 28 26 26 24 24
11 5 2 2 3 2 2 6 5 12 14 18 17 25 27 29 31 37 34 31 26 24 22 18 16 17 11 11 15 25 38 48 46 41 35 30 29 26 26 30 33 33 31 30 27 26 27 26 26
0 4 4 4 3 1 1 4 7 9 9 12 12 25 29 30 30 41 40 34 28 24 23 21 20 16 14 9 10 19 28 43 47 41 37 33 31 24 23 27 29 32 31 30 29 25 27 27 27
2 2 4 4 1 3 3 3 5 9 6 16 15 25 27 22 29 39 40 38 35 31 29 27 25 19 15 12 6 11 26 35 40 39 36 34 33 28 25 26 27 28 30 29 28 28 27 27 29

GFSSGP_850_spd_117.txt.gz
Wind_Speed
5 4 4 3 2 4 4 7 3 6 7 3 23 12 8 2 5 5 24 29 27 26 25 27 25 23 22 22 21 21 20 18 17 16 15 14 12 11 11 11 11 10 10 10 10 9 8 7 7
4 6 4 1 4 2 6 7 10 9 10 24 23 11 4 4 5 9 29 24 23 23 26 26 25 24 23 22 22 21 21 19 17 16 15 14 13 12 11 11 10 9 10 10 10 9 8 7 6
6 8 2 4 3 8 6 7 6 7 16 12 9 11 6 5 8 33 23 26 27 25 26 25 25 24 24 22 22 22 21 19 17 16 16 15 14 13 12 11 10 10 10 10 10 10 9 9 8
8 5 1 2 11 7 5 1 3 8 17 6 4 8 9 9 18 25 27 26 27 27 26 26 25 24 23 21 21 21 20 19 18 16 16 16 15 14 12 12 11 10 10 10 10 10 11 10 9
11 4 2 5 8 5 2 14 10 6 8 21 21 9 6 10 24 26 28 28 30 29 28 26 24 23 21 20 20 20 20 18 17 17 17 17 16 15 14 13 13 12 10 10 10 11 11 11 9
4 2 1 9 17 3 2 21 17 13 22 25 13 7 6 19 23 31 29 31 31 29 28 26 24 22 21 20 20 20 19 17 17 17 18 17 17 16 15 14 14 12 11 10 10 12 11 11 10
4 3 6 8 4 2 5 14 7 13 18 19 18 7 10 23 25 32 32 32 31 27 27 27 25 23 21 19 19 19 18 17 17 17 18 18 17 16 16 15 15 14 12 12 12 12 11 11 10
4 2 5 6 11 13 9 10 13 9 12 22 17 6 6 27 32 34 35 34 31 28 27 26 24 24 23 21 20 19 18 17 17 17 17 17 18 17 17 16 16 15 14 14 13 12 11 11 9
4 3 17 8 4 5 5 0 5 11 14 20 18 20 19 28 41 36 37 35 33 31 29 27 25 24 23 22 21 20 19 18 18 18 18 18 19 19 19 18 17 18 16 16 15 14 13 11 9
7 5 9 4 8 10 10 16 15 11 16 21 21 25 19 36 45 41 39 39 35 33 31 28 27 25 24 23 22 21 20 21 21 20 20 20 19 19 20 20 19 19 19 17 17 15 15 13 9
7 23 5 10 10 13 4 13 13 10 19 12 20 25 19 37 45 44 42 39 35 33 31 30 28 26 25 24 23 21 21 22 22 21 21 20 20 21 21 22 22 22 23 20 20 19 18 16 12
10 16 12 21 31 27 11 19 13 22 33 17 20 23 10 24 48 47 44 39 36 35 31 30 29 29 28 26 25 24 23 22 23 22 22 22 22 23 23 23 24 25 25 24 22 22 19 18 14
14 11 24 27 31 28 26 20 16 37 53 33 34 35 33 25 35 49 45 39 37 34 32 32 31 31 31 30 29 27 25 23 22 23 23 22 22 23 23 24 24 26 27 25 25 22 21 20 17
16 27 28 34 29 21 16 24 21 57 29 31 25 32 28 28 37 41 43 45 39 32 31 31 31 32 32 32 32 31 28 26 24 24 24 23 22 22 22 23 25 26 27 26 25 24 23 22 20
10 15 18 23 17 14 13 19 24 49 27 33 31 37 32 31 36 41 47 44 38 36 33 30 29 28 31 33 33 33 31 30 28 27 26 24 23 22 22 23 24 26 27 26 25 25 25 24 23
7 6 9 3 10 13 10 23 29 31 25 33 31 35 32 35 35 40 43 46 42 40 38 32 33 34 33 32 32 33 33 32 31 29 27 25 24 23 23 24 24 25 26 26 26 26 26 26 25
4 12 14 23 7 12 11 17 21 20 27 31 33 29 30 37 31 32 28 31 34 38 39 38 35 37 37 36 35 33 34 33 32 31 29 27 25 24 23 24 24 24 26 28 27 27 27 26 26
10 8 11 12 10 11 18 17 20 24 23 27 30 32 36 35 37 40 30 28 28 29 29 31 31 30 35 41 40 37 36 34 33 32 31 29 27 25 23 24 24 25 27 28 28 28 27 26 24
13 15 19 18 18 21 19 22 20 22 18 20 29 30 27 33 35 35 30 32 31 32 35 35 34 33 36 45 45 45 41 36 35 34 32 30 28 26 25 23 25 27 29 30 28 27 27 25 24
16 15 18 20 23 14 17 23 24 14 19 27 23 25 29 32 36 28 22 22 22 22 27 32 33 32 35 40 42 49 45 42 38 35 32 29 30 28 28 26 27 28 29 30 29 28 27 28 27
15 17 20 18 22 14 15 18 20 22 22 29 28 30 30 29 16 13 8 9 10 15 17 18 22 32 34 39 44 50 46 43 38 34 33 32 32 31 30 28 28 29 29 32 30 30 30 27 29
18 12 15 16 15 13 2 11 11 13 18 16 19 7 15 12 15 14 10 10 12 10 7 12 21 28 34 40 41 45 49 47 41 40 38 39 35 34 32 30 30 29 29 30 31 31 31 29 30
16 11 11 20 15 9 17 4 6 9 5 8 14 22 28 23 20 21 16 13 14 12 12 9 15 23 28 29 35 39 42 43 42 43 40 41 36 35 35 33 31 30 31 30 30 28 28 30 31
11 3 7 13 6 5 15 8 5 5 9 14 17 24 26 24 21 21 17 15 15 13 13 11 8 12 17 23 29 33 37 39 40 37 42 41 36 35 36 35 33 31 30 31 29 29 28 30 32
5 3 3 3 1 5 7 7 7 14 16 16 16 22 23 25 23 25 24 22 20 17 13 9 7 5 7 20 25 32 35 36 35 40 47 40 33 36 37 39 37 35 31 30 29 30 32 32 33
7 7 4 3 3 4 8 3 5 15 20 19 23 22 24 27 25 25 26 27 24 21 17 13 7 3 5 9 20 30 36 38 38 38 41 41 36 33 38 40 39 36 32 31 30 30 32 32 33
4 6 10 4 6 2 5 7 14 16 12 15 26 26 28 30 27 27 33 31 27 25 22 18 14 11 10 10 16 21 30 36 41 40 42 42 39 36 36 38 37 38 34 32 33 31 31 29 29
7 1 1 1 3 5 4 6 7 13 15 11 15 20 20 22 27 32 37 36 31 26 23 19 16 15 12 11 11 21 25 31 42 44 43 43 42 40 34 33 37 37 34 33 32 30 26 29 28
2 2 5 3 1 2 2 4 6 11 12 12 11 21 28 26 26 34 40 40 36 31 27 23 20 16 11 10 9 13 22 28 34 41 44 42 43 41 34 31 32 33 33 34 32 30 27 26 27
3 5 4 3 3 2 3 3 4 7 9 13 18 21 24 23 22 36 40 40 40 39 35 31 24 22 18 15 11 7 9 17 21 30 29 39 41 39 34 31 29 30 30 33 32 30 27 27 28

GFSSGP_850_spd_120.txt.gz
Wind_Speed
7 5 4 2 3 5 4 7 4 3 3 3 9 6 7 6 6 5 7 25 27 28 33 33 32 30 27 25 23 22 21 20 18 17 16 15 13 13 12 12 12 13 12 11 11 10 9 9 8
6 5 4 4 4 2 5 6 6 8 12 19 16 4 2 7 14 8 14 31 26 28 32 33 31 30 27 26 24 23 22 20 19 18 17 16 14 14 13 13 12 12 11 11 11 10 10 8 7
4 7 3 4 4 7 6 6 6 8 16 12 9 6 7 4 8 5 26 28 28 30 31 32 30 29 27 26 25 24 22 21 19 18 17 16 16 15 14 13 12 11 11 11 10 10 9 9 8
5 4 3 4 8 7 7 5 5 7 11 3 2 9 12 10 8 15 27 28 30 30 29 29 28 28 27 27 26 24 23 21 19 19 18 17 17 15 14 13 12 11 11 10 9 9 10 9 9
8 2 1 3 5 5 5 12 8 5 6 10 13 9 15 14 9 26 25 26 29 30 29 29 27 27 27 26 25 24 22 21 19 19 19 19 18 16 15 14 13 12 11 10 10 11 11 10 9
3 2 1 5 5 3 4 14 12 6 14 26 8 7 6 19 11 22 25 28 29 30 30 29 27 27 26 25 24 23 22 20 20 19 19 19 18 18 16 15 14 13 11 11 12 12 12 10 9
4 3 5 2 1 2 3 9 4 8 12 15 9 4 10 15 14 18 29 30 31 31 30 30 28 27 25 25 23 22 21 21 20 20 20 19 19 19 18 16 16 14 12 12 12 12 12 10 8
2 3 1 2 1 5 7 6 13 9 8 17 9 4 7 21 19 24 31 32 32 32 30 29 29 29 27 26 23 21 21 20 20 20 20 20 20 19 19 17 17 15 13 14 13 13 12 10 8
2 2 3 5 5 2 4 3 5 10 17 16 12 13 26 33 27 28 34 33 34 34 32 31 30 30 29 27 25 23 21 21 20 20 20 21 21 21 20 18 18 17 15 15 14 14 13 12 9
5 3 6 7 4 1 7 10 22 12 12 17 26 19 21 27 19 34 39 39 39 37 35 33 32 31 30 29 27 25 24 23 22 22 22 22 21 21 20 19 18 17 16 15 15 15 16 14 10
4 7 3 3 6 10 4 14 15 15 3 7 13 22 25 23 16 32 41 44 42 40 37 36 34 32 31 30 29 28 27 25 23 22 22 22 22 22 21 21 21 20 19 18 18 18 18 16 13
6 8 5 4 13 13 6 15 15 30 20 24 27 34 38 33 24 28 35 43 42 41 40 38 35 33 32 30 29 28 27 26 25 23 22 23 23 24 23 23 22 22 22 21 20 20 19 19 16
5 4 13 14 23 24 21 13 20 39 34 37 35 32 36 36 31 27 38 35 37 41 40 38 36 34 33 32 30 28 27 25 24 23 23 23 24 25 24 24 24 24 23 23 23 22 21 21 19
7 19 17 17 19 17 16 22 19 24 11 24 30 31 32 35 30 26 31 43 40 42 40 38 37 35 34 34 31 29 27 25 24 24 23 23 23 24 24 24 25 25 25 24 24 22 22 22 21
9 15 17 10 5 5 16 17 16 30 27 31 33 34 35 38 37 37 31 38 48 47 40 39 36 37 34 33 32 31 29 28 26 25 24 24 23 23 24 25 25 25 25 24 24 23 23 23 23
5 5 8 2 11 10 5 28 13 17 21 27 31 37 32 38 38 34 36 33 48 48 42 38 38 36 35 33 33 33 33 32 30 29 27 27 25 23 24 25 26 25 25 25 25 25 25 26 26
0 10 9 22 1 12 8 17 17 25 24 28 27 32 32 37 36 34 33 32 41 54 44 40 38 36 36 35 33 32 35 35 33 32 30 30 28 26 25 25 25 25 26 26 26 26 26 27 27
4 7 6 14 5 15 20 18 24 40 32 21 28 31 32 34 39 36 35 31 33 50 50 45 43 39 38 39 37 33 35 35 34 34 32 32 31 28 27 25 24 25 27 28 28 27 27 27 25
8 13 16 17 20 23 15 15 18 32 36 19 29 25 30 30 35 32 35 33 30 31 44 49 50 45 45 43 43 41 40 37 35 35 34 32 32 30 29 27 25 26 29 29 27 25 26 25 23
12 12 17 18 20 18 18 17 17 22 29 26 30 31 29 34 27 17 14 21 27 33 33 36 41 42 43 44 41 42 42 41 39 36 35 35 32 30 31 29 28 26 29 30 28 27 26 26 24
14 11 14 14 19 15 15 17 13 20 18 30 32 21 11 10 9 7 8 10 18 19 24 28 34 38 40 40 41 42 41 41 42 40 40 36 32 30 32 32 30 28 28 31 29 29 28 27 27
11 6 13 15 10 8 6 11 19 15 13 13 16 20 21 16 11 13 10 7 7 3 10 19 25 32 39 40 41 40 40 40 41 43 44 37 35 30 33 32 32 31 30 32 31 30 30 30 30
10 8 13 14 10 12 16 5 6 11 5 10 13 19 22 22 17 15 11 10 6 7 6 12 18 27 33 34 32 36 37 38 37 36 36 40 41 39 32 31 32 32 32 32 32 32 34 30 32
7 7 12 9 5 7 16 8 3 9 7 11 14 22 22 22 21 19 17 16 17 13 12 12 11 15 20 26 27 30 30 33 35 36 34 36 39 38 34 32 33 33 34 34 34 33 32 31 30
4 4 4 3 1 6 3 4 7 13 14 13 13 19 21 22 24 26 23 21 19 16 16 14 9 9 15 20 25 28 29 30 33 35 36 36 35 30 30 35 36 36 38 36 34 35 33 31 30
5 6 3 4 3 8 9 2 5 8 15 20 18 19 21 24 24 26 27 26 22 20 17 15 9 7 6 10 19 25 29 31 33 35 38 37 34 34 35 39 39 40 40 38 36 34 34 32 33
2 5 11 7 7 6 2 3 3 16 16 19 22 24 24 23 25 26 29 31 26 24 21 16 13 10 5 1 5 12 22 32 36 36 37 38 36 35 33 35 33 39 42 40 37 35 35 35 33
12 3 1 1 4 3 4 3 5 14 15 14 16 20 26 27 27 28 34 35 33 27 23 20 18 16 11 5 7 10 15 20 28 39 41 40 39 37 43 38 35 36 38 38 36 36 36 35 34
2 3 4 4 5 1 2 3 6 9 11 12 13 21 23 28 30 31 35 36 39 36 32 27 23 18 14 10 7 9 14 17 23 27 33 38 39 37 37 37 37 36 34 34 37 38 36 37 34
4 5 5 3 4 2 3 3 5 8 11 15 17 24 28 33 38 30 37 42 41 42 42 38 30 22 18 16 12 10 10 11 13 15 20 26 30 35 38 39 36 34 32 33 36 39 36 37 34

GFSSGP_850_spd_123.txt.gz
Wind_Speed
5 4 5 4 2 1 2 5 1 4 3 2 7 6 10 9 6 3 6 12 20 32 32 31 30 29 27 25 23 22 21 19 18 18 18 18 18 17 15 15 14 14 13 14 13 12 11 10 9
3 4 5 3 2 3 4 4 8 8 6 15 13 3 3 5 12 18 24 13 23 32 31 31 31 30 28 26 24 22 21 20 19 18 18 18 17 16 16 15 14 14 14 13 13 13 11 11 9
4 7 3 1 3 7 4 5 5 4 7 7 6 4 6 4 10 7 16 20 31 32 31 31 32 31 28 26 25 23 21 20 19 19 19 18 17 17 16 15 14 14 14 13 13 12 11 10 9
5 4 3 3 8 5 4 1 2 8 7 2 3 10 10 9 17 13 12 25 32 32 30 30 31 31 28 26 25 24 22 21 20 20 19 19 18 17 17 16 14 14 13 12 12 11 10 10 9
6 2 3 1 5 5 6 8 12 10 8 9 5 8 10 9 20 20 14 21 26 30 29 30 31 30 29 27 26 24 23 21 20 19 20 19 19 18 17 16 14 14 13 12 11 11 11 10 9
2 2 2 4 6 4 5 14 6 8 11 14 5 5 5 14 19 17 14 21 26 29 30 31 31 29 28 27 26 25 23 21 20 19 19 19 19 18 17 16 15 14 12 12 11 12 11 10 9
2 2 3 2 4 4 6 9 9 15 12 8 4 5 8 12 27 26 14 21 26 31 30 32 31 30 28 27 26 25 24 22 20 19 19 19 19 18 17 16 16 14 12 12 12 13 11 10 8
3 1 2 3 6 9 5 4 6 5 9 7 2 2 5 26 27 26 17 23 27 31 32 32 32 31 30 29 27 25 24 23 21 20 20 20 19 19 18 17 16 15 13 13 14 14 12 9 8
3 3 6 7 9 6 4 7 2 9 14 9 9 14 17 19 21 19 15 22 29 32 34 33 32 32 31 30 29 27 25 24 22 22 21 21 22 21 20 19 17 17 15 15 15 14 12 11 9
5 3 6 5 6 6 8 8 19 10 17 18 13 4 13 22 25 23 17 23 32 35 37 36 35 34 33 32 31 30 28 27 26 25 24 24 23 22 21 19 18 17 17 16 16 16 14 14 11
1 5 3 2 4 9 8 17 12 17 15 11 23 30 29 32 26 22 26 23 33 33 37 38 36 35 35 34 34 32 31 30 28 27 26 25 24 23 23 21 21 20 19 19 19 19 17 16 13
4 3 4 6 11 13 14 16 17 21 29 24 33 40 39 33 36 31 25 24 35 36 38 39 38 37 36 35 34 34 33 32 30 28 27 26 26 25 24 24 23 23 23 21 21 21 19 18 16
7 3 5 12 17 19 22 23 21 29 29 32 32 31 30 25 26 32 28 26 24 39 39 42 40 39 38 36 35 35 33 32 30 29 28 27 26 25 25 25 24 24 23 23 22 22 21 20 18
5 13 16 15 20 18 19 19 9 12 25 24 31 36 36 35 29 35 33 28 25 29 42 40 41 40 40 39 37 35 33 30 30 29 28 28 26 25 24 25 25 25 25 24 23 23 22 21 20
8 16 19 14 4 4 18 23 11 9 21 22 23 28 33 31 29 32 36 34 32 30 33 42 42 43 43 40 38 34 33 30 29 28 28 28 27 26 24 24 25 25 25 25 25 24 23 22 21
8 8 6 4 16 8 14 27 16 25 24 32 31 30 36 38 32 30 34 34 30 29 31 38 43 45 44 41 40 37 35 33 30 29 29 29 27 26 25 25 25 25 25 25 25 24 24 24 24
1 12 16 16 10 16 5 28 4 37 34 34 32 32 34 39 36 32 33 31 31 30 31 32 43 44 45 43 41 40 37 36 34 31 30 29 29 28 26 25 25 25 25 26 26 26 26 26 25
12 15 18 18 7 17 22 28 30 32 32 32 31 31 32 37 42 31 31 32 32 36 32 34 36 46 44 45 43 40 38 38 37 34 33 32 32 31 28 27 26 26 27 27 28 28 28 27 25
16 18 22 25 27 18 21 22 28 34 29 32 34 30 35 37 35 28 32 27 30 29 34 33 35 45 44 45 43 41 40 40 40 36 36 34 35 33 31 31 28 28 30 29 28 28 28 27 24
11 13 22 21 20 14 19 23 26 28 31 31 27 33 33 34 30 21 24 23 23 24 27 33 36 39 43 42 39 41 40 43 41 37 35 36 36 36 34 34 31 30 30 30 30 29 29 27 24
14 15 17 16 23 25 16 15 8 20 25 10 13 15 13 12 10 10 9 7 11 16 20 26 34 36 38 39 37 40 40 39 40 42 40 40 37 36 34 35 35 32 31 31 30 31 29 28 26
16 9 12 14 14 8 8 13 17 15 13 13 16 15 17 16 13 11 3 1 2 6 10 15 23 31 36 33 33 36 40 40 42 40 40 41 39 37 34 36 38 36 32 31 31 30 30 29 30
7 5 12 14 14 14 15 7 5 14 16 13 14 17 15 14 14 14 11 7 6 5 8 10 14 19 25 31 28 31 34 35 35 37 36 36 38 39 38 39 39 35 34 32 32 30 30 33 32
3 8 12 9 6 5 4 3 3 8 11 13 14 18 16 16 15 15 13 10 9 9 9 9 11 12 16 21 27 27 30 32 35 35 33 32 30 32 41 38 36 30 27 31 34 32 31 32 34
5 4 3 2 3 5 8 6 4 11 13 11 14 23 22 18 18 19 20 18 16 15 14 14 13 9 12 18 22 25 27 29 32 31 32 32 30 31 34 42 37 32 29 30 35 36 33 33 35
6 4 2 4 4 11 11 5 4 7 15 20 22 25 28 23 21 21 23 22 21 21 19 15 15 13 8 14 17 19 23 30 31 29 29 31 32 32 30 32 35 36 34 29 34 39 38 35 36
2 5 3 4 8 6 1 2 5 15 14 19 23 25 29 31 28 26 27 28 26 24 22 20 16 13 10 7 6 11 19 23 27 30 30 25 29 34 32 30 34 38 36 39 45 42 40 38 36
14 1 1 2 4 4 2 3 6 14 15 16 18 26 29 32 34 32 30 33 34 29 25 22 20 18 14 5 4 5 8 18 23 31 31 32 32 32 31 30 32 35 39 41 39 35 36 39 37
3 4 5 3 3 3 4 3 6 10 12 14 18 25 28 29 33 35 34 37 36 36 33 27 25 22 18 12 6 6 5 6 11 18 21 25 31 37 34 32 32 37 41 38 34 35 35 37 38
2 4 9 4 3 1 1 3 7 9 13 19 20 22 25 30 31 30 38 40 41 40 40 39 32 27 24 17 11 6 8 7 7 10 14 16 20 21 24 27 30 35 41 43 39 35 37 37 39

GFSSGP_850_spd_126.txt.gz
Wind_Speed
4 3 1 3 6 5 5 4 2 6 3 2 3 8 13 12 9 9 8 16 14 20 27 28 25 24 24 24 22 21 21 21 21 20 19 18 18 17 16 14 13 13 14 14 14 12 11 10 9
3 3 2 3 6 8 6 8 8 2 4 6 12 8 8 9 5 12 14 16 14 19 29 30 27 26 25 24 22 22 21 21 21 21 20 18 18 17 16 15 14 14 14 13 13 13 11 11 10
4 7 6 4 6 11 5 1 2 3 3 7 6 3 7 4 9 12 14 22 11 21 28 30 28 27 26 24 23 22 21 20 20 20 19 18 18 17 16 15 15 14 13 14 13 13 12 11 10
4 4 4 7 13 6 4 1 2 7 10 2 5 13 7 4 11 15 19 10 14 20 23 29 29 27 26 25 24 22 21 20 20 19 18 17 18 17 16 15 14 13 13 13 12 12 11 10 9
5 5 9 11 14 10 10 14 12 11 10 9 9 8 9 2 12 17 15 5 14 20 23 27 29 28 27 26 24 22 21 20 19 18 17 17 17 17 16 15 14 13 13 12 12 11 10 10 9
8 5 9 13 14 7 12 15 12 12 10 12 10 9 5 3 18 19 18 7 14 20 24 28 29 29 27 26 24 22 22 21 20 19 18 18 18 17 16 15 14 13 12 11 11 11 11 10 10
11 8 14 14 13 11 12 11 12 15 14 9 7 9 7 8 19 20 15 9 16 22 27 29 30 30 27 26 24 23 22 21 20 20 19 19 18 18 17 16 15 13 12 11 11 11 11 10 9
6 5 13 12 12 14 6 12 12 15 10 6 2 1 5 15 19 18 14 9 12 22 27 28 31 31 29 27 25 24 23 22 21 20 20 20 19 19 18 17 16 14 13 11 12 12 12 10 9
4 7 11 15 12 12 2 10 11 9 15 10 12 17 16 14 18 17 15 12 9 18 23 23 28 31 31 29 27 25 24 23 22 21 21 21 21 21 20 18 17 14 14 13 13 13 12 11 10
8 9 10 8 8 10 9 11 17 17 17 17 18 7 11 19 19 22 20 16 13 16 20 22 27 28 24 21 25 29 27 27 26 25 24 24 21 20 19 19 18 16 15 14 15 15 14 12 10
3 9 8 10 6 7 11 15 18 22 22 22 25 27 28 32 33 27 25 21 18 16 19 22 23 27 28 25 23 28 24 26 28 28 27 26 21 19 20 18 21 20 19 17 18 18 16 14 13
9 7 11 11 10 15 18 23 24 27 34 31 31 33 34 30 30 30 26 24 19 17 20 23 26 26 28 24 27 31 26 33 30 26 27 24 22 22 21 19 19 19 18 16 17 16 15 17 15
12 9 8 10 16 19 21 24 27 31 31 32 26 26 27 26 26 29 28 25 22 20 21 24 27 29 28 30 25 28 26 30 35 32 32 30 23 22 21 20 20 19 19 19 18 17 18 16 16
5 12 17 18 18 23 19 20 13 11 21 20 21 25 26 27 26 26 27 26 24 22 21 24 29 34 34 34 31 30 33 26 35 34 33 32 29 24 23 22 25 21 21 19 18 18 18 17 16
9 17 16 11 2 9 16 20 16 13 11 20 25 32 36 36 33 30 28 28 25 25 23 22 28 34 41 40 37 33 32 32 33 35 33 32 32 31 30 28 24 27 22 22 20 19 19 17 17
10 10 5 7 9 7 6 18 13 13 13 31 36 33 35 36 36 34 29 29 27 26 27 25 28 31 39 43 40 32 31 36 32 34 34 35 35 33 30 31 31 24 26 26 26 26 24 20 18
7 9 12 10 5 13 5 25 12 29 33 31 33 34 33 35 35 33 31 30 29 28 27 28 29 31 35 41 38 35 32 36 35 34 34 35 37 35 31 31 30 29 27 27 28 28 26 25 19
14 17 16 16 6 15 21 29 21 28 27 29 31 31 32 33 32 32 32 30 30 28 27 28 30 30 34 35 38 29 29 37 36 37 36 33 34 36 34 31 29 29 29 29 30 29 28 27 21
14 16 21 17 13 16 17 24 27 29 24 23 23 24 28 31 32 31 30 27 22 24 20 25 29 31 32 34 35 33 32 35 33 34 35 35 34 34 35 33 32 30 31 31 30 29 29 29 24
12 16 20 17 5 15 20 25 26 16 18 21 19 22 24 27 25 23 21 19 17 20 23 21 25 32 33 35 36 37 34 31 30 28 31 34 36 36 36 36 36 32 32 32 32 31 31 30 29
13 15 18 22 19 17 11 19 13 14 13 20 23 25 25 24 25 23 21 19 15 15 17 16 16 26 33 37 35 32 28 25 25 28 30 33 35 35 36 37 34 32 34 34 34 32 32 32 31
13 7 11 13 15 12 13 13 20 10 13 19 23 25 26 26 23 20 18 17 14 14 13 10 12 20 31 38 35 36 34 30 28 26 25 28 35 35 34 34 32 30 35 35 34 32 30 30 30
5 6 10 11 14 16 10 9 6 16 17 22 23 25 26 28 25 22 18 15 14 11 6 7 0 9 20 26 37 34 30 24 18 22 23 29 32 33 33 33 34 37 39 35 34 31 29 27 25
8 9 12 11 8 6 2 6 8 11 16 18 24 25 25 28 27 24 19 13 12 10 5 4 4 5 19 28 34 20 23 18 20 22 18 21 25 26 29 34 37 40 40 35 30 27 26 28 28
4 6 3 3 5 6 5 11 6 14 15 14 21 28 27 26 32 27 26 22 17 15 10 8 8 8 12 19 25 26 31 25 24 25 21 21 24 25 26 30 35 44 42 36 30 32 32 27 33
3 6 5 5 5 11 5 2 4 8 16 22 25 27 29 30 33 31 29 26 23 19 16 14 13 11 10 12 14 18 20 21 21 21 23 25 22 20 25 29 32 35 40 38 35 41 41 38 34
2 6 2 8 10 6 3 5 3 14 15 19 25 28 30 34 33 36 31 29 27 25 22 22 19 15 15 14 8 8 10 12 13 16 17 24 22 24 22 26 29 31 32 37 36 43 40 41 36
12 7 4 5 4 5 3 3 6 14 15 14 19 25 29 32 34 35 37 35 31 29 27 26 26 25 20 13 14 8 3 4 7 11 15 18 25 28 30 23 24 27 29 34 41 42 48 43 42
5 9 8 5 6 4 5 5 6 9 11 13 17 22 26 30 33 35 38 38 38 33 32 32 32 29 25 22 19 14 11 8 5 8 14 19 23 28 29 31 28 25 24 28 37 44 45 42 41
8 11 12 5 4 4 2 3 7 8 11 15 17 20 23 26 31 36 38 39 41 40 40 38 36 35 32 27 23 22 13 11 8 8 10 18 22 17 18 19 20 22 24 29 36 39 41 41 38